[[{"header":{"parameterUnit":"m.s-1","parameterCategory":1,"la1":30.6,"la2":29.2853,"lo1":-89.7004,"lo2":-87.6739,"dy":0.0162,"dx":0.0183,"nx":112,"ny":82,"refTime":"2026-04-25T12:00:00:Z","depth":0,"parameterNumber":2,"parameterNumberName":"U-component_of_WINDS"},"data":[0.0,0.0,0.0,0.0,0.0,0.0,0.0,0.0,0.0,0.0,0.0,0.0,0.0,0.0,0.0,0.0,0.0,0.0,0.0,0.0,0.0,0.0,0.0,0.0,0.0,0.0,0.0,0.0,0.0,0.0,0.0,0.0,0.0,0.0,0.0,0.0,0.0,0.0,0.0,0.0,0.0,0.0,0.0,0.0,0.0,0.0,0.0,0.0,0.0,0.0,0.0,0.0,0.0,0.0,0.0,0.0,0.0,0.0,0.0,0.0,0.0,0.0,0.0,0.0,0.0,0.0,0.0,0.0,0.0,0.0,0.0,0.0,0.0,0.0,0.0,0.0,0.0,0.0,0.0,0.0,0.0,0.0,0.0,0.0,0.0,0.0,0.0,0.0,0.0,0.0,2.2499,2.4926,2.8485,3.0439,2.987,2.8357,2.6442,2.418,0.0,0.0,0.0,0.0,0.0,0.0,0.0,0.0,0.0,0.0,0.0,0.0,0.0,0.0,0.0,0.0,0.0,0.0,0.0,0.0,0.0,0.0,0.0,0.0,0.0,0.0,0.0,0.0,0.0,0.0,0.0,0.0,0.0,0.0,0.0,0.0,0.0,0.0,0.0,0.0,0.0,0.0,0.0,0.0,0.0,0.0,0.0,0.0,0.0,0.0,0.0,0.0,0.0,0.0,0.0,0.0,0.0,0.0,0.0,0.0,0.0,0.0,0.0,0.0,0.0,0.0,0.0,0.0,0.0,0.0,0.0,0.0,0.0,0.0,0.0,0.0,0.0,0.0,0.0,0.0,0.0,0.0,0.0,0.0,0.0,0.0,0.0,0.0,0.0,0.0,0.0,0.0,0.0,0.0,0.0,0.0,0.0,0.0,0.0,0.0,0.0,0.0,0.0,0.0,2.2605,2.6008,2.8151,2.9105,2.856,2.8212,2.6904,2.4079,0.0,0.0,0.0,0.0,0.0,0.0,0.0,0.0,0.0,0.0,0.0,0.0,0.0,0.0,0.0,0.0,0.0,0.0,0.0,0.0,0.0,0.0,0.0,0.0,0.0,0.0,0.0,0.0,0.0,0.0,0.0,0.0,0.0,0.0,0.0,0.0,0.0,0.0,0.0,0.0,0.0,0.0,0.0,0.0,0.0,0.0,0.0,0.0,0.0,0.0,0.0,0.0,0.0,0.0,0.0,0.0,0.0,0.0,0.0,0.0,0.0,0.0,0.0,0.0,0.0,0.0,0.0,0.0,0.0,0.0,0.0,0.0,0.0,0.0,0.0,0.0,0.0,0.0,0.0,0.0,0.0,0.0,0.0,0.0,0.0,0.0,0.0,0.0,0.0,0.0,0.0,0.0,0.0,0.0,0.0,0.0,0.0,0.0,0.0,0.0,0.0,0.0,0.0,2.1895,2.4402,2.693,2.8118,2.8572,2.7948,2.7378,2.5961,2.3329,2.0804,0.0,0.0,0.0,0.0,0.0,0.0,0.0,0.0,0.0,0.0,0.0,0.0,0.0,0.0,0.0,0.0,0.0,0.0,0.0,0.0,0.0,0.0,0.0,0.0,0.0,0.0,0.0,0.0,0.0,0.0,0.0,0.0,0.0,0.0,0.0,0.0,0.0,0.0,0.0,0.0,0.0,0.0,0.0,0.0,0.0,0.0,0.0,0.0,0.0,0.0,0.0,0.0,0.0,0.0,0.0,0.0,0.0,0.0,0.0,0.0,0.0,0.0,0.0,0.0,0.0,0.0,0.0,0.0,0.0,0.0,0.0,0.0,0.0,0.0,0.0,0.0,0.0,0.0,0.0,0.0,0.0,0.0,0.0,0.0,0.0,0.0,0.0,0.0,0.0,0.0,0.0,0.0,0.0,0.0,0.0,0.0,0.0,0.0,0.0,0.0,0.0,0.0,2.4014,2.5801,2.7252,2.7882,2.7965,2.7496,2.6407,2.485,2.2592,2.0511,0.0,0.0,0.0,0.0,0.0,0.0,0.0,0.0,0.0,0.0,0.0,0.0,0.0,0.0,0.0,0.0,0.0,0.0,0.0,0.0,0.0,0.0,0.0,0.0,0.0,0.0,0.0,0.0,0.0,0.0,0.0,0.0,0.0,0.0,0.0,0.0,0.0,0.0,0.0,0.0,0.0,0.0,0.0,0.0,0.0,0.0,0.0,0.0,0.0,0.0,0.0,0.0,0.0,0.0,0.0,0.0,0.0,0.0,0.0,0.0,0.0,0.0,0.0,0.0,0.0,0.0,0.0,0.0,0.0,0.0,0.0,0.0,0.0,0.0,0.0,0.0,0.0,0.0,0.0,0.0,0.0,0.0,0.0,0.0,0.0,0.0,0.0,0.0,0.0,0.0,0.0,0.0,0.0,0.0,0.0,0.0,0.0,0.0,0.0,0.0,0.0,0.0,2.3756,2.5344,2.6505,2.7002,2.7105,2.6576,2.5585,2.4135,2.2053,2.0081,0.0,0.0,0.0,0.0,0.0,0.0,0.0,0.0,0.0,0.0,0.0,0.0,0.0,0.0,0.0,0.0,0.0,0.0,0.0,0.0,0.0,0.0,0.0,0.0,0.0,0.0,0.0,0.0,0.0,0.0,0.0,0.0,0.0,0.0,0.0,0.0,0.0,0.0,0.0,0.0,0.0,0.0,0.0,0.0,0.0,0.0,0.0,0.0,0.0,0.0,0.0,0.0,0.0,0.0,0.0,0.0,0.0,0.0,0.0,0.0,0.0,0.0,0.0,0.0,0.0,0.0,0.0,0.0,0.0,0.0,0.0,0.0,0.0,0.0,0.0,0.0,0.0,0.0,0.0,0.0,0.0,0.0,0.0,0.0,0.0,0.0,0.0,0.0,0.0,0.0,0.0,0.0,0.0,0.0,0.0,0.0,0.0,0.0,0.0,0.0,0.0,0.0,2.405,2.595,0.0,2.7492,2.7275,2.6371,2.4994,2.3225,2.1104,0.0,0.0,0.0,0.0,0.0,0.0,0.0,0.0,0.0,0.0,0.0,0.0,0.0,0.0,0.0,0.0,0.0,0.0,0.0,0.0,0.0,0.0,0.0,0.0,0.0,0.0,0.0,0.0,0.0,0.0,0.0,0.0,0.0,0.0,0.0,0.0,0.0,0.0,0.0,0.0,0.0,0.0,0.0,0.0,0.0,0.0,0.0,0.0,0.0,0.0,0.0,0.0,0.0,0.0,0.0,0.0,0.0,0.0,0.0,0.0,0.0,0.0,0.0,0.0,0.0,0.0,0.0,0.0,0.0,0.0,0.0,0.0,0.0,0.0,0.0,0.0,0.0,0.0,0.0,0.0,0.0,0.0,0.0,0.0,0.0,0.0,0.0,0.0,0.0,0.0,0.0,0.0,0.0,0.0,0.0,0.0,0.0,0.0,0.0,0.0,0.0,0.0,2.1177,2.3962,2.6088,0.0,2.7797,2.755,2.6357,2.4534,2.2517,2.0303,0.0,0.0,0.0,0.0,0.0,0.0,0.0,0.0,0.0,0.0,0.0,0.0,0.0,0.0,0.0,0.0,0.0,0.0,0.0,0.0,0.0,0.0,0.0,0.0,0.0,0.0,0.0,0.0,0.0,0.0,0.0,0.0,0.0,0.0,0.0,0.0,0.0,0.0,0.0,0.0,0.0,0.0,0.0,0.0,0.0,0.0,0.0,0.0,0.0,0.0,0.0,0.0,0.0,0.0,0.0,0.0,0.0,0.0,0.0,0.0,0.0,0.0,0.0,0.0,0.0,0.0,0.0,0.0,0.0,0.0,0.0,0.0,0.0,0.0,0.0,0.0,0.0,0.0,0.0,0.0,0.0,0.0,0.0,0.0,0.0,0.0,0.0,0.0,0.0,0.0,0.0,0.0,0.0,0.0,0.0,0.0,0.0,0.0,0.0,0.0,0.0,0.0,2.0369,2.336,2.5689,2.686,2.7567,2.7615,2.6584,2.4349,2.2049,0.0,0.0,0.0,0.0,0.0,0.0,0.0,0.0,0.0,0.0,0.0,0.0,0.0,0.0,0.0,0.0,0.0,0.0,0.0,0.0,0.0,0.0,0.0,0.0,0.0,0.0,0.0,0.0,0.0,0.0,0.0,0.0,0.0,0.0,0.0,0.0,0.0,0.0,0.0,0.0,0.0,0.0,0.0,0.0,0.0,0.0,0.0,0.0,0.0,0.0,0.0,0.0,0.0,0.0,0.0,0.0,0.0,0.0,0.0,0.0,0.0,0.0,0.0,0.0,0.0,0.0,0.0,0.0,0.0,0.0,0.0,0.0,0.0,0.0,0.0,0.0,0.0,0.0,0.0,0.0,0.0,0.0,0.0,0.0,0.0,0.0,0.0,0.0,0.0,0.0,0.0,0.0,0.0,0.0,0.0,0.0,0.0,0.0,0.0,0.0,0.0,0.0,0.0,1.9626,2.2876,2.5419,2.6405,2.7403,2.7459,2.6195,2.4264,2.2056,1.9558,0.0,0.0,0.0,0.0,0.0,0.0,0.0,0.0,0.0,0.0,0.0,0.0,0.0,0.0,0.0,0.0,0.0,0.0,0.0,0.0,0.0,0.0,0.0,0.0,0.0,0.0,0.0,0.0,0.0,0.0,0.0,0.0,0.0,0.0,0.0,0.0,0.0,0.0,0.0,0.0,0.0,0.0,0.0,0.0,0.0,0.0,0.0,0.0,0.0,0.0,0.0,0.0,0.0,0.0,0.0,0.0,0.0,0.0,0.0,0.0,0.0,0.0,0.0,0.0,0.0,0.0,0.0,0.0,0.0,0.0,0.0,0.0,0.0,0.0,0.0,0.0,0.0,0.0,0.0,0.0,0.0,0.0,0.0,0.0,0.0,0.0,0.0,0.0,0.0,0.0,0.0,0.0,0.0,0.0,0.0,0.0,0.0,0.0,0.0,0.0,0.0,0.0,1.8697,2.2122,2.4704,2.5532,2.6634,2.6897,2.5701,2.4108,2.199,1.9187,0.0,0.0,0.0,0.0,0.0,0.0,0.0,0.0,0.0,0.0,0.0,0.0,0.0,0.0,0.0,0.0,0.0,0.0,0.0,0.0,0.0,0.0,0.0,0.0,0.0,0.0,0.0,0.0,0.0,0.0,0.0,0.0,0.0,0.0,0.0,0.0,0.0,0.0,0.0,0.0,0.0,0.0,0.0,0.0,0.0,0.0,0.0,0.0,0.0,0.0,0.0,0.0,0.0,0.0,0.0,0.0,0.0,0.0,0.0,0.0,0.0,0.0,0.0,0.0,0.0,0.0,0.0,0.0,0.0,0.0,0.0,0.0,0.0,0.0,0.0,0.0,0.0,0.0,0.0,0.0,0.0,0.0,0.0,0.0,0.0,0.0,0.0,0.0,0.0,0.0,0.0,0.0,0.0,0.0,0.0,0.0,0.0,0.0,0.0,0.0,0.0,0.0,1.7788,2.1109,2.3582,2.422,2.5468,2.5827,2.4995,2.3722,2.1726,1.8686,0.0,0.0,0.0,0.0,0.0,0.0,0.0,0.0,0.0,0.0,0.0,0.0,0.0,0.0,0.0,0.0,0.0,0.0,0.0,0.0,0.0,0.0,0.0,0.0,0.0,0.0,0.0,0.0,0.0,0.0,0.0,0.0,0.0,0.0,0.0,0.0,0.0,0.0,0.0,0.0,0.0,0.0,0.0,0.0,0.0,0.0,0.0,0.0,0.0,0.0,0.0,0.0,0.0,0.0,0.0,0.0,0.0,0.0,0.0,0.0,2.0065,0.0,0.0,0.0,0.0,0.0,0.0,0.0,0.0,0.0,0.0,0.0,0.0,0.0,0.0,0.0,0.0,0.0,0.0,0.0,0.0,0.0,0.0,0.0,0.0,0.0,0.0,0.0,0.0,0.0,0.0,0.0,0.0,0.0,0.0,0.0,0.0,0.0,0.0,0.0,0.0,0.0,1.7692,2.0254,2.2253,2.303,2.4013,2.415,2.3148,2.2354,2.0779,1.8175,1.6052,0.0,0.0,0.0,0.0,0.0,0.0,0.0,0.0,0.0,0.0,0.0,0.0,0.0,0.0,0.0,0.0,0.0,0.0,0.0,0.0,0.0,0.0,0.0,0.0,0.0,0.0,0.0,0.0,0.0,0.0,0.0,0.0,0.0,0.0,0.0,0.0,0.0,0.0,0.0,0.0,0.0,0.0,0.0,0.0,0.0,0.0,0.0,0.0,0.0,0.0,0.0,0.0,0.0,0.0,0.0,0.0,0.0,0.0,0.0,0.0,2.127,0.0,0.0,0.0,0.0,0.0,0.0,0.0,0.0,0.0,0.0,0.0,0.0,0.0,0.0,0.0,0.0,0.0,0.0,0.0,0.0,0.0,0.0,0.0,0.0,0.0,0.0,0.0,0.0,0.0,0.0,0.0,0.0,0.0,0.0,0.0,0.0,0.0,0.0,0.0,0.0,1.6637,1.8904,2.0557,2.1098,2.1962,2.2175,2.123,2.0897,1.9728,1.7458,1.591,0.0,0.0,0.0,0.0,0.0,0.0,0.0,0.0,0.0,0.0,0.0,0.0,0.0,0.0,0.0,0.0,0.0,0.0,0.0,0.0,0.0,0.0,0.0,0.0,0.0,0.0,0.0,0.0,0.0,0.0,0.0,0.0,0.0,0.0,0.0,0.0,0.0,0.0,0.0,0.0,0.0,0.0,0.0,0.0,0.0,0.0,0.0,0.0,0.0,0.0,0.0,0.0,0.0,2.3318,2.4191,2.5165,2.5243,2.5765,2.6333,2.4622,2.3619,2.312,2.2197,0.0,0.0,0.0,0.0,0.0,0.0,0.0,0.0,0.0,0.0,0.0,0.0,0.0,0.0,0.0,0.0,0.0,0.0,0.0,0.0,0.0,0.0,0.0,0.0,1.5618,1.4936,1.3717,0.0,0.0,0.0,0.0,0.0,0.0,0.0,0.0,0.0,0.0,0.0,1.5763,1.7642,1.9018,1.9411,2.0209,2.0319,1.967,1.956,1.8754,1.682,1.5782,1.4653,0.0,0.0,0.0,0.0,0.0,0.0,0.0,0.0,0.0,0.0,0.0,0.0,0.0,0.0,0.0,0.0,0.0,0.0,0.0,0.0,0.0,0.0,0.0,0.0,0.0,0.0,0.0,0.0,0.0,0.0,0.0,0.0,1.3604,1.3337,0.0,0.0,0.0,0.0,0.0,0.0,0.0,0.0,0.0,0.0,0.0,0.0,0.0,2.1774,2.2678,2.3671,2.4437,2.507,2.614,2.6628,2.6429,2.6922,2.7014,2.6982,2.6896,0.0,2.4943,2.3732,0.0,0.0,0.0,0.0,0.0,0.0,0.0,0.0,0.0,0.0,0.0,0.0,0.0,0.0,0.0,0.0,0.0,0.0,0.0,0.0,0.0,0.0,1.7231,1.6135,1.5992,1.6102,0.0,1.4933,1.4328,1.3688,1.2899,0.0,0.0,0.0,0.0,0.0,0.0,0.0,1.644,1.7325,1.8125,1.9243,1.945,1.9324,1.8839,1.8651,1.7941,1.6799,1.5818,1.4977,1.4205,1.2917,0.0,0.0,0.0,0.0,0.0,0.0,0.0,0.0,0.0,0.0,0.0,0.0,0.0,0.0,0.0,0.0,0.0,0.0,0.0,0.0,0.0,0.0,0.0,0.0,0.0,0.0,0.0,0.0,0.0,1.2247,1.371,1.3749,1.423,1.4317,0.0,0.0,0.0,0.0,0.0,0.0,0.0,0.0,0.0,2.0435,2.1839,2.3158,2.4267,2.5019,2.5849,2.6588,2.6796,2.6976,2.7215,2.7083,2.7088,2.7241,2.7437,2.6982,2.6152,2.4848,2.3408,2.1826,0.0,0.0,0.0,0.0,1.8727,1.8621,1.8831,1.8486,1.7941,1.7385,0.0,0.0,0.0,0.0,0.0,0.0,0.0,0.0,0.0,0.0,1.7404,1.6663,1.6625,1.6691,1.6151,1.5855,1.5416,0.0,1.377,1.2959,1.2423,0.0,0.0,0.0,0.0,1.4811,1.6005,1.6701,1.7333,1.808,1.822,1.8199,1.7886,1.758,1.7162,1.649,1.5756,1.5154,1.4711,1.3528,1.2576,0.0,0.0,0.0,0.0,0.0,0.0,0.0,0.0,0.0,0.0,0.0,0.0,0.0,0.0,0.0,0.0,0.0,0.0,0.0,0.0,0.0,0.0,0.0,0.0,0.0,0.0,0.0,0.0,1.3137,1.4295,1.4582,1.5028,1.5171,0.0,0.0,0.0,0.0,0.0,0.0,1.8723,1.9885,2.0978,2.1886,2.3053,2.4307,2.556,2.6002,2.6594,2.7321,2.6912,2.689,2.7227,2.689,2.7046,2.7347,2.7441,2.7278,2.6811,2.5588,2.4359,2.2971,2.1778,2.0771,2.0034,2.0112,1.9836,1.9516,1.9706,1.9468,1.903,1.8508,1.7379,1.6075,1.5117,0.0,0.0,0.0,0.0,1.5847,1.6348,1.7003,1.7285,1.7017,1.7004,1.6923,1.6543,1.6373,1.6093,0.0,1.4411,1.3651,1.3192,0.0,0.0,0.0,0.0,1.494,1.5704,1.6454,1.697,1.7252,1.7483,1.7495,1.7281,1.6921,1.6613,1.6393,1.5758,1.5297,1.4993,1.4004,1.3094,1.25,0.0,0.0,0.0,0.0,0.0,0.0,0.0,0.0,0.0,0.0,0.0,0.0,0.0,0.0,0.0,0.0,0.0,0.0,0.0,0.0,0.0,0.0,0.0,0.0,0.0,0.0,0.0,0.0,0.0,1.633,1.7399,0.0,0.0,0.0,0.0,1.8796,1.9706,2.0627,2.1549,2.2244,2.3094,2.4002,2.4644,2.546,2.6396,2.6828,2.6983,2.6963,2.7052,2.6855,2.6393,2.6847,2.7105,2.7141,2.7517,2.735,2.669,2.5793,2.5263,2.4695,2.3141,2.2308,2.1944,2.1003,2.069,2.0662,2.045,2.0202,1.9995,1.93,1.7642,1.5816,1.5287,1.4817,0.0,0.0,1.55,1.598,1.6278,1.677,1.7002,1.6742,1.6869,1.6978,1.67,1.6429,1.6141,0.0,1.4886,1.44,1.4366,0.0,1.4496,1.4376,1.5026,1.5731,1.6172,1.6586,1.6964,1.7555,1.7582,1.7575,1.7562,1.7034,1.67,1.6687,1.5872,1.5292,1.4995,1.4415,1.3651,1.2921,1.198,0.0,0.0,0.0,0.0,0.0,0.0,0.0,0.0,0.0,0.0,0.0,0.0,0.0,0.0,0.0,0.0,0.0,0.0,0.0,0.0,0.0,0.0,0.0,0.0,0.0,0.0,0.0,0.0,1.7189,1.8449,0.0,1.8927,1.9199,1.9965,2.1176,2.1859,2.2649,2.3678,2.3881,2.4346,2.5056,2.5265,2.5768,2.6608,2.6763,2.6854,2.6977,2.6682,2.6345,2.6188,2.6028,2.6179,2.6311,2.6442,2.6528,2.6603,2.631,2.5613,2.4889,2.3804,2.2985,2.223,2.1435,2.094,2.0608,2.0344,2.0057,1.9761,1.8976,1.7827,1.6628,1.6441,1.6072,1.5819,1.6047,1.6192,1.6246,1.6098,1.6266,1.6228,1.6104,1.6115,1.6104,1.5736,1.5607,1.5457,1.49,1.4985,1.4991,1.4653,1.4779,1.4865,1.4873,1.5403,1.5894,1.6276,1.6562,1.6839,1.7041,1.716,1.7305,1.701,1.6839,1.6627,1.644,1.5952,1.5577,1.5295,1.4444,1.353,1.2825,1.1617,1.0395,0.0,0.0,0.0,0.0,0.0,0.0,0.0,0.0,0.0,0.0,0.0,0.0,0.0,0.0,0.0,0.0,0.0,0.0,0.0,0.0,0.0,0.0,0.0,0.0,0.0,0.0,1.7655,1.8104,1.9418,2.0298,2.0452,2.0862,2.1619,2.2848,2.336,2.3957,2.4786,2.4888,2.5081,2.5408,2.5569,2.5909,2.6443,2.6592,2.6584,2.6436,2.5881,2.5532,2.5369,2.5032,2.5061,2.5419,2.5552,2.5744,2.6081,2.6081,2.5431,2.4602,2.4236,2.3399,2.2372,2.1421,2.0704,2.0221,1.9813,1.9523,1.9233,1.8598,1.8025,1.7497,1.7497,1.7243,1.6924,1.6815,1.6669,1.6303,1.5817,1.5508,1.516,1.5016,1.5043,1.495,1.4672,1.4636,1.4528,1.4164,1.4641,1.4862,1.4445,1.4489,1.4618,1.4624,1.5154,1.5493,1.5664,1.5921,1.6193,1.6305,1.6442,1.6428,1.6342,1.6182,1.5978,1.579,1.5421,1.5063,1.486,1.3926,1.3118,1.2439,1.0921,0.96,0.8498,0.0,0.0,0.0,0.0,0.0,0.0,0.0,0.0,0.0,0.0,0.0,0.0,0.0,0.0,0.0,0.0,0.0,0.0,0.0,0.0,0.0,0.0,0.0,1.397,1.6663,1.8682,1.9064,2.0376,2.1359,2.1789,2.2139,2.2852,2.3744,2.4195,2.4534,2.4925,2.5092,2.5121,2.5034,2.5623,2.5834,2.5852,2.6353,2.6109,2.511,2.4889,2.4432,2.3908,2.3888,2.4111,2.4474,2.483,2.498,2.498,2.498,2.461,2.407,2.4327,2.371,2.2349,2.0693,1.9931,1.945,1.8949,1.8698,1.8656,1.8402,1.8312,1.8306,1.8318,1.8312,1.806,1.732,1.6684,1.6053,1.5307,1.4513,1.3854,1.384,1.369,1.3674,1.3665,1.3665,1.3603,1.3283,1.3658,1.4008,1.3778,1.3735,1.3777,1.3777,1.4182,0.0,1.4548,1.4758,1.5013,1.5345,1.5118,1.507,1.5383,1.4891,1.458,1.4562,1.4088,1.3726,1.3476,1.2981,1.2373,1.1589,0.9888,0.8651,0.7904,0.0,0.0,0.0,0.0,0.0,0.0,0.0,0.0,0.0,0.0,0.0,0.0,0.0,0.0,0.0,0.0,0.0,0.0,0.0,0.0,0.0,0.0,1.4213,1.4758,1.6968,1.8835,1.9554,2.0751,2.169,2.2121,2.2543,2.3137,2.4063,2.4236,2.4355,2.4617,2.4535,2.4536,2.4634,2.4721,2.4794,2.509,2.5194,2.4915,2.4239,2.3776,2.3414,2.3183,2.2787,2.2894,2.3447,2.3544,2.3705,2.3705,2.3705,2.3208,2.2702,2.3244,2.2842,2.1721,2.0499,1.977,1.9224,1.9097,1.8969,1.8957,1.8637,1.8224,1.7725,1.7788,1.7461,1.6976,1.6509,1.5777,1.509,1.4312,1.3466,1.2843,1.2576,1.2475,1.2403,1.2384,1.2354,1.2299,1.1997,1.2069,1.2306,1.2846,1.2817,1.2782,1.2782,1.2939,0.0,1.2974,1.3028,1.3171,1.328,1.3295,1.32,1.3143,1.3058,1.2937,1.2587,1.2347,1.2141,1.176,1.1189,1.0386,0.927,0.8545,0.802,0.0,0.0,0.0,0.0,0.0,0.0,0.0,0.0,0.0,0.0,0.0,0.0,0.0,0.0,0.0,0.0,0.0,0.0,0.0,0.0,0.0,0.0,1.3857,1.5173,1.5969,1.7697,1.9084,1.9724,2.095,2.1864,2.2283,2.2861,2.3401,2.3858,2.4054,2.4137,2.4272,2.4359,2.434,2.4208,2.4164,2.4141,2.4256,2.4144,2.3689,2.3127,2.2539,2.2198,2.2125,2.1526,2.1624,2.2215,2.2215,2.2215,2.2215,2.2215,2.1964,0.0,0.0,0.0,0.0,0.0,1.945,1.9078,1.9078,1.9078,1.9078,1.8565,1.7942,1.7324,1.6958,1.6389,1.5797,1.5279,1.4525,1.384,1.3093,1.2228,1.1592,1.1332,1.1215,1.1117,1.0948,1.091,1.0884,1.0786,1.0714,0.0,1.122,1.1582,1.1757,1.1673,1.1664,1.1664,1.1664,1.1664,1.1773,1.1878,1.1732,1.1722,1.1709,1.163,0.0,0.0,0.0,1.0806,1.0318,0.9949,0.0,0.0,0.0,0.0,0.0,0.0,0.0,0.0,0.6985,0.6787,0.0,0.0,0.0,0.0,0.0,0.0,0.0,0.0,0.0,0.0,0.0,0.0,0.0,0.0,0.0,0.0,1.4527,1.5757,1.7174,1.8373,1.9282,1.977,2.0829,2.1672,2.2162,2.2899,2.3363,2.3417,2.3735,2.3917,2.3812,0.0,0.0,0.0,0.0,2.3689,2.3352,2.3014,2.2441,2.1881,2.1296,2.0929,2.0818,2.0227,2.0308,2.0856,2.0856,2.0856,2.0856,2.0856,2.0729,2.0482,2.0836,2.0576,1.9954,1.9328,1.895,1.8944,1.8944,0.0,0.0,1.8033,1.7378,1.6592,1.5949,1.5298,1.452,1.3875,1.3218,1.2557,1.1909,1.1144,1.0477,1.0317,1.0175,1.0029,0.9859,0.9822,0.9822,0.9822,0.972,0.9581,0.9412,1.017,1.0679,1.05,1.0472,1.0472,1.0472,1.0472,1.0582,1.0798,0.0,0.0,1.0711,1.0382,1.0169,1.0147,0.9942,0.9536,0.9156,0.8991,0.881,0.8523,0.8258,0.8128,0.8224,0.8228,0.834,0.8372,0.7816,0.7386,0.0,0.0,0.0,0.0,0.0,0.0,0.0,0.0,0.0,0.0,0.0,0.0,0.0,0.0,0.0,1.3707,1.4776,1.5835,1.6661,1.7503,1.8476,1.9644,2.0529,2.118,2.1544,2.2013,2.2412,2.2715,2.2802,2.301,2.3195,2.359,2.3747,2.3452,2.3254,2.2877,2.2425,2.1722,2.1145,2.058,0.0,0.0,1.9607,1.8894,1.8951,1.9456,1.9456,1.9456,1.9456,1.9456,1.9456,1.9456,1.9705,1.9705,1.92,1.8822,1.8437,1.8168,1.7916,1.7658,1.7265,1.6618,1.5959,1.5168,1.4525,1.3739,0.0,1.2696,1.2305,1.1909,1.138,1.0962,1.0609,1.0344,1.0256,1.0161,0.988,0.9822,0.9822,0.9822,0.9798,0.9693,0.9429,0.9481,0.9441,0.9289,0.9268,0.9268,0.9268,0.9268,0.9268,0.9265,0.9204,0.9094,0.9094,0.9025,0.8859,0.874,0.8354,0.8193,0.8101,0.8126,0.8195,0.8096,0.8357,0.8411,0.8348,0.8545,0.8698,0.8875,0.8368,0.7853,0.0,0.0,0.0,0.0,0.0,0.0,0.0,0.0,0.0,0.0,0.0,0.9679,1.0667,0.0,1.305,1.4033,1.4721,1.5511,1.6338,1.6827,1.7531,1.8977,2.0121,2.094,2.1213,2.1936,2.2347,2.2526,2.2644,2.28,2.3156,2.3165,2.3195,2.2942,2.2332,2.1851,2.1174,2.0628,2.024,1.9773,1.9457,1.9159,1.9087,1.8729,1.8704,1.9078,1.9078,1.9078,1.9078,1.895,1.8693,1.8553,1.8553,1.8816,1.9072,1.8559,1.7905,1.7378,1.6866,1.6348,1.5824,1.5183,1.4394,1.3735,1.3087,1.2297,1.1769,1.1512,1.138,1.1251,1.0982,1.085,1.0646,1.0351,1.028,1.0195,0.9886,0.9822,0.9822,0.9822,0.9822,0.9751,0.9534,0.9367,0.9191,0.8971,0.894,0.894,0.894,0.894,0.894,0.894,0.8801,0.871,0.871,0.857,0.8452,0.8381,0.8231,0.8147,0.8147,0.8018,0.7955,0.7955,0.8027,0.813,0.8156,0.8262,0.8504,0.867,0.8062,0.753,0.0,0.0,0.0,0.0,0.0,0.0,0.0,0.0,0.7935,0.8423,0.9532,1.064,1.1243,1.2294,1.3311,1.4045,1.4524,1.5047,1.595,1.6027,1.6639,1.7998,1.9499,2.0578,2.0942,2.1841,2.2475,2.2544,2.2644,2.2775,2.3118,2.2831,2.2501,2.2305,2.1288,2.0486,1.9924,1.9522,1.9186,1.9067,1.8993,1.9025,1.9043,1.8805,1.8831,1.9078,1.9078,1.9078,1.9078,1.8693,1.8173,1.777,1.7394,1.7653,1.8291,1.7776,1.712,1.6462,1.5819,1.5168,1.439,1.3744,1.3087,1.2425,1.1909,1.1247,1.0721,1.0721,1.0721,1.0721,1.0721,1.0721,1.0646,1.0351,1.028,1.0195,0.9886,0.9822,0.9822,0.9822,0.9822,0.9774,0.9635,0.9483,0.9289,0.9022,0.8957,0.894,0.894,0.894,0.894,0.894,0.8828,0.8754,0.8754,0.8642,0.8557,0.8526,0.8526,0.8513,0.8482,0.8197,0.8002,0.7787,0.7602,0.7399,0.7502,0.7502,0.7608,0.7818,0.7074,0.6839,0.8908,0.9318,1.0143,0.9982,1.0141,1.0234,0.0,0.0,0.8812,0.9753,1.039,1.1089,1.2039,1.2698,1.3206,1.3615,1.4139,1.463,1.4986,1.5261,1.5715,1.6678,1.8471,1.9805,2.0313,2.1408,2.2192,2.2518,2.2644,2.2673,2.2798,2.2272,2.1705,2.1388,2.0134,1.9216,1.8648,1.822,1.8111,1.8111,1.8277,1.855,1.868,1.868,1.8831,1.9078,1.9078,1.9078,1.9078,1.8296,1.7641,1.7109,1.6467,1.5819,1.5434,1.5964,1.5699,1.5038,1.4394,1.3608,1.2947,1.2568,1.2177,1.1776,1.138,1.0982,1.0721,1.0721,1.0721,1.0721,1.0721,1.0721,1.0646,1.0351,1.028,1.0195,0.9886,0.9822,0.9822,0.9822,0.9822,0.9774,0.9635,0.9483,0.9323,0.9154,0.9022,0.894,0.894,0.894,0.894,0.894,0.8923,0.8913,0.8913,0.8899,0.8828,0.8693,0.8682,0.8625,0.8486,0.8401,0.7822,0.7058,0.6835,0.6441,0.5665,0.5665,0.5662,0.5773,0.5335,0.5578,1.017,1.0816,0.0,0.0,1.2103,1.2421,1.166,1.0883,1.0473,1.1056,1.1421,1.1815,1.2246,1.2613,1.2914,0.0,1.3385,1.3743,1.4019,1.4151,1.4568,1.5393,1.6425,1.769,1.9482,2.0474,2.1246,2.1607,2.1829,2.186,2.1718,2.1363,2.0914,2.0364,1.9339,1.8532,1.8194,1.8148,1.8118,1.8125,1.8547,1.8807,1.8915,1.8915,1.8969,1.9072,1.895,1.8693,1.8425,1.7512,1.6602,1.5684,1.5043,1.439,1.3731,1.453,1.4263,1.3604,1.2955,1.2169,1.1508,1.138,1.1247,1.1118,1.0986,1.0853,1.0721,1.0721,1.0721,1.0721,1.0721,1.0721,1.0646,1.0351,1.028,1.0195,0.9886,0.9822,0.9822,0.9822,0.9822,0.9802,0.9744,0.9537,0.9361,0.9296,0.9086,0.8826,0.8712,0.8709,0.8598,0.838,0.838,0.838,0.838,0.838,0.8355,0.8294,0.8291,0.8262,0.8205,0.7713,0.7084,0.6526,0.5906,0.5369,0.4921,0.4921,0.4921,0.481,0.4365,0.4334,1.0827,0.0,0.0,1.2999,1.3607,1.3915,1.3085,1.2257,1.1696,1.1821,1.2024,1.2228,1.23,1.2469,1.262,1.2693,1.3,1.3296,1.3489,1.364,1.3969,1.4644,1.5074,1.6062,1.8064,1.9231,1.9984,2.0327,2.0659,2.0833,2.052,2.0287,1.9927,1.9455,1.8532,1.8071,1.7849,1.8149,1.8294,1.83,1.8825,1.9078,1.9078,1.9078,1.9078,1.9078,1.8693,1.8173,1.7641,1.6473,1.5429,1.4254,1.3613,1.2824,1.2293,1.2824,1.2824,1.2429,1.1776,1.1247,1.0721,1.0721,1.0721,1.0721,1.0721,1.0721,1.0721,1.0721,1.0721,1.0721,1.0721,1.0721,1.0646,1.022,1.0149,1.0066,0.9642,0.9579,0.9579,0.9579,0.9579,0.9579,0.9579,0.9337,0.9146,0.9146,0.8901,0.8602,0.8484,0.826,0.7817,0.7371,0.7263,0.7263,0.7263,0.7263,0.7263,0.7263,0.7263,0.7263,0.7263,0.6596,0.604,0.559,0.4814,0.4145,0.381,0.381,0.381,0.3698,0.3362,0.3139,0.0,0.0,1.3097,1.3652,1.4065,1.4155,1.362,1.2629,1.1911,1.1939,1.1926,1.2011,1.227,1.2318,1.2409,1.2662,1.3157,1.3507,1.3513,1.3954,1.4376,1.4688,1.4975,1.5371,0.0,1.7408,1.8515,1.8846,1.9352,1.9528,1.9318,1.9061,1.8682,1.8409,1.783,1.7479,1.7485,1.8022,1.8294,1.83,1.8825,1.9078,1.9078,1.9078,1.9078,1.9072,1.8296,1.7636,1.6974,1.5554,1.4124,1.2816,1.2173,1.1383,1.0717,1.0853,1.1251,1.178,1.138,1.0982,1.0721,1.0721,1.0721,1.0721,1.0721,1.0721,1.0721,1.0721,1.0721,1.0721,1.0721,1.0721,1.0511,0.9954,0.9758,0.968,0.9035,0.8976,0.8976,0.8976,0.8976,0.8976,0.8976,0.8625,0.8442,0.8442,0.8216,0.8156,0.8484,0.7479,0.6478,0.5584,0.5472,0.5472,0.5472,0.5472,0.5472,0.5472,0.5472,0.5472,0.5472,0.514,0.4585,0.3692,0.336,0.269,0.1907,0.1907,0.1907,0.1907,0.1907,0.1907,0.0,0.0,1.2972,1.3564,1.4048,1.4223,1.3849,1.3228,1.2624,1.2449,1.2128,1.195,1.2035,1.1914,1.1938,1.2373,1.2898,1.3314,1.3489,1.3815,1.4099,1.4376,1.4337,0.0,0.0,0.0,0.0,1.7728,1.839,1.8783,1.8457,1.847,1.8436,1.8194,1.7719,1.7367,1.7138,1.741,1.742,1.7302,1.7545,1.7653,1.7653,1.7653,1.7653,1.7653,1.7007,1.6219,1.5554,1.439,1.3218,1.2037,1.1644,1.1115,1.0721,1.0721,1.0853,1.0986,1.0986,1.0853,1.0721,1.0721,1.0721,1.0721,1.0721,1.0721,1.0721,1.0721,1.0721,1.0721,1.0721,1.0643,1.0387,0.9931,0.9175,0.856,0.8025,0.7373,0.6879,0.6879,0.6879,0.686,0.6916,0.6665,0.6522,0.6379,0.6865,0.7154,0.7041,0.6151,0.5371,0.4812,0.481,0.481,0.481,0.481,0.481,0.481,0.481,0.481,0.481,0.4255,0.3808,0.3248,0.2802,0.2243,0.1795,0.1795,0.1795,0.1795,0.1795,0.1795,1.0653,1.2096,1.3195,1.3712,1.4142,1.4241,1.3811,1.3278,1.2779,1.2147,1.1757,1.1402,1.1323,1.1111,1.1198,1.1887,1.2508,1.3034,1.3296,1.3728,1.4111,1.428,1.4147,1.4153,0.0,0.0,0.0,1.6471,1.7371,1.7805,1.7582,1.7886,1.7954,1.7843,1.7602,1.725,1.6779,1.6796,1.6626,1.6166,1.6208,1.6219,1.6219,1.6219,1.6219,1.6219,1.5574,1.4786,1.4124,1.3214,1.2301,1.1383,1.1118,1.085,1.0721,1.0721,1.0721,1.0721,1.0721,1.0721,1.0721,1.0721,1.0721,1.0721,1.0721,1.0721,1.0721,1.0588,1.0455,1.0455,1.0323,1.0215,0.9935,0.9279,0.8385,0.7513,0.6787,0.6025,0.5533,0.5533,0.5533,0.5517,0.5587,0.536,0.5224,0.5056,0.5369,0.5485,0.5367,0.4702,0.4033,0.3585,0.3585,0.3585,0.3585,0.3585,0.3585,0.3585,0.3585,0.3585,0.3585,0.3138,0.2803,0.269,0.2243,0.202,0.1795,0.1795,0.1795,0.1795,0.1795,0.1795,1.1376,1.2702,1.3684,1.4149,1.4352,1.4156,1.3461,1.2972,1.232,1.1135,1.072,1.0473,0.0,0.0,1.0182,1.1161,1.1957,1.2649,1.3115,1.3872,1.4304,0.0,0.0,0.0,0.0,0.0,0.0,1.5125,0.0,1.67,1.67,1.7201,1.7485,1.7485,1.7485,1.7126,1.6537,1.617,1.5635,1.4782,1.4782,1.4782,1.4782,1.4782,1.4782,1.4782,1.4132,1.3346,1.2688,1.2041,1.1383,1.0721,1.0721,1.0721,1.0721,1.0721,1.0721,1.0721,1.0721,1.0721,1.0721,1.0721,1.0721,1.0721,1.0721,1.0721,1.0588,1.0323,1.019,1.0057,0.9661,0.9422,0.9021,0.7999,0.7246,0.6638,0.5561,0.5049,0.4803,0.4803,0.48,0.4795,0.4792,0.4671,0.4528,0.4389,0.3921,0.3474,0.358,0.3248,0.269,0.1907,0.1795,0.1795,0.1795,0.1795,0.1795,0.1795,0.1795,0.1795,0.1795,0.1795,0.1795,0.1795,0.1795,0.1795,0.1795,0.1795,0.1795,0.1795,0.1795,0.1795,1.1877,1.2922,1.3682,1.4061,1.3937,1.3574,1.3131,1.2575,1.1854,1.0866,1.0073,0.9388,0.0,0.0,0.0,0.9985,1.1066,0.0,1.2808,1.3684,0.0,1.4582,0.0,1.4714,1.498,1.5246,0.0,0.0,1.6205,1.67,1.67,1.7201,1.7485,1.7485,1.7485,1.7126,1.6177,1.4946,1.3993,1.3341,1.3341,1.3341,1.3341,1.3341,1.3341,1.3341,1.2828,1.2437,1.2041,1.1512,1.1115,1.0721,1.0721,1.0721,1.0721,1.0721,1.0721,1.0721,1.0721,1.0721,1.0721,1.0721,1.0721,1.0721,1.0721,1.0721,1.0588,1.0323,0.9652,0.8978,0.8581,0.7767,0.6843,0.6308,0.5423,0.4573,0.4067,0.3329,0.2715,0.2715,0.269,0.2658,0.2628,0.2579,0.2526,0.2474,0.2354,0.2466,0.3136,0.2802,0.2243,0.1795,0.1795,0.1795,0.1795,0.1795,0.1795,0.1795,0.1795,0.1795,0.1795,0.1795,0.1795,0.1795,0.1795,0.1795,0.1795,0.1795,0.1795,0.1795,0.1795,0.1795,1.2539,1.3281,1.3874,1.3873,1.3562,1.3112,1.2537,1.1745,1.0906,0.985,0.8961,0.0,0.0,0.0,0.0,0.0,0.0,0.0,1.1896,1.2851,1.355,0.0,1.3946,0.0,1.4372,1.4619,1.4809,0.0,1.5979,1.67,1.67,1.7201,1.7485,1.7485,1.7485,1.6753,1.5271,1.3807,1.2599,1.1901,1.1901,1.1901,1.1901,1.1901,1.1901,1.1901,0.0,1.1516,1.1251,1.1118,1.0853,1.0721,1.0721,1.0721,1.0721,1.0721,1.0721,1.0721,1.0721,1.0721,1.0721,1.0588,1.0455,1.0455,1.0323,1.0326,1.0057,0.9525,0.8717,0.79,0.7322,0.641,0.5653,0.5108,0.4385,0.3571,0.3204,0.2468,0.1977,0.1977,0.1963,0.1941,0.1911,0.1881,0.185,0.1819,0.1804,0.2019,0.2466,0.2243,0.202,0.1795,0.1795,0.1795,0.1795,0.1795,0.1795,0.1795,0.1795,0.1795,0.1795,0.1795,0.1795,0.1795,0.1795,0.1795,0.1795,0.1795,0.1795,0.1795,0.1795,0.1795,1.3209,1.3721,1.399,1.3691,1.3297,1.2687,1.1695,1.0745,0.9712,0.8484,0.0,0.6932,0.663,0.64,0.6572,0.7599,0.0,0.9742,1.074,1.1605,1.2289,1.2538,1.2787,1.3042,1.3291,1.3519,1.3731,1.3932,1.5359,1.6204,1.647,1.6964,1.725,1.725,1.7126,1.6025,1.3983,1.2779,1.1698,1.069,1.0711,1.0721,1.0721,1.0721,1.0721,1.0721,1.0721,1.0721,1.0721,1.0721,1.0721,1.0721,1.0721,1.0721,1.0721,1.0588,1.0588,1.0588,1.0588,1.0588,1.0588,1.0323,1.0057,0.9924,0.9525,0.9392,0.9123,0.8056,0.7507,0.6807,0.5805,0.52,0.4482,0.392,0.3614,0.3081,0.259,0.2222,0.1977,0.1977,0.1977,0.1967,0.1937,0.1909,0.188,0.1846,0.1818,0.18,0.1795,0.1795,0.1795,0.1795,0.1795,0.1795,0.1795,0.1795,0.1795,0.1795,0.1795,0.1795,0.1795,0.1795,0.1795,0.1795,0.1795,0.1795,0.1795,0.1795,0.1795,0.1795,0.1795,0.1795,1.3765,1.3873,1.3685,1.3444,1.2932,1.2116,1.1027,0.9921,0.0,0.0,0.0,0.5622,0.5478,0.5203,0.0,0.6581,0.0,0.0,0.0,0.0,1.1321,0.0,0.0,0.0,0.0,0.0,0.0,0.0,0.0,1.3984,1.5101,1.5687,1.5952,1.5952,1.5229,1.4265,1.3163,1.2219,1.1385,1.0531,1.066,1.0721,1.0721,1.0721,1.0721,1.0721,1.0721,0.0,1.0721,1.0721,1.0721,1.0721,1.0721,1.0721,1.0721,1.0455,1.0323,1.019,0.9927,0.9927,0.9927,1.019,0.9652,0.8845,0.8446,0.7641,0.6836,0.6439,0.559,0.475,0.4215,0.3357,0.253,0.2398,0.2371,0.2223,0.2099,0.2099,0.1977,0.1977,0.1977,0.1967,0.1937,0.1926,0.1904,0.1849,0.1836,0.1823,0.1798,0.1795,0.1795,0.1795,0.1795,0.1795,0.1795,0.1795,0.1795,0.1795,0.1795,0.1795,0.1795,0.1795,0.1795,0.1795,0.1795,0.1795,0.1795,0.1795,0.1795,0.1795,0.1795,0.1795,1.3569,1.371,1.3581,1.2972,1.2339,1.142,1.0113,0.0,0.0,0.0,0.0,0.4833,0.4691,0.0,0.0,0.0,0.0,0.0,0.0,0.0,0.0,0.0,0.0,0.0,0.0,0.0,0.0,0.0,0.0,1.2482,1.3833,1.4387,1.4629,1.4629,1.3784,1.3156,1.25,1.1736,1.1031,1.0493,1.0565,1.0643,1.0721,1.0721,1.0677,1.0605,1.0683,1.0673,1.0609,1.0687,1.0721,1.0721,1.0721,1.0721,1.0721,1.0326,0.9788,0.9247,0.8984,0.8448,0.8043,0.791,0.8043,0.791,0.7111,0.6441,0.5759,0.5189,0.4496,0.3805,0.3234,0.255,0.2015,0.2001,0.1986,0.1977,0.1977,0.1977,0.1977,0.1977,0.1977,0.1972,0.1958,0.1941,0.1915,0.187,0.1851,0.1829,0.1799,0.1795,0.1795,0.1795,0.1795,0.1795,0.1795,0.1795,0.1795,0.1795,0.1795,0.1795,0.1795,0.1795,0.157,0.1121,0.0897,0.0897,0.1121,0.1234,0.1458,0.1795,0.1795,0.1795,1.3124,1.3302,1.322,1.2306,1.1546,1.0588,0.9072,0.7716,0.0,0.0,0.4848,0.4274,0.4115,0.0,0.0,0.0,0.0,0.0,0.0,0.0,0.0,0.0,0.0,0.0,0.0,0.0,0.0,0.0,0.0,0.0,1.2639,1.3071,1.3264,1.3306,1.2702,1.2172,1.1709,1.114,1.0811,1.0446,1.0477,1.0571,1.0721,1.0721,1.0636,1.05,1.0653,1.0633,1.0504,1.0528,1.0588,1.0588,1.0455,1.0455,1.0455,0.9924,0.9117,0.8307,0.7777,0.6973,0.6168,0.5635,0.6174,0.6577,0.5778,0.5095,0.4538,0.396,0.3539,0.3246,0.2666,0.2266,0.2004,0.1981,0.1977,0.1977,0.1977,0.1977,0.1977,0.1977,0.1977,0.1977,0.1977,0.1956,0.1928,0.1892,0.1866,0.1837,0.18,0.1795,0.1683,0.157,0.1683,0.1795,0.1795,0.1795,0.1795,0.1795,0.1795,0.1795,0.1795,0.157,0.1009,0.0112,-0.0112,-0.0112,0.0112,0.0561,0.1121,0.1795,0.1795,0.1795,1.2542,1.2548,1.2196,1.1282,1.0416,0.9449,0.7802,0.0,0.0,0.4731,0.4109,0.3705,0.3835,0.3836,0.0,0.0,0.0,0.0,0.0,0.0,0.0,0.0,0.0,0.0,0.0,0.0,0.0,0.0,0.0,0.0,1.1569,1.1622,1.1831,1.1989,1.1635,1.1277,1.0933,1.0718,1.0506,1.03,1.0429,1.0571,1.0721,1.0721,1.0636,1.05,1.0653,1.0633,0.0,1.0264,1.019,1.0193,0.9927,0.9794,0.9661,0.8726,0.8053,0.7514,0.6445,0.5776,0.5371,0.4702,0.4568,0.457,0.417,0.32,0.2376,0.2373,0.2199,0.2152,0.202,0.2,0.1979,0.1977,0.1977,0.1977,0.1977,0.1977,0.1977,0.1977,0.1977,0.1977,0.1977,0.1974,0.1953,0.1894,0.1883,0.1861,0.1802,0.1795,0.1458,0.0673,0.1346,0.1795,0.1795,0.1795,0.1795,0.1795,0.1795,0.1795,0.1795,0.0785,-0.0112,-0.0785,-0.0785,-0.0785,-0.0785,-0.0224,0.0673,0.1795,0.1795,0.1795,1.1188,1.1359,1.1311,1.0258,0.9401,0.8463,0.6898,0.0,0.4767,0.4136,0.3671,0.3369,0.342,0.3549,0.3837,0.0,0.4689,0.5213,0.0,0.0,0.0,0.0,0.0,0.0,0.0,0.0,0.0,0.0,0.0,0.0,1.0126,1.0329,1.0346,1.0528,1.0379,1.0304,1.0183,1.0124,1.0112,1.0141,1.0198,1.0307,1.0456,1.0456,1.0371,1.0239,1.048,1.05,0.0,1.0228,0.9785,0.9247,0.8848,0.8312,0.7641,0.6976,0.6307,0.5506,0.4839,0.4168,0.3362,0.3095,0.3095,0.3095,0.3097,0.2667,0.2106,0.2087,0.2051,0.2015,0.1997,0.1985,0.1977,0.1977,0.1977,0.1977,0.1977,0.1977,0.1977,0.1977,0.1977,0.1977,0.1977,0.1977,0.1956,0.2013,0.1886,0.1864,0.1803,0.1121,0.0449,-0.0336,0.0112,0.0336,0.0224,0.0224,0.0224,0.0224,0.0224,0.0224,0.0224,-0.0224,-0.0785,-0.1681,-0.2019,-0.2019,-0.1681,-0.1233,-0.0673,0.0224,0.0224,0.0224,0.959,0.9895,1.0007,0.895,0.8245,0.74,0.0,0.0,0.41,0.3563,0.3169,0.2901,0.2993,0.3206,0.3544,0.0,0.4373,0.4928,0.5518,0.0,0.0,0.0,0.0,0.0,0.0,0.0,0.0,0.0,0.0,0.0,0.9083,0.9334,0.9517,0.9605,0.9747,0.9822,0.9822,0.9822,0.9897,1.0049,1.0049,1.0131,1.028,1.0149,1.0069,0.9942,1.0108,1.0154,0.0,0.9676,0.912,0.8176,0.7643,0.684,0.6034,0.5635,0.4835,0.4034,0.3633,0.2962,0.2155,0.2155,0.2148,0.2275,0.2409,0.2385,0.2089,0.2059,0.2029,0.2001,0.1981,0.1977,0.1977,0.1977,0.1977,0.1977,0.1977,0.1977,0.1977,0.1977,0.1977,0.1853,0.1605,0.1358,0.1222,0.1183,0.106,0.1048,0.1014,0.0336,-0.0448,-0.1233,-0.1458,-0.157,-0.1683,-0.1683,-0.1683,-0.1683,-0.1683,-0.1683,-0.1683,-0.157,-0.1794,-0.2577,-0.3029,-0.3029,-0.2578,-0.2479,-0.2147,-0.1808,-0.1703,-0.1711,0.7932,0.8132,0.8046,0.7304,0.6876,0.6285,0.0,0.4123,0.3373,0.2987,0.2482,0.2188,0.246,0.2724,0.3072,0.3621,0.3994,0.4405,0.4991,0.0,0.0,0.0,0.0,0.0,0.0,0.0,0.0,0.0,0.0,0.0,0.894,0.9079,0.9296,0.9602,0.9747,0.9822,0.9822,0.9822,0.9897,1.0049,1.0049,1.0131,1.028,1.0015,0.9684,0.9574,0.9597,0.9377,0.0,0.8492,0.792,0.7381,0.6311,0.5776,0.5372,0.4568,0.4034,0.3633,0.2963,0.2425,0.2155,0.2155,0.2134,0.211,0.211,0.2089,0.2058,0.2027,0.1999,0.1977,0.1977,0.1977,0.1977,0.1977,0.1977,0.1977,0.1977,0.1977,0.1977,0.1977,0.1977,0.1729,0.074,-0.0123,-0.0732,-0.0827,-0.0823,-0.0814,-0.0901,-0.0673,-0.1009,-0.2016,-0.3029,-0.3594,-0.3594,-0.3594,-0.3594,-0.3594,-0.3594,-0.3594,-0.3594,-0.3594,-0.3594,-0.3594,-0.359,-0.359,-0.3594,-0.365,-0.368,-0.3802,-0.3741,-0.38,0.6311,0.6607,0.6647,0.6218,0.5728,0.5203,0.4229,0.3433,0.2822,0.2388,0.2031,0.1902,0.2095,0.2415,0.2753,0.3227,0.3785,0.0,0.0,0.0,0.0,0.0,0.0,0.0,0.0,0.0,0.0,0.0,0.0,0.0,0.894,0.9076,0.9245,0.9449,0.9598,0.9724,0.9819,0.9822,0.9846,0.9893,0.9893,0.992,0.9964,0.9594,0.9072,0.8421,0.8215,0.7757,0.7098,0.6728,0.6001,0.5217,0.457,0.3919,0.3135,0.2875,0.2745,0.2615,0.2354,0.2223,0.2093,0.2093,0.2086,0.2074,0.2053,0.204,0.2026,0.1998,0.1984,0.1977,0.1977,0.1977,0.1977,0.1977,0.1977,0.1977,0.1977,0.1977,0.1977,0.1977,0.1234,0.037,-0.037,-0.11,-0.1808,-0.2718,-0.2802,-0.276,-0.2702,-0.2693,-0.2806,-0.3142,-0.3478,-0.359,-0.359,-0.359,-0.359,-0.359,-0.359,-0.359,-0.359,-0.359,-0.359,-0.359,-0.3589,-0.3589,-0.359,-0.365,-0.37,-0.3744,-0.376,-0.3803,0.0,0.4766,0.4852,0.4587,0.4301,0.3935,0.3208,0.2671,0.2184,0.1801,0.1499,0.1399,0.1571,0.1862,0.2253,0.2783,0.3386,0.0,0.0,0.0,0.0,0.0,0.0,0.0,0.0,0.0,0.0,0.0,0.0,0.0,0.894,0.9025,0.914,0.9289,0.95,0.9652,0.9741,0.9795,0.9822,0.9822,0.97,0.9579,0.9579,0.8848,0.8236,0.75,0.6996,0.6415,0.0,0.5374,0.4764,0.3993,0.348,0.2837,0.2064,0.2064,0.2064,0.2064,0.2064,0.2064,0.2064,0.2064,0.2056,0.2041,0.2011,0.2003,0.1999,0.1981,0.1977,0.1977,0.1977,0.1977,0.1977,0.1977,0.1977,0.1853,0.1481,0.1234,0.0987,0.0864,0.0247,-0.0492,-0.1346,-0.2183,-0.2872,-0.3634,-0.3707,-0.3661,-0.36,-0.3591,-0.3591,-0.3591,-0.3589,-0.3587,-0.3587,-0.3587,-0.3587,-0.3587,-0.3587,-0.3598,-0.3621,-0.3621,-0.3632,-0.3655,-0.3655,-0.3655,-0.3655,-0.3718,-0.3778,-0.3838,-0.3838,-0.3858,0.0,0.2795,0.2909,0.2768,0.2742,0.2637,0.2261,0.1832,0.0,0.1221,0.092,0.0755,0.0969,0.1223,0.1617,0.2339,0.2933,0.0,0.0,0.0,0.0,0.0,0.0,0.0,0.0,0.0,0.0,0.0,0.0,0.0,0.894,0.894,0.8998,0.9133,0.9425,0.9588,0.9608,0.9741,0.9812,0.9822,0.9457,0.9214,0.9214,0.7872,0.7138,0.0,0.5745,0.5279,0.4786,0.4218,0.3856,0.347,0.2829,0.2315,0.2058,0.2058,0.2058,0.2058,0.2058,0.2058,0.2058,0.2058,0.2038,0.2011,0.1984,0.1977,0.1977,0.1977,0.1977,0.1977,0.1977,0.1977,0.1977,0.1977,0.1977,0.1729,0.0616,-0.0247,-0.0863,-0.1109,-0.1109,-0.1227,-0.2299,-0.3255,-0.3815,-0.3702,-0.3677,-0.3651,-0.3594,-0.3587,-0.3587,-0.3587,-0.3587,-0.3587,-0.3587,-0.3587,-0.3587,-0.3587,-0.3587,-0.3615,-0.3676,-0.3679,-0.3707,-0.3768,-0.377,-0.3771,-0.3775,-0.3833,-0.3891,-0.3951,-0.3951,-0.3951,0.1129,0.0,0.2286,0.2282,0.2244,0.2121,0.0,0.1499,0.1211,0.0,0.0,0.0687,0.0879,0.1164,0.148,0.1954,0.2639,0.3354,0.0,0.0,0.0,0.0,0.0,0.0,0.0,0.0,0.0,0.0,0.0,0.894,0.894,0.894,0.8954,0.8988,0.894,0.9142,0.9608,0.9642,0.9713,0.9822,0.9457,0.8967,0.8227,0.7378,0.6149,0.4553,0.4079,0.347,0.2731,0.2616,0.2495,0.2371,0.2247,0.2122,0.1997,0.1997,0.1997,0.1997,0.1997,0.1997,0.1997,0.1997,0.1992,0.1986,0.1979,0.1977,0.1977,0.1977,0.1977,0.1977,0.1977,0.1977,0.1977,0.1977,0.1975,0.148,-0.0247,-0.1233,-0.1973,-0.2961,-0.3208,-0.3204,-0.3563,-0.3731,-0.3781,-0.3752,-0.3669,-0.3604,-0.359,-0.3587,-0.3587,-0.3587,-0.3587,-0.3587,-0.3587,-0.3587,-0.3587,-0.3587,-0.3587,-0.3615,-0.3676,-0.3679,-0.3707,-0.3768,-0.377,-0.3792,-0.3838,-0.3853,-0.3891,-0.3951,-0.3951,-0.3951,0.0557,0.1044,0.149,0.1476,0.1412,0.1374,0.1232,0.0,0.0,0.0,0.0,0.0,0.0794,0.0,0.0,0.1579,0.2133,0.0,0.0,0.0,0.0,0.0,0.0,0.0,0.0,0.0,0.0,0.0,0.0,0.8832,0.8832,0.8899,0.894,0.894,0.8677,0.8824,0.9165,0.9183,0.9165,0.9239,0.8696,0.8113,0.7373,0.6274,0.5047,0.3693,0.3203,0.259,0.1977,0.1977,0.1977,0.1977,0.1977,0.1977,0.1977,0.1977,0.1977,0.1977,0.1977,0.1977,0.1977,0.1977,0.1977,0.1977,0.1977,0.1729,0.1357,0.1357,0.0987,0.074,0.0617,0.0617,0.0617,0.0617,0.074,0.037,-0.1356,-0.2343,-0.3085,-0.3826,-0.3951,-0.3942,-0.3914,-0.3854,-0.3792,-0.3736,-0.3672,-0.3619,-0.3591,-0.3587,-0.3587,-0.3587,-0.3613,-0.363,-0.363,-0.3654,-0.3647,-0.3591,-0.3615,-0.3657,-0.3718,-0.3747,-0.379,-0.3852,-0.3852,-0.3869,-0.3902,-0.3902,-0.3918,-0.3951,-0.3951,-0.3951,0.0459,0.0757,0.1034,0.0809,0.0768,0.0761,0.0768,0.0,0.0,0.0,0.0,0.0,0.0,0.0,0.0,0.0,0.0,0.0,0.0,0.0,0.0,0.0,0.0,0.0,0.0,0.0,0.0,0.0,0.0,0.8578,0.8602,0.8722,0.8803,0.8716,0.8377,0.8208,0.8326,0.8344,0.8358,0.826,0.7425,0.6867,0.6377,0.4921,0.3821,0.3204,0.0,0.0,0.1977,0.1977,0.1977,0.1977,0.1977,0.1977,0.1977,0.1977,0.1977,0.1977,0.1977,0.1977,0.1977,0.1977,0.1977,0.1977,0.1853,0.1111,0.0247,0.0123,-0.037,-0.0986,-0.1356,-0.148,-0.148,-0.148,-0.1356,-0.148,-0.2467,-0.3332,-0.3951,-0.3951,-0.3951,-0.3935,-0.3883,-0.3867,-0.3826,-0.3722,-0.3698,-0.3673,-0.3621,-0.3616,-0.3616,-0.3616,-0.3661,-0.3692,-0.3692,-0.374,-0.3725,-0.3621,-0.3664,-0.3719,-0.3781,-0.3842,-0.3898,-0.395,-0.3951,-0.3951,-0.3951,-0.3951,-0.3951,-0.3951,-0.3951,-0.3951,0.0612,0.1471,0.2113,0.1124,0.1014,0.1111,0.0,0.0,0.0,0.0,0.0,0.0,0.0,0.0,0.0,0.0,0.0,0.0,0.0,0.0,0.0,0.0,0.0,0.0,0.0,0.0,0.0,0.0,0.0,0.7943,0.8053,0.8078,0.8035,0.8152,0.7379,0.6831,0.6621,0.6974,0.6857,0.6244,0.5866,0.5189,0.435,0.3796,0.3082,0.2223,0.0,0.2099,0.1977,0.1977,0.1977,0.1977,0.1977,0.1977,0.1977,0.1977,0.1977,0.1977,0.1977,0.1977,0.1977,0.1977,0.1977,0.1853,0.0987,-0.0,-0.0986,-0.1849,-0.1973,-0.2097,-0.3208,-0.3455,-0.3455,-0.3455,-0.3455,-0.3455,-0.3703,-0.3826,-0.3951,-0.3951,-0.3951,-0.3948,-0.3937,-0.3894,-0.3854,-0.3835,-0.3788,-0.3752,-0.3743,-0.3741,-0.3741,-0.3741,-0.3749,-0.3755,-0.3755,-0.3763,-0.3762,-0.3743,-0.3751,-0.3782,-0.3843,-0.3905,-0.3942,-0.3951,-0.3951,-0.3951,-0.3951,-0.3951,-0.3951,-0.3951,-0.3951,-0.3951,0.0842,0.1569,0.2105,0.1377,0.1337,0.1451,0.0,0.0,0.0,0.0,0.0,0.0,0.0,0.0,0.0,0.0,0.0,0.0,0.0,0.0,0.0,0.0,0.0,0.0,0.0,0.0,0.0,0.0,0.0,0.6302,0.635,0.6412,0.6498,0.6501,0.6067,0.5431,0.4808,0.4847,0.5021,0.5222,0.4833,0.4278,0.357,0.3142,0.2558,0.1953,0.0,0.1977,0.1977,0.1977,0.1977,0.1977,0.1977,0.1977,0.1977,0.1977,0.1977,0.1977,0.1977,0.1977,0.1977,0.1977,0.1605,0.0987,-0.0,-0.0986,-0.1973,-0.2961,-0.3085,-0.3208,-0.3703,-0.3951,-0.3951,-0.3951,-0.3951,-0.3951,-0.3951,-0.3951,-0.3951,-0.3951,-0.3951,-0.3951,-0.3951,-0.3928,-0.3898,-0.3865,-0.3837,-0.3807,-0.3774,-0.377,-0.377,-0.377,-0.3798,-0.3818,-0.3818,-0.3847,-0.3853,-0.382,-0.3818,-0.3845,-0.3907,-0.3936,-0.3951,-0.3951,-0.3951,-0.3951,-0.3951,-0.3951,-0.3951,-0.3951,-0.3951,-0.3951,0.0947,0.1491,0.1885,0.1615,0.0,0.1754,0.1821,0.0,0.0,0.0,0.0,0.0,0.0,0.0,0.0,0.0,0.0,0.0,0.0,0.0,0.0,0.0,0.0,0.0,0.0,0.0,0.0,0.0,0.0,0.4838,0.4858,0.503,0.5012,0.5124,0.4798,0.4179,0.3469,0.3137,0.3271,0.3997,0.3599,0.3277,0.3046,0.2499,0.2159,0.1922,0.1945,0.1955,0.1956,0.1963,0.1966,0.1967,0.1974,0.1977,0.1977,0.1977,0.1977,0.1977,0.1977,0.1977,0.1977,0.1729,0.0987,-0.0,-0.0986,-0.2097,-0.2961,-0.3703,-0.3951,-0.3951,-0.3951,-0.3951,-0.3951,-0.3951,-0.3951,-0.3951,-0.3951,-0.3951,-0.3951,-0.3951,-0.3951,-0.3951,-0.3951,-0.3951,-0.3935,-0.3888,-0.3882,-0.3864,-0.3818,-0.3812,-0.3812,-0.3812,-0.3854,-0.3882,-0.3882,-0.3924,-0.3931,-0.3884,-0.3882,-0.3902,-0.3948,-0.3951,-0.3951,-0.3951,-0.3951,-0.3951,-0.3951,-0.3951,-0.3951,-0.3951,-0.3951,-0.3951,0.0768,0.1336,0.187,0.1647,0.0,0.0,0.1734,0.0,0.0,0.0,0.0,0.0,0.0,0.0,0.0,0.0,0.0,0.0,0.0,0.0,0.0,0.0,0.0,0.0,0.0,0.0,0.0,0.0,0.4038,0.4172,0.4238,0.4247,0.432,0.447,0.3931,0.3415,0.3136,0.2579,0.2133,0.2023,0.1943,0.1958,0.196,0.1875,0.1889,0.1889,0.1892,0.1892,0.1894,0.1923,0.1934,0.1937,0.1965,0.1977,0.1977,0.1977,0.1977,0.1977,0.1977,0.1977,0.1853,0.0863,-0.0123,-0.1109,-0.2097,-0.3085,-0.3826,-0.3828,-0.3951,-0.3951,-0.3951,-0.3951,-0.3951,-0.3951,-0.3951,-0.3951,-0.3951,-0.3951,-0.3951,-0.3951,-0.3951,-0.3951,-0.3951,-0.3951,-0.395,-0.3946,-0.3944,-0.3943,-0.3937,-0.3937,-0.3937,-0.3937,-0.3942,-0.3944,-0.3944,-0.3948,-0.3948,-0.3944,-0.3944,-0.3946,-0.3951,-0.3951,-0.3951,-0.3951,-0.3951,-0.3951,-0.3951,-0.3951,-0.3951,-0.3951,-0.3951,-0.3951,0.1238,0.1566,0.1868,0.1969,0.0,0.0,0.0,0.0,0.0,0.0,0.0,0.0,0.0,0.0,0.0,0.0,0.0,0.0,0.0,0.0,0.0,0.0,0.0,0.0,0.0,0.0,0.0,0.0,0.2523,0.2531,0.2548,0.2549,0.2579,0.275,0.246,0.2386,0.2318,0.212,0.1907,0.1795,0.1806,0.1812,0.1813,0.1843,0.1857,0.1858,0.1877,0.1886,0.1887,0.1898,0.1903,0.1906,0.1937,0.196,0.1977,0.1977,0.1977,0.1977,0.1977,0.1605,0.0863,-0.0123,-0.1109,-0.2097,-0.3085,-0.358,-0.3951,-0.3951,-0.3951,-0.3951,-0.3951,-0.3951,-0.3951,-0.3951,-0.3951,-0.3951,-0.3951,-0.3951,-0.3951,-0.3951,-0.3951,-0.3951,-0.3951,-0.3951,-0.3951,-0.3951,-0.3951,-0.3951,-0.3951,-0.3951,-0.3951,-0.3951,-0.3951,-0.3951,-0.3951,-0.3951,-0.3951,-0.3951,-0.3951,-0.3951,-0.3951,-0.3951,-0.3951,-0.3951,-0.3951,-0.3951,-0.3951,-0.3951,-0.3951,-0.3951,-0.3951,-0.397,0.1539,0.1741,0.1945,0.0,0.0,0.0,0.0,0.0,0.0,0.0,0.0,0.0,0.0,0.0,0.0,0.0,0.0,0.0,0.0,0.0,0.0,0.0,0.0,0.0,0.0,0.0,0.0,0.1617,0.1617,0.1617,0.1617,0.1617,0.163,0.1661,0.1681,0.171,0.1749,0.177,0.1785,0.1795,0.1795,0.1795,0.1795,0.1817,0.1826,0.1827,0.1848,0.1857,0.1858,0.1868,0.1877,0.1888,0.1909,0.1935,0.1962,0.1962,0.1968,0.1977,0.1605,0.0863,-0.0123,-0.1109,-0.2097,-0.3085,-0.3703,-0.3951,-0.3947,-0.3928,-0.3922,-0.3918,-0.3898,-0.3922,-0.3951,-0.3951,-0.3951,-0.3951,-0.3951,-0.3951,-0.3951,-0.3951,-0.3951,-0.3951,-0.3951,-0.3951,-0.3951,-0.3951,-0.3951,-0.3951,-0.3951,-0.3951,-0.3951,-0.3951,-0.3951,-0.3951,-0.3951,-0.3951,-0.3951,-0.3951,-0.3951,-0.3951,-0.3951,-0.3951,-0.3951,-0.3951,-0.3951,-0.3951,-0.3951,-0.3951,-0.3951,-0.3951,-0.3951,-0.3981,0.1607,0.1782,0.0,0.0,0.0,0.0,0.0,0.0,0.0,0.0,0.0,0.0,0.0,0.0,0.0,0.0,0.0,0.0,0.0,0.0,0.0,0.0,0.0,0.0,0.0,0.0,0.1617,0.1617,0.1617,0.1617,0.1617,0.1617,0.163,0.1661,0.1662,0.169,0.1748,0.1749,0.1764,0.1794,0.1794,0.1794,0.1795,0.1795,0.1795,0.1795,0.1795,0.1795,0.1797,0.1827,0.1857,0.1885,0.1885,0.1904,0.1931,0.1931,0.1949,0.1852,0.0863,-0.0123,-0.1232,-0.2219,-0.3083,-0.395,-0.395,-0.395,-0.3936,-0.3876,-0.386,-0.3846,-0.3785,-0.3858,-0.395,-0.395,-0.395,-0.395,-0.395,-0.395,-0.3951,-0.3951,-0.3951,-0.3951,-0.3951,-0.3951,-0.3951,-0.3951,-0.3951,-0.3951,-0.3951,-0.3951,-0.3951,-0.3951,-0.3951,-0.3951,-0.3951,-0.3951,-0.3951,-0.3951,-0.3951,-0.3951,-0.3951,-0.3951,-0.3951,-0.3951,-0.3951,-0.3951,-0.3951,-0.3951,-0.3951,-0.3951,-0.3951,-0.3982,0.2024,0.0,0.0,0.0,0.0,0.0,0.0,0.0,0.0,0.0,0.0,0.0,0.0,0.0,0.0,0.0,0.0,0.0,0.0,0.0,0.0,0.0,0.0,0.0,0.0,0.1605,0.1617,0.1617,0.1617,0.1617,0.1617,0.1617,0.1621,0.163,0.1651,0.1671,0.1688,0.1707,0.1722,0.1731,0.1731,0.1753,0.1795,0.1795,0.1795,0.1795,0.1795,0.1795,0.1795,0.1805,0.1826,0.1854,0.1854,0.1872,0.1899,0.1899,0.1547,0.0837,-0.0119,-0.1074,-0.2029,-0.2984,-0.3583,-0.3823,-0.3823,-0.3823,-0.3819,-0.3801,-0.3797,-0.3792,-0.3774,-0.3796,-0.3823,-0.3823,-0.3856,-0.3887,-0.3887,-0.3921,-0.3951,-0.3951,-0.3951,-0.3951,-0.3951,-0.3951,-0.3951,-0.3951,-0.3951,-0.3951,-0.3951,-0.3951,-0.3951,-0.3951,-0.3951,-0.3951,-0.3951,-0.3951,-0.3951,-0.3951,-0.3951,-0.3951,-0.3951,-0.3951,-0.3951,-0.3951,-0.3951,-0.3951,-0.3951,-0.3951,-0.3971,-0.401,-0.401,-0.4064,0.2305,0.0,0.0,0.0,0.0,0.0,0.0,0.0,0.0,0.0,0.0,0.0,0.0,0.0,0.0,0.0,0.0,0.0,0.0,0.0,0.0,0.0,0.0,0.0,0.1569,0.1588,0.1604,0.1615,0.1617,0.1617,0.1617,0.1617,0.1617,0.1617,0.1635,0.165,0.1662,0.1679,0.1693,0.1704,0.1704,0.1723,0.1759,0.1772,0.1777,0.1778,0.179,0.1795,0.1795,0.1795,0.1806,0.1822,0.1822,0.1841,0.1868,0.1517,0.082,-0.0118,-0.106,-0.2001,-0.2943,-0.3533,-0.3768,-0.377,-0.377,-0.377,-0.3764,-0.374,-0.3733,-0.3728,-0.3703,-0.3698,-0.3709,-0.3758,-0.3816,-0.386,-0.386,-0.3907,-0.3951,-0.3951,-0.3951,-0.3951,-0.3951,-0.3951,-0.3951,-0.3951,-0.3951,-0.3951,-0.3951,-0.3951,-0.3951,-0.3951,-0.3951,-0.3951,-0.3951,-0.3951,-0.3951,-0.3951,-0.3951,-0.3951,-0.3951,-0.3951,-0.3951,-0.3951,-0.3951,-0.3962,-0.3984,-0.3984,-0.4014,-0.4071,-0.4071,-0.4123,0.0,0.0,0.0,0.0,0.0,0.0,0.0,0.0,0.0,0.0,0.0,0.0,0.0,0.0,0.0,0.0,0.0,0.0,0.0,0.0,0.0,0.0,0.0,0.0,0.1558,0.1566,0.1579,0.1607,0.1611,0.1613,0.1613,0.1615,0.1617,0.1617,0.1617,0.163,0.1658,0.1658,0.1671,0.1696,0.1696,0.1696,0.1697,0.1731,0.1747,0.1751,0.1779,0.1793,0.1795,0.1795,0.1795,0.1795,0.1795,0.1812,0.1722,0.0803,-0.0116,-0.1056,-0.2109,-0.293,-0.3752,-0.3752,-0.3752,-0.3752,-0.3752,-0.3752,-0.3741,-0.3685,-0.367,-0.3657,-0.3602,-0.3587,-0.3616,-0.3726,-0.3804,-0.3852,-0.3852,-0.3903,-0.3951,-0.3951,-0.3951,-0.3951,-0.3951,-0.3951,-0.3951,-0.3951,-0.3951,-0.3951,-0.3951,-0.3951,-0.3951,-0.3951,-0.3951,-0.3951,-0.3951,-0.3951,-0.3951,-0.3951,-0.3951,-0.3951,-0.3951,-0.3951,-0.3952,-0.3958,-0.3958,-0.3986,-0.4042,-0.4042,-0.4075,-0.4134,-0.4134,-0.4166,0.0,0.0,0.0,0.0,0.0,0.0,0.0,0.0,0.0,0.0,0.0,0.0,0.0,0.0,0.0,0.0,0.0,0.0,0.0,0.0,0.0,0.0,0.0,0.1486,0.1499,0.1522,0.1538,0.1545,0.1568,0.1581,0.1581,0.1604,0.1617,0.1617,0.1617,0.162,0.1626,0.1626,0.163,0.1636,0.1636,0.1636,0.1637,0.169,0.1727,0.175,0.1757,0.1773,0.1795,0.1795,0.1795,0.1795,0.1795,0.1799,0.1692,0.0225,-0.0904,-0.1701,-0.295,-0.3402,-0.3627,-0.3627,-0.3627,-0.3627,-0.3627,-0.3627,-0.3624,-0.361,-0.3606,-0.3604,-0.3591,-0.3587,-0.3594,-0.362,-0.371,-0.3789,-0.3789,-0.3873,-0.3951,-0.3951,-0.3951,-0.3951,-0.3951,-0.3951,-0.3951,-0.3951,-0.3951,-0.3951,-0.3951,-0.3951,-0.3951,-0.3951,-0.3951,-0.3951,-0.3951,-0.3951,-0.3951,-0.3951,-0.3951,-0.3951,-0.3951,-0.3951,-0.3971,-0.4015,-0.4016,-0.4046,-0.4106,-0.4106,-0.4138,-0.4196,-0.4196,-0.423,0.0,0.0,0.0,0.0,0.0,0.0,0.0,0.0,0.0,0.0,0.0,0.0,0.0,0.0,0.0,0.0,0.0,0.0,0.0,0.0,0.0,0.1436,0.1449,0.1465,0.1479,0.1495,0.151,0.1525,0.154,0.155,0.155,0.1579,0.1595,0.1595,0.1609,0.1617,0.1617,0.1617,0.1617,0.1617,0.1617,0.1617,0.1618,0.1664,0.17,0.1728,0.1728,0.1737,0.1752,0.1767,0.1774,0.1775,0.1789,0.1795,0.157,-0.0112,-0.157,-0.2806,-0.3366,-0.359,-0.3587,-0.3587,-0.3587,-0.3587,-0.3587,-0.3587,-0.3587,-0.3587,-0.3587,-0.3587,-0.3587,-0.3587,-0.3587,-0.3587,-0.368,-0.377,-0.377,-0.3865,-0.3951,-0.3951,-0.3951,-0.3951,-0.3951,-0.3951,-0.3951,-0.3951,-0.3951,-0.3951,-0.3951,-0.3951,-0.3951,-0.3951,-0.3951,-0.3951,-0.3951,-0.3951,-0.3951,-0.3951,-0.3951,-0.3962,-0.3989,-0.3991,-0.4004,-0.4034,-0.4034,-0.4079,-0.4169,-0.4169,-0.42,-0.426,-0.426,-0.4278,0.0,0.0,0.0,0.0,0.0,0.0,0.0,0.0,0.0,0.0,0.0,0.0,0.0,0.0,0.0,0.1435,0.0,0.0,0.0,0.0,0.1436,0.1436,0.1436,0.1445,0.147,0.1473,0.1483,0.1508,0.1515,0.1519,0.1519,0.1547,0.1564,0.1564,0.1593,0.1609,0.1609,0.1614,0.1617,0.1617,0.1617,0.1617,0.1618,0.1643,0.167,0.1697,0.1697,0.1699,0.1706,0.1731,0.1745,0.1752,0.1777,0.1678,0.1346,-0.0224,-0.202,-0.3594,-0.3589,-0.3587,-0.3587,-0.3587,-0.3587,-0.3587,-0.3587,-0.3587,-0.3587,-0.3587,-0.3587,-0.3587,-0.3587,-0.3587,-0.3587,-0.3587,-0.3673,-0.3753,-0.3753,-0.3849,-0.3935,-0.3935,-0.3944,-0.3951,-0.3951,-0.3951,-0.3951,-0.3951,-0.3951,-0.3951,-0.3951,-0.3951,-0.3951,-0.3951,-0.3951,-0.3951,-0.3951,-0.3951,-0.3955,-0.3965,-0.3965,-0.3991,-0.4048,-0.405,-0.4056,-0.4194,-0.4194,-0.425,-0.4364,-0.4364,-0.439,-0.4441,-0.4441,-0.4441,0.0,0.0,0.0,0.0,0.0,0.0,0.0,0.0,0.0,0.0,0.0,0.0,0.0,0.2355,0.202,0.1521,0.1436,0.1436,0.1436,0.1436,0.1436,0.1436,0.1436,0.1437,0.1441,0.1441,0.1443,0.1447,0.1472,0.1487,0.1487,0.1515,0.1532,0.1532,0.1562,0.1577,0.1577,0.1604,0.1617,0.1617,0.1617,0.1617,0.1617,0.1621,0.1639,0.1668,0.1668,0.1682,0.1705,0.1709,0.1726,0.175,0.1754,0.1107,0.0224,-0.0449,-0.1907,-0.3594,-0.3589,-0.3587,-0.3587,-0.3587,-0.3587,-0.3587,-0.3587,-0.3587,-0.3587,-0.3587,-0.3587,-0.3587,-0.3587,-0.3587,-0.3587,-0.3587,-0.364,-0.3691,-0.3691,-0.3786,-0.3872,-0.3872,-0.3914,-0.3951,-0.3951,-0.3951,-0.3951,-0.3951,-0.3951,-0.3951,-0.3951,-0.3951,-0.3951,-0.3951,-0.3951,-0.3951,-0.3951,-0.3951,-0.3971,-0.4021,-0.4023,-0.405,-0.411,-0.4113,-0.4268,-0.4717,-0.4718,-0.4887,-0.5232,-0.5232,-0.5237,-0.5247,-0.5247,-0.5247,0.1747,0.2865,0.0,0.0,0.0,0.0,0.0,0.0,0.0,0.0,0.0,0.0,0.33,0.2729,0.2227,0.147,0.1386,0.1392,0.1408,0.141,0.1416,0.1433,0.1436,0.1436,0.1436,0.1436,0.1436,0.1436,0.1448,0.1455,0.1455,0.1484,0.15,0.15,0.153,0.1554,0.1571,0.1585,0.16,0.1617,0.1617,0.1617,0.1617,0.1617,0.1624,0.1637,0.1637,0.1643,0.1656,0.1674,0.1688,0.1702,0.1181,0.0435,-0.0553,-0.1216,-0.2337,-0.3594,-0.3589,-0.3587,-0.3587,-0.3587,-0.3587,-0.3587,-0.3587,-0.3587,-0.3587,-0.3587,-0.3587,-0.3587,-0.3587,-0.3587,-0.3587,-0.3587,-0.3608,-0.3636,-0.367,-0.3774,-0.3869,-0.3903,-0.3932,-0.3951,-0.3951,-0.3951,-0.3951,-0.3951,-0.3951,-0.3951,-0.3951,-0.3951,-0.3951,-0.3951,-0.3951,-0.3951,-0.3951,-0.398,-0.4008,-0.4286,-0.4322,-0.4498,-0.4824,-0.4827,-0.4991,-0.5461,-0.5157,-0.5306,-0.5646,-0.5915,-0.5915,-0.5915,-0.5915,-0.5915,0.2299,0.2956,0.3491,0.0,0.0,0.0,0.0,0.0,0.0,0.0,0.0,0.4951,0.3605,0.2988,0.2423,0.143,0.1263,0.1355,0.1376,0.138,0.1388,0.141,0.1419,0.1424,0.1424,0.1431,0.1436,0.1436,0.1436,0.1436,0.1436,0.1457,0.1469,0.1469,0.1499,0.1525,0.1548,0.1556,0.1575,0.1605,0.1605,0.1609,0.1617,0.1617,0.1617,0.1617,0.1617,0.1617,0.1619,0.1641,0.1552,0.1247,0.0526,-0.0428,-0.1304,-0.2184,-0.2978,-0.3571,-0.3583,-0.3587,-0.3587,-0.3587,-0.3587,-0.3587,-0.3587,-0.3587,-0.3587,-0.3587,-0.3587,-0.3587,-0.3587,-0.3587,-0.3587,-0.3587,-0.36,-0.3627,-0.3688,-0.3785,-0.3879,-0.3939,-0.3951,-0.3951,-0.3951,-0.3951,-0.3951,-0.3951,-0.3951,-0.3951,-0.3951,-0.3951,-0.3951,-0.3951,-0.3951,-0.3956,-0.3971,-0.4011,-0.4175,-0.4591,-0.4769,-0.5089,-0.5424,-0.556,-0.5719,-0.6178,-0.5984,-0.5984,-0.618,-0.6451,-0.6721,-0.6721,-0.6721,-0.6721,0.1585,0.2164,0.0,0.0,0.0,0.0,0.0,0.0,0.0,0.0,0.0,0.4344,0.3521,0.3284,0.2786,0.1511,0.1263,0.1264,0.1266,0.1266,0.1267,0.1268,0.1376,0.1393,0.1393,0.1418,0.1436,0.1436,0.1436,0.1436,0.1436,0.1437,0.1438,0.1438,0.1467,0.1484,0.1485,0.1514,0.1544,0.1574,0.1574,0.1589,0.1617,0.1617,0.1617,0.1617,0.1617,0.1617,0.1617,0.1619,0.1124,0.0415,-0.0416,-0.1261,-0.2138,-0.3046,-0.3503,-0.351,-0.3567,-0.3587,-0.3587,-0.3587,-0.3587,-0.3587,-0.3587,-0.3587,-0.3587,-0.3587,-0.3587,-0.3587,-0.3587,-0.3587,-0.3587,-0.3587,-0.3631,-0.3691,-0.3751,-0.3815,-0.3879,-0.3939,-0.3951,-0.3951,-0.3951,-0.3951,-0.3951,-0.3951,-0.3951,-0.3951,-0.3951,-0.3951,-0.3951,-0.3951,-0.3951,-0.3973,-0.4026,-0.4033,-0.4212,-0.4727,-0.513,-0.5426,-0.5902,-0.6176,-0.6581,-0.6985,-0.7243,-0.7243,-0.6985,-0.7257,-0.7393,-0.7393,-0.7393,-0.7393,0.0814,0.1465,0.0,0.0,0.0,0.0,0.0,0.0,0.0,0.0,0.4622,0.4011,0.2981,0.2812,0.247,0.1448,0.129,0.1296,0.1316,0.1319,0.1326,0.1261,0.1356,0.1363,0.1363,0.1389,0.1406,0.1406,0.1424,0.1436,0.1436,0.1436,0.1436,0.1436,0.1446,0.1461,0.148,0.151,0.1532,0.1543,0.1562,0.1577,0.1588,0.1608,0.1617,0.1617,0.1617,0.1617,0.1516,0.101,0.0405,-0.0408,-0.1223,-0.2062,-0.2936,-0.3273,-0.3433,-0.3499,-0.3522,-0.3555,-0.3587,-0.3587,-0.3587,-0.3587,-0.3587,-0.3587,-0.3587,-0.3587,-0.3587,-0.3587,-0.3587,-0.3587,-0.3597,-0.3636,-0.3722,-0.3801,-0.3823,-0.3875,-0.3925,-0.3947,-0.3951,-0.3951,-0.3951,-0.3951,-0.3951,-0.3951,-0.3951,-0.3951,-0.3951,-0.3951,-0.395,-0.4195,-0.4357,-0.4389,-0.466,-0.4745,-0.4951,-0.54,-0.5844,-0.6285,-0.6581,-0.6989,-0.7123,-0.7257,-0.7655,-0.7786,-0.7655,-0.8056,-0.8189,-0.8189,-0.8189,-0.8228,0.0276,0.0,0.0,0.0,0.0,0.0,0.0,0.0,0.0,0.0,0.3944,0.336,0.253,0.2287,0.1944,0.1412,0.1335,0.1264,0.1284,0.1287,0.1295,0.1315,0.1326,0.1333,0.1333,0.1358,0.1376,0.1376,0.1403,0.0,0.142,0.1429,0.1436,0.1436,0.1436,0.1445,0.1466,0.1485,0.15,0.1511,0.1532,0.1551,0.1572,0.1592,0.1607,0.1617,0.1617,0.1617,0.1516,0.0606,-0.0303,-0.111,-0.1917,-0.2643,-0.3293,-0.3313,-0.3384,-0.3471,-0.3491,-0.3537,-0.3587,-0.3587,-0.3587,-0.3587,-0.3587,-0.3587,-0.3587,-0.3587,-0.3587,-0.3587,-0.3587,-0.3602,-0.3634,-0.3695,-0.3786,-0.3986,-0.4005,-0.3922,-0.3951,-0.3951,-0.3951,-0.3951,-0.3951,-0.3951,-0.3951,-0.3951,-0.3951,-0.3951,-0.3951,-0.3951,-0.4081,-0.447,-0.4638,-0.4936,-0.5365,-0.5598,-0.5805,-0.6229,-0.6552,-0.6985,-0.7388,-0.7692,-0.7983,-0.7983,-0.8288,-0.8306,-0.8306,-0.8494,-0.8609,-0.8649,-0.8649,-0.8736,0.0,0.0,0.0,0.0,0.0,0.0,0.0,0.0,0.0,0.3335,0.2882,0.232,0.2087,0.1784,0.1449,0.1328,0.1335,0.1335,0.1335,0.1335,0.1335,0.1335,0.1284,0.1301,0.1301,0.1328,0.1262,0.1262,0.1373,0.1388,0.139,0.1418,0.1436,0.1436,0.1436,0.1436,0.1436,0.1436,0.145,0.1479,0.148,0.1512,0.1568,0.157,0.1587,0.1615,0.1515,0.1515,0.1516,0.0404,-0.0606,-0.1613,-0.2422,-0.2927,-0.3237,-0.3297,-0.3357,-0.3417,-0.3473,-0.3531,-0.3585,-0.3585,-0.3586,-0.3587,-0.3587,-0.3587,-0.3587,-0.3587,-0.3587,-0.3587,-0.3587,-0.3634,-0.3696,-0.3755,-0.3818,-0.3998,-0.4301,-0.4195,-0.395,-0.3951,-0.3951,-0.3951,-0.3951,-0.3951,-0.3951,-0.3951,-0.3951,-0.3951,-0.3952,-0.3952,-0.41,-0.4537,-0.4921,-0.536,-0.5773,-0.6185,-0.6621,-0.6978,-0.7383,-0.7653,-0.8064,-0.8574,-0.8772,-0.8777,-0.8891,-0.8951,-0.8951,-0.8715,-0.866,-0.8777,-0.878,-0.8908,-0.0,0.0,0.0,0.0,0.0,0.0,0.0,0.0,0.0,0.2799,0.2417,0.1903,0.1478,0.1303,0.1256,0.1264,0.1305,0.1335,0.1335,0.1335,0.1335,0.1335,0.1264,0.127,0.127,0.1297,0.1315,0.0,0.1343,0.1369,0.1388,0.1418,0.1436,0.1436,0.1436,0.1436,0.1436,0.1436,0.144,0.1448,0.147,0.1489,0.1506,0.1146,0.0972,0.0792,0.0594,0.0399,0.0505,0.0707,0.0101,-0.1111,-0.1917,-0.2623,-0.3233,-0.3249,-0.3294,-0.3349,-0.3364,-0.3436,-0.3522,-0.3522,-0.3552,-0.3587,-0.3587,-0.3587,-0.3587,-0.3587,-0.3587,-0.3587,-0.3587,-0.3665,-0.3748,-0.3764,-0.3849,-0.4052,-0.4312,-0.4561,-0.4684,-0.4564,-0.4566,-0.4566,-0.4566,-0.4566,-0.4566,-0.4566,-0.4566,-0.4706,-0.4755,-0.4761,-0.4915,-0.5374,-0.5818,-0.6133,-0.6577,-0.6909,-0.7227,-0.739,-0.7655,-0.7957,-0.8176,-0.8617,-0.8812,-0.8899,-0.8935,-0.8951,-0.8951,-0.8883,-0.8867,-0.8905,-0.8992,-0.9071,-0.0,0.0,0.0,0.0,0.0,0.0,0.0326,0.09,0.0,0.0,0.1894,0.1522,0.1124,0.1091,0.1111,0.1111,0.1161,0.1209,0.1235,0.1249,0.1335,0.1335,0.1335,0.1335,0.1335,0.1273,0.1284,0.1284,0.1312,0.1347,0.1388,0.1408,0.1423,0.1435,0.1436,0.1436,0.1436,0.1436,0.1436,0.1436,0.1453,0.1285,0.1018,0.0281,-0.0095,-0.0194,-0.0581,-0.0881,-0.0897,-0.0797,-0.1102,-0.1615,-0.2119,-0.2725,-0.3332,-0.3533,-0.3574,-0.3631,-0.3631,-0.3716,-0.3826,-0.3826,-0.3869,-0.3921,-0.3921,-0.3921,-0.3921,-0.3921,-0.3921,-0.3921,-0.3921,-0.4021,-0.4121,-0.4121,-0.4222,-0.4442,-0.4684,-0.5053,-0.5298,-0.5177,-0.5177,-0.5298,-0.5298,-0.5298,-0.5298,-0.5298,-0.5298,-0.5328,-0.5532,-0.5543,-0.5714,-0.6096,-0.6547,-0.699,-0.7431,-0.7754,-0.7925,-0.7925,-0.8189,-0.8375,-0.8494,-0.8684,-0.8902,-0.9027,-0.9073,-0.9098,-0.9098,-0.9,-0.8978,-0.903,-0.915,-0.9204,-0.0,-0.0,0.0,0.0,-0.0,0.0,-0.0,0.0189,0.054,0.0,0.128,0.1195,0.1028,0.1,0.1018,0.1018,0.1068,0.1129,0.1193,0.1228,0.1325,0.1325,0.125,0.1252,0.1252,0.1333,0.1335,0.1335,0.1286,0.1325,0.1378,0.1385,0.1314,0.1251,0.1251,0.1253,0.1256,0.1256,0.1256,0.1256,0.1256,0.0906,0.0276,-0.0921,-0.1396,-0.1328,-0.1894,-0.2202,-0.2438,-0.3229,-0.3172,-0.2623,-0.2825,-0.3229,-0.3836,-0.4034,-0.4177,-0.4133,-0.4133,-0.4234,-0.4361,-0.4361,-0.4524,-0.459,-0.459,-0.459,-0.459,-0.459,-0.459,-0.459,-0.459,-0.4707,-0.4824,-0.4824,-0.4943,-0.5054,-0.5421,-0.5792,-0.5916,-0.5667,-0.5788,-0.6031,-0.6031,-0.6031,-0.6031,-0.6031,-0.6031,-0.6068,-0.6173,-0.6185,-0.6383,-0.6963,-0.7252,-0.7685,-0.8048,-0.8456,-0.8587,-0.8587,-0.8587,-0.8647,-0.8785,-0.8894,-0.9014,-0.915,-0.9253,-0.9304,-0.9304,-0.9092,-0.9046,-0.9155,-0.9258,-0.9304,-0.0,-0.0,-0.0,-0.0,0.0,0.0,-0.0,0.0046,0.0097,0.0,0.0633,0.0981,0.1022,0.0978,0.0982,0.0982,0.1036,0.1044,0.1127,0.1165,0.1184,0.1184,0.1206,0.1221,0.1221,0.1243,0.1335,0.1335,0.1286,0.1307,0.1319,0.1007,0.0685,0.0263,0.0262,0.0264,0.0269,0.0269,0.0269,0.0269,0.0269,-0.009,-0.0722,-0.1442,-0.2279,-0.3348,-0.325,-0.3287,-0.3448,-0.3699,-0.3169,-0.2316,-0.312,-0.413,-0.5041,-0.4736,-0.4645,-0.4659,-0.4659,-0.4775,-0.4921,-0.4921,-0.5025,-0.526,-0.526,-0.526,-0.526,-0.526,-0.526,-0.526,-0.526,-0.5277,-0.5409,-0.5409,-0.554,-0.5788,-0.6158,-0.6523,-0.6768,-0.7016,-0.6896,-0.6653,-0.6653,-0.6653,-0.6653,-0.6653,-0.6653,-0.6717,-0.6898,-0.6921,-0.7128,-0.7339,-0.7759,-0.8033,-0.8056,-0.8456,-0.8587,-0.8587,-0.8587,-0.8687,-0.8908,-0.894,-0.9052,-0.9266,-0.9294,-0.9304,-0.9304,-0.9258,-0.9247,-0.9272,-0.9294,-0.9304,-0.055,-0.0393,-0.0191,-0.0191,0.0,0.0,0.0,-0.018,-0.0187,-0.0097,0.015,0.0409,0.0529,0.0533,0.0533,0.0533,0.0565,0.0539,0.0627,0.0951,0.1149,0.1165,0.118,0.1195,0.1211,0.1226,0.1241,0.1335,0.1271,0.1206,0.0895,-0.0082,-0.0668,-0.0769,-0.1281,-0.1639,-0.1764,-0.1764,-0.1774,-0.1792,-0.1792,-0.206,-0.2688,-0.3405,-0.3965,-0.4276,-0.4548,-0.4691,-0.4782,-0.483,-0.4643,-0.4171,-0.421,-0.4632,-0.5343,-0.5236,-0.5236,-0.5236,-0.5236,-0.5333,-0.5466,-0.5516,-0.5629,-0.5757,-0.5808,-0.5822,-0.5822,-0.5822,-0.5822,-0.5822,-0.5822,-0.5967,-0.6113,-0.6113,-0.6262,-0.6403,-0.665,-0.6896,-0.7138,-0.7385,-0.7385,-0.7385,-0.7385,-0.7385,-0.7385,-0.7385,-0.7385,-0.7467,-0.7691,-0.7722,-0.7809,-0.8033,-0.8189,-0.8323,-0.8323,-0.8454,-0.8587,-0.8587,-0.8587,-0.8696,-0.8943,-0.8951,-0.9063,-0.9299,-0.9304,-0.9304,-0.9304,-0.9304,-0.9304,-0.9304,-0.9304,-0.9304,0.0,0.0,0.0,0.0,0.0,-0.0667,0.0,0.0,0.0,-0.0516,-0.0522,0.0,0.0,0.0,0.0,0.0,0.0,0.0,0.0,0.0309,0.0,0.0986,0.1,0.1087,0.1036,0.1042,0.098,0.1083,0.1084,0.0783,0.0241,-0.1127,-0.1876,-0.1919,-0.2754,-0.3296,-0.3559,-0.3561,-0.3599,-0.3585,-0.3585,-0.3853,-0.43,-0.5112,-0.5287,-0.483,-0.5463,-0.5784,-0.5871,-0.5893,-0.6034,-0.6147,-0.537,-0.5222,-0.5438,-0.5636,-0.5734,-0.5734,-0.5734,-0.5807,-0.6017,-0.6105,-0.6224,-0.6352,-0.6463,-0.6495,-0.6495,-0.6495,-0.6495,-0.6495,-0.6495,-0.6638,-0.6788,-0.681,-0.6968,-0.7118,-0.7141,-0.7266,-0.7508,-0.7508,-0.775,-0.7872,-0.7872,-0.7872,-0.788,-0.7905,-0.7907,-0.7994,-0.8239,-0.8272,-0.8353,-0.8565,-0.8587,-0.8587,-0.8587,-0.8587,-0.8587,-0.8587,-0.8587,-0.8696,-0.8943,-0.8995,-0.9109,-0.9299,-0.9304,-0.9304,-0.9304,-0.9304,-0.9304,-0.9304,-0.9304,-0.9304,0.0,0.0,0.0,0.0,-0.1696,0.0,0.0,0.0,-0.1617,-0.1624,0.0,0.0,0.0,0.0,0.0,0.0,0.0,0.0,-0.142,-0.0958,-0.0456,0.0125,0.0462,0.0613,0.0547,0.0349,0.0214,0.022,0.0221,-0.0,-0.061,-0.1245,-0.2149,-0.3184,-0.318,-0.3245,-0.3384,-0.3386,-0.3508,-0.358,-0.358,-0.3849,-0.43,-0.4654,-0.501,-0.5371,-0.5552,-0.5741,-0.576,-0.586,-0.5983,-0.6119,-0.6144,-0.615,-0.6237,-0.6337,-0.6337,-0.6337,-0.6337,-0.6414,-0.6519,-0.6532,-0.669,-0.6896,-0.7011,-0.7043,-0.7043,-0.7043,-0.7043,-0.7043,-0.7043,-0.7142,-0.7268,-0.7375,-0.7504,-0.7629,-0.7728,-0.7872,-0.7872,-0.7872,-0.7872,-0.7872,-0.7872,-0.7872,-0.7907,-0.8016,-0.8032,-0.8122,-0.8367,-0.8397,-0.8446,-0.8573,-0.8587,-0.8587,-0.8587,-0.8587,-0.8587,-0.8587,-0.8587,-0.8696,-0.8943,-0.9152,-0.9277,-0.9304,-0.9304,-0.9304,-0.9304,-0.9304,-0.9304,-0.9304,-0.9304,-0.9304,0.0,0.0,0.0,0.0,0.0,0.0,-0.1553,0.0,-0.1811,0.0,0.0,0.0,0.0,0.0,0.0,0.0,-0.1808,0.0,0.0,0.0,-0.1223,0.0,0.0,0.0,0.0262,-0.0876,-0.1513,-0.1251,-0.1391,-0.1771,-0.2216,-0.3032,-0.3571,-0.3816,-0.4055,-0.4281,-0.4421,-0.4482,-0.4644,-0.4745,-0.4805,-0.4924,-0.5104,-0.5193,-0.5371,-0.5552,-0.5644,-0.5733,-0.5738,-0.5784,-0.5874,-0.5991,-0.6116,-0.6276,-0.6437,-0.6437,-0.6437,-0.6437,-0.6437,-0.6469,-0.6537,-0.6679,-0.6842,-0.7008,-0.7122,-0.7154,-0.7154,-0.7154,-0.7154,-0.7154,-0.7154,-0.7244,-0.7366,-0.7489,-0.7614,-0.7733,-0.7847,-0.7872,-0.7872,-0.7872,-0.7872,-0.7872,-0.7872,-0.7872,-0.7913,-0.8035,-0.8054,-0.8141,-0.8388,-0.8418,-0.8462,-0.8573,-0.8587,-0.8587,-0.8587,-0.8587,-0.8587,-0.8587,-0.8655,-0.8772,-0.8946,-0.9114,-0.9237,-0.9302,-0.9304,-0.9304,-0.9304,-0.9304,-0.9304,-0.9304,-0.9304,-0.9304,-0.2014,0.0,0.0,0.0,0.0,0.0,0.0,0.0,0.0,0.0,0.0,0.0,0.0,0.0,0.0,0.0,0.0,-0.2136,0.0,-0.2159,0.0,0.0,0.0,0.0,0.0,-0.1729,-0.2458,-0.2168,-0.243,-0.276,-0.3272,-0.4075,-0.4422,-0.4183,-0.4763,-0.5072,-0.5184,-0.5306,-0.5431,-0.5464,-0.5673,-0.5733,-0.5733,-0.5733,-0.5733,-0.5733,-0.5733,-0.5733,-0.5733,-0.5733,-0.5801,-0.5915,-0.6037,-0.6211,-0.6393,-0.6426,-0.6437,-0.6437,-0.6437,-0.6437,-0.6478,-0.6722,-0.6864,-0.6961,-0.7108,-0.7154,-0.7154,-0.7154,-0.7154,-0.7154,-0.7154,-0.722,-0.7326,-0.7483,-0.7587,-0.7693,-0.7839,-0.7872,-0.7872,-0.7872,-0.7872,-0.7872,-0.7872,-0.7872,-0.7924,-0.8081,-0.8103,-0.819,-0.8435,-0.8465,-0.8494,-0.8579,-0.8587,-0.8587,-0.8587,-0.8587,-0.8587,-0.8587,-0.8704,-0.8823,-0.8946,-0.9071,-0.9188,-0.9302,-0.9304,-0.9304,-0.9304,-0.9304,-0.9304,-0.9304,-0.9304,-0.9304,0.0,0.0,0.0,-0.2851,0.0,0.0,0.0,0.0,-0.2594,0.0,0.0,0.0,0.0,0.0,0.0,0.0,0.0,0.0,0.0,0.0,0.0,0.0,0.0,0.0,0.0,-0.1815,-0.1798,0.0,-0.2225,-0.2601,-0.3159,-0.3632,-0.4082,-0.4458,-0.4799,-0.5072,-0.5184,-0.5306,-0.5431,-0.5464,-0.5673,-0.5733,-0.5733,-0.5733,-0.5733,-0.5733,-0.5733,-0.5733,-0.5733,-0.5733,-0.5801,-0.5915,-0.6037,-0.6162,-0.6287,-0.6396,-0.6437,-0.6437,-0.6437,-0.6437,-0.6478,-0.6722,-0.6804,-0.6853,-0.7084,-0.7154,-0.7154,-0.7154,-0.7154,-0.7154,-0.7154,-0.7157,-0.722,-0.7462,-0.7521,-0.7587,-0.782,-0.7872,-0.7872,-0.7872,-0.7872,-0.7872,-0.7872,-0.7872,-0.7951,-0.8193,-0.8231,-0.8315,-0.8552,-0.8581,-0.8584,-0.8587,-0.8587,-0.8587,-0.8587,-0.8587,-0.8587,-0.8587,-0.8704,-0.8823,-0.8946,-0.9071,-0.9188,-0.9302,-0.9304,-0.9304,-0.9304,-0.9304,-0.9304,-0.9304,-0.9304,-0.9304,0.0,0.0,-0.1878,-0.1991,0.0,0.0,0.0,0.0,0.0,0.0,0.0,0.0,0.0,0.0,0.0,0.0,0.0,0.0,0.0,0.0,0.0,0.0,0.0,0.0,0.0,0.0,0.0,0.0,-0.3067,0.0,-0.3776,-0.4167,-0.4527,-0.468,-0.4876,-0.5034,-0.5072,-0.5189,-0.5309,-0.5431,-0.5553,-0.5654,-0.5733,-0.5733,-0.5733,-0.5733,-0.5733,-0.5733,-0.5733,-0.5733,-0.5757,-0.5803,-0.592,-0.604,-0.617,-0.6363,-0.6437,-0.6437,-0.6437,-0.6437,-0.6478,-0.6722,-0.6801,-0.6844,-0.7084,-0.7154,-0.7154,-0.7154,-0.7154,-0.7154,-0.7154,-0.7214,-0.7315,-0.7481,-0.7581,-0.7682,-0.7837,-0.7872,-0.7872,-0.7872,-0.7872,-0.7872,-0.7872,-0.7872,-0.7954,-0.8198,-0.8236,-0.832,-0.8557,-0.8587,-0.8587,-0.8587,-0.8587,-0.8587,-0.8587,-0.8587,-0.8587,-0.8587,-0.8628,-0.8704,-0.8826,-0.8948,-0.9071,-0.919,-0.9266,-0.9304,-0.9304,-0.9304,-0.9266,-0.9193,-0.9193,-0.9231,-0.2552,-0.2401,0.0,-0.2042,-0.1974,0.0,-0.2567,0.0,-0.2516,0.0,0.0,0.0,0.0,0.0,0.0,0.0,0.0,0.0,0.0,-0.2912,0.0,0.0,0.0,0.0,0.0,0.0,-0.2968,-0.3011,-0.3455,0.0,0.0,-0.4393,-0.4643,-0.4765,-0.4931,-0.5018,-0.5018,-0.5129,-0.5249,-0.5371,-0.5491,-0.5529,-0.5733,-0.5733,-0.5733,-0.5733,-0.5733,-0.5733,-0.5733,-0.5733,-0.5733,-0.5744,-0.5858,-0.5977,-0.6111,-0.6304,-0.6401,-0.6437,-0.6437,-0.6437,-0.6469,-0.6671,-0.6766,-0.6839,-0.7035,-0.7122,-0.7154,-0.7154,-0.7154,-0.7165,-0.7206,-0.7277,-0.7377,-0.7543,-0.7644,-0.7733,-0.7847,-0.7872,-0.7872,-0.7872,-0.7872,-0.7872,-0.7872,-0.7872,-0.7954,-0.8198,-0.8236,-0.832,-0.8557,-0.8587,-0.8587,-0.8587,-0.8587,-0.8587,-0.8587,-0.8587,-0.8587,-0.8587,-0.8587,-0.8641,-0.8764,-0.8845,-0.8965,-0.913,-0.9207,-0.9264,-0.9304,-0.9304,-0.9245,-0.9133,-0.9133,-0.915]},{"header":{"parameterUnit":"m.s-1","parameterCategory":1,"la1":30.6,"la2":29.2853,"lo1":-89.7004,"lo2":-87.6739,"dy":0.0162,"dx":0.0183,"nx":112,"ny":82,"refTime":"2026-04-25T12:00:00:Z","depth":0,"parameterNumber":3,"parameterNumberName":"V-component_of_WINDS"},"data":[0.0,0.0,0.0,0.0,0.0,0.0,0.0,0.0,0.0,0.0,0.0,0.0,0.0,0.0,0.0,0.0,0.0,0.0,0.0,0.0,0.0,0.0,0.0,0.0,0.0,0.0,0.0,0.0,0.0,0.0,0.0,0.0,0.0,0.0,0.0,0.0,0.0,0.0,0.0,0.0,0.0,0.0,0.0,0.0,0.0,0.0,0.0,0.0,0.0,0.0,0.0,0.0,0.0,0.0,0.0,0.0,0.0,0.0,0.0,0.0,0.0,0.0,0.0,0.0,0.0,0.0,0.0,0.0,0.0,0.0,0.0,0.0,0.0,0.0,0.0,0.0,0.0,0.0,0.0,0.0,0.0,0.0,0.0,0.0,0.0,0.0,0.0,0.0,0.0,0.0,-2.5209,-2.8174,-3.2196,-3.4405,-3.3761,-3.2335,-3.0687,-2.8816,0.0,0.0,0.0,0.0,0.0,0.0,0.0,0.0,0.0,0.0,0.0,0.0,0.0,0.0,0.0,0.0,0.0,0.0,0.0,0.0,0.0,0.0,0.0,0.0,0.0,0.0,0.0,0.0,0.0,0.0,0.0,0.0,0.0,0.0,0.0,0.0,0.0,0.0,0.0,0.0,0.0,0.0,0.0,0.0,0.0,0.0,0.0,0.0,0.0,0.0,0.0,0.0,0.0,0.0,0.0,0.0,0.0,0.0,0.0,0.0,0.0,0.0,0.0,0.0,0.0,0.0,0.0,0.0,0.0,0.0,0.0,0.0,0.0,0.0,0.0,0.0,0.0,0.0,0.0,0.0,0.0,0.0,0.0,0.0,0.0,0.0,0.0,0.0,0.0,0.0,0.0,0.0,0.0,0.0,0.0,0.0,0.0,0.0,0.0,0.0,0.0,0.0,0.0,0.0,-2.718,-3.169,-3.4302,-3.5465,-3.48,-3.453,-3.3076,-3.0136,0.0,0.0,0.0,0.0,0.0,0.0,0.0,0.0,0.0,0.0,0.0,0.0,0.0,0.0,0.0,0.0,0.0,0.0,0.0,0.0,0.0,0.0,0.0,0.0,0.0,0.0,0.0,0.0,0.0,0.0,0.0,0.0,0.0,0.0,0.0,0.0,0.0,0.0,0.0,0.0,0.0,0.0,0.0,0.0,0.0,0.0,0.0,0.0,0.0,0.0,0.0,0.0,0.0,0.0,0.0,0.0,0.0,0.0,0.0,0.0,0.0,0.0,0.0,0.0,0.0,0.0,0.0,0.0,0.0,0.0,0.0,0.0,0.0,0.0,0.0,0.0,0.0,0.0,0.0,0.0,0.0,0.0,0.0,0.0,0.0,0.0,0.0,0.0,0.0,0.0,0.0,0.0,0.0,0.0,0.0,0.0,0.0,0.0,0.0,0.0,0.0,0.0,0.0,-2.7281,-3.0678,-3.4007,-3.5508,-3.592,-3.5294,-3.4574,-3.2931,-3.013,-2.6748,0.0,0.0,0.0,0.0,0.0,0.0,0.0,0.0,0.0,0.0,0.0,0.0,0.0,0.0,0.0,0.0,0.0,0.0,0.0,0.0,0.0,0.0,0.0,0.0,0.0,0.0,0.0,0.0,0.0,0.0,0.0,0.0,0.0,0.0,0.0,0.0,0.0,0.0,0.0,0.0,0.0,0.0,0.0,0.0,0.0,0.0,0.0,0.0,0.0,0.0,0.0,0.0,0.0,0.0,0.0,0.0,0.0,0.0,0.0,0.0,0.0,0.0,0.0,0.0,0.0,0.0,0.0,0.0,0.0,0.0,0.0,0.0,0.0,0.0,0.0,0.0,0.0,0.0,0.0,0.0,0.0,0.0,0.0,0.0,0.0,0.0,0.0,0.0,0.0,0.0,0.0,0.0,0.0,0.0,0.0,0.0,0.0,0.0,0.0,0.0,0.0,0.0,-3.1155,-3.3624,-3.5515,-3.6336,-3.6445,-3.5672,-3.4415,-3.2532,-2.998,-2.7219,0.0,0.0,0.0,0.0,0.0,0.0,0.0,0.0,0.0,0.0,0.0,0.0,0.0,0.0,0.0,0.0,0.0,0.0,0.0,0.0,0.0,0.0,0.0,0.0,0.0,0.0,0.0,0.0,0.0,0.0,0.0,0.0,0.0,0.0,0.0,0.0,0.0,0.0,0.0,0.0,0.0,0.0,0.0,0.0,0.0,0.0,0.0,0.0,0.0,0.0,0.0,0.0,0.0,0.0,0.0,0.0,0.0,0.0,0.0,0.0,0.0,0.0,0.0,0.0,0.0,0.0,0.0,0.0,0.0,0.0,0.0,0.0,0.0,0.0,0.0,0.0,0.0,0.0,0.0,0.0,0.0,0.0,0.0,0.0,0.0,0.0,0.0,0.0,0.0,0.0,0.0,0.0,0.0,0.0,0.0,0.0,0.0,0.0,0.0,0.0,0.0,0.0,-3.2399,-3.4723,-3.6148,-3.6995,-3.7137,-3.6411,-3.5054,-3.3066,-3.0354,-2.7513,0.0,0.0,0.0,0.0,0.0,0.0,0.0,0.0,0.0,0.0,0.0,0.0,0.0,0.0,0.0,0.0,0.0,0.0,0.0,0.0,0.0,0.0,0.0,0.0,0.0,0.0,0.0,0.0,0.0,0.0,0.0,0.0,0.0,0.0,0.0,0.0,0.0,0.0,0.0,0.0,0.0,0.0,0.0,0.0,0.0,0.0,0.0,0.0,0.0,0.0,0.0,0.0,0.0,0.0,0.0,0.0,0.0,0.0,0.0,0.0,0.0,0.0,0.0,0.0,0.0,0.0,0.0,0.0,0.0,0.0,0.0,0.0,0.0,0.0,0.0,0.0,0.0,0.0,0.0,0.0,0.0,0.0,0.0,0.0,0.0,0.0,0.0,0.0,0.0,0.0,0.0,0.0,0.0,0.0,0.0,0.0,0.0,0.0,0.0,0.0,0.0,0.0,-3.3873,-3.6381,0.0,-3.8014,-3.7714,-3.6632,-3.4879,-3.2711,-3.0,0.0,0.0,0.0,0.0,0.0,0.0,0.0,0.0,0.0,0.0,0.0,0.0,0.0,0.0,0.0,0.0,0.0,0.0,0.0,0.0,0.0,0.0,0.0,0.0,0.0,0.0,0.0,0.0,0.0,0.0,0.0,0.0,0.0,0.0,0.0,0.0,0.0,0.0,0.0,0.0,0.0,0.0,0.0,0.0,0.0,0.0,0.0,0.0,0.0,0.0,0.0,0.0,0.0,0.0,0.0,0.0,0.0,0.0,0.0,0.0,0.0,0.0,0.0,0.0,0.0,0.0,0.0,0.0,0.0,0.0,0.0,0.0,0.0,0.0,0.0,0.0,0.0,0.0,0.0,0.0,0.0,0.0,0.0,0.0,0.0,0.0,0.0,0.0,0.0,0.0,0.0,0.0,0.0,0.0,0.0,0.0,0.0,0.0,0.0,0.0,0.0,0.0,-3.1396,-3.4864,-3.7431,0.0,-3.8613,-3.8093,-3.7122,-3.5038,-3.261,-2.996,0.0,0.0,0.0,0.0,0.0,0.0,0.0,0.0,0.0,0.0,0.0,0.0,0.0,0.0,0.0,0.0,0.0,0.0,0.0,0.0,0.0,0.0,0.0,0.0,0.0,0.0,0.0,0.0,0.0,0.0,0.0,0.0,0.0,0.0,0.0,0.0,0.0,0.0,0.0,0.0,0.0,0.0,0.0,0.0,0.0,0.0,0.0,0.0,0.0,0.0,0.0,0.0,0.0,0.0,0.0,0.0,0.0,0.0,0.0,0.0,0.0,0.0,0.0,0.0,0.0,0.0,0.0,0.0,0.0,0.0,0.0,0.0,0.0,0.0,0.0,0.0,0.0,0.0,0.0,0.0,0.0,0.0,0.0,0.0,0.0,0.0,0.0,0.0,0.0,0.0,0.0,0.0,0.0,0.0,0.0,0.0,0.0,0.0,0.0,0.0,0.0,0.0,-3.1973,-3.5293,-3.7729,-3.9082,-3.8826,-3.8359,-3.7966,-3.5594,-3.2999,0.0,0.0,0.0,0.0,0.0,0.0,0.0,0.0,0.0,0.0,0.0,0.0,0.0,0.0,0.0,0.0,0.0,0.0,0.0,0.0,0.0,0.0,0.0,0.0,0.0,0.0,0.0,0.0,0.0,0.0,0.0,0.0,0.0,0.0,0.0,0.0,0.0,0.0,0.0,0.0,0.0,0.0,0.0,0.0,0.0,0.0,0.0,0.0,0.0,0.0,0.0,0.0,0.0,0.0,0.0,0.0,0.0,0.0,0.0,0.0,0.0,0.0,0.0,0.0,0.0,0.0,0.0,0.0,0.0,0.0,0.0,0.0,0.0,0.0,0.0,0.0,0.0,0.0,0.0,0.0,0.0,0.0,0.0,0.0,0.0,0.0,0.0,0.0,0.0,0.0,0.0,0.0,0.0,0.0,0.0,0.0,0.0,0.0,0.0,0.0,0.0,0.0,0.0,-3.2503,-3.6788,-3.9709,-4.0467,-4.0626,-4.0328,-3.939,-3.7363,-3.4789,-3.1606,0.0,0.0,0.0,0.0,0.0,0.0,0.0,0.0,0.0,0.0,0.0,0.0,0.0,0.0,0.0,0.0,0.0,0.0,0.0,0.0,0.0,0.0,0.0,0.0,0.0,0.0,0.0,0.0,0.0,0.0,0.0,0.0,0.0,0.0,0.0,0.0,0.0,0.0,0.0,0.0,0.0,0.0,0.0,0.0,0.0,0.0,0.0,0.0,0.0,0.0,0.0,0.0,0.0,0.0,0.0,0.0,0.0,0.0,0.0,0.0,0.0,0.0,0.0,0.0,0.0,0.0,0.0,0.0,0.0,0.0,0.0,0.0,0.0,0.0,0.0,0.0,0.0,0.0,0.0,0.0,0.0,0.0,0.0,0.0,0.0,0.0,0.0,0.0,0.0,0.0,0.0,0.0,0.0,0.0,0.0,0.0,0.0,0.0,0.0,0.0,0.0,0.0,-3.3046,-3.7745,-4.0913,-4.1461,-4.1807,-4.1615,-4.0734,-3.9149,-3.6597,-3.29,0.0,0.0,0.0,0.0,0.0,0.0,0.0,0.0,0.0,0.0,0.0,0.0,0.0,0.0,0.0,0.0,0.0,0.0,0.0,0.0,0.0,0.0,0.0,0.0,0.0,0.0,0.0,0.0,0.0,0.0,0.0,0.0,0.0,0.0,0.0,0.0,0.0,0.0,0.0,0.0,0.0,0.0,0.0,0.0,0.0,0.0,0.0,0.0,0.0,0.0,0.0,0.0,0.0,0.0,0.0,0.0,0.0,0.0,0.0,0.0,0.0,0.0,0.0,0.0,0.0,0.0,0.0,0.0,0.0,0.0,0.0,0.0,0.0,0.0,0.0,0.0,0.0,0.0,0.0,0.0,0.0,0.0,0.0,0.0,0.0,0.0,0.0,0.0,0.0,0.0,0.0,0.0,0.0,0.0,0.0,0.0,0.0,0.0,0.0,0.0,0.0,0.0,-3.3809,-3.8477,-4.1682,-4.2375,-4.2596,-4.2562,-4.2013,-4.0881,-3.8401,-3.4237,0.0,0.0,0.0,0.0,0.0,0.0,0.0,0.0,0.0,0.0,0.0,0.0,0.0,0.0,0.0,0.0,0.0,0.0,0.0,0.0,0.0,0.0,0.0,0.0,0.0,0.0,0.0,0.0,0.0,0.0,0.0,0.0,0.0,0.0,0.0,0.0,0.0,0.0,0.0,0.0,0.0,0.0,0.0,0.0,0.0,0.0,0.0,0.0,0.0,0.0,0.0,0.0,0.0,0.0,0.0,0.0,0.0,0.0,0.0,0.0,-2.8391,0.0,0.0,0.0,0.0,0.0,0.0,0.0,0.0,0.0,0.0,0.0,0.0,0.0,0.0,0.0,0.0,0.0,0.0,0.0,0.0,0.0,0.0,0.0,0.0,0.0,0.0,0.0,0.0,0.0,0.0,0.0,0.0,0.0,0.0,0.0,0.0,0.0,0.0,0.0,0.0,0.0,-3.5875,-4.0403,-4.344,-4.4006,-4.4457,-4.4249,-4.3081,-4.2265,-3.9915,-3.5479,-3.2372,0.0,0.0,0.0,0.0,0.0,0.0,0.0,0.0,0.0,0.0,0.0,0.0,0.0,0.0,0.0,0.0,0.0,0.0,0.0,0.0,0.0,0.0,0.0,0.0,0.0,0.0,0.0,0.0,0.0,0.0,0.0,0.0,0.0,0.0,0.0,0.0,0.0,0.0,0.0,0.0,0.0,0.0,0.0,0.0,0.0,0.0,0.0,0.0,0.0,0.0,0.0,0.0,0.0,0.0,0.0,0.0,0.0,0.0,0.0,0.0,-3.1239,0.0,0.0,0.0,0.0,0.0,0.0,0.0,0.0,0.0,0.0,0.0,0.0,0.0,0.0,0.0,0.0,0.0,0.0,0.0,0.0,0.0,0.0,0.0,0.0,0.0,0.0,0.0,0.0,0.0,0.0,0.0,0.0,0.0,0.0,0.0,0.0,0.0,0.0,0.0,0.0,-3.6933,-4.1481,-4.4591,-4.5244,-4.5787,-4.5466,-4.4014,-4.3568,-4.1594,-3.7438,-3.4711,0.0,0.0,0.0,0.0,0.0,0.0,0.0,0.0,0.0,0.0,0.0,0.0,0.0,0.0,0.0,0.0,0.0,0.0,0.0,0.0,0.0,0.0,0.0,0.0,0.0,0.0,0.0,0.0,0.0,0.0,0.0,0.0,0.0,0.0,0.0,0.0,0.0,0.0,0.0,0.0,0.0,0.0,0.0,0.0,0.0,0.0,0.0,0.0,0.0,0.0,0.0,0.0,0.0,-3.3457,-3.4872,-3.6786,-3.7958,-3.9112,-4.0165,-3.7199,-3.5684,-3.5264,-3.4676,0.0,0.0,0.0,0.0,0.0,0.0,0.0,0.0,0.0,0.0,0.0,0.0,0.0,0.0,0.0,0.0,0.0,0.0,0.0,0.0,0.0,0.0,0.0,0.0,-3.9904,-3.8409,-3.4166,0.0,0.0,0.0,0.0,0.0,0.0,0.0,0.0,0.0,0.0,0.0,-3.8056,-4.233,-4.5353,-4.629,-4.6757,-4.6453,-4.4968,-4.4718,-4.313,-3.9625,-3.718,-3.4943,0.0,0.0,0.0,0.0,0.0,0.0,0.0,0.0,0.0,0.0,0.0,0.0,0.0,0.0,0.0,0.0,0.0,0.0,0.0,0.0,0.0,0.0,0.0,0.0,0.0,0.0,0.0,0.0,0.0,0.0,0.0,0.0,-1.607,-1.6543,0.0,0.0,0.0,0.0,0.0,0.0,0.0,0.0,0.0,0.0,0.0,0.0,0.0,-3.1533,-3.2997,-3.4282,-3.5391,-3.6307,-3.8391,-3.9664,-4.0312,-4.1855,-4.2815,-4.3181,-4.3464,0.0,-3.9341,-3.8164,0.0,0.0,0.0,0.0,0.0,0.0,0.0,0.0,0.0,0.0,0.0,0.0,0.0,0.0,0.0,0.0,0.0,0.0,0.0,0.0,0.0,0.0,-4.6708,-4.4634,-4.454,-4.4542,0.0,-3.9414,-3.5688,-3.4093,-3.2536,0.0,0.0,0.0,0.0,0.0,0.0,0.0,-4.0691,-4.3703,-4.6012,-4.7331,-4.7542,-4.7235,-4.6336,-4.559,-4.4129,-4.1578,-3.9152,-3.7069,-3.538,-3.2172,0.0,0.0,0.0,0.0,0.0,0.0,0.0,0.0,0.0,0.0,0.0,0.0,0.0,0.0,0.0,0.0,0.0,0.0,0.0,0.0,0.0,0.0,0.0,0.0,0.0,0.0,0.0,0.0,0.0,-1.6033,-1.8111,-1.8666,-1.9766,-2.0447,0.0,0.0,0.0,0.0,0.0,0.0,0.0,0.0,0.0,-3.1466,-3.3629,-3.566,-3.7547,-3.8526,-3.9804,-4.1535,-4.2675,-4.3805,-4.4849,-4.5749,-4.6448,-4.6946,-4.7284,-4.6735,-4.5297,-4.2395,-4.0544,-3.9375,0.0,0.0,0.0,0.0,-3.8825,-3.9481,-4.0849,-4.152,-4.1758,-4.1971,0.0,0.0,0.0,0.0,0.0,0.0,0.0,0.0,0.0,0.0,-4.949,-4.8052,-4.7941,-4.7794,-4.6576,-4.4465,-4.2069,0.0,-3.7326,-3.5127,-3.2575,0.0,0.0,0.0,0.0,-3.8583,-4.2245,-4.4967,-4.6983,-4.8038,-4.809,-4.7722,-4.69,-4.6097,-4.5002,-4.3524,-4.1588,-3.9999,-3.883,-3.5707,-3.3415,0.0,0.0,0.0,0.0,0.0,0.0,0.0,0.0,0.0,0.0,0.0,0.0,0.0,0.0,0.0,0.0,0.0,0.0,0.0,0.0,0.0,0.0,0.0,0.0,0.0,0.0,0.0,0.0,-1.8674,-2.051,-2.1119,-2.228,-2.303,0.0,0.0,0.0,0.0,0.0,0.0,-2.9963,-3.1978,-3.3736,-3.5195,-3.7253,-3.9279,-4.1305,-4.2019,-4.3398,-4.547,-4.5917,-4.6811,-4.8124,-4.8761,-4.9299,-4.9847,-5.0018,-5.024,-5.0159,-4.64,-4.4401,-4.3662,-4.2059,-4.1433,-4.1534,-4.2644,-4.3525,-4.4353,-4.5868,-4.6711,-4.7102,-4.7288,-4.6174,-4.4469,-4.2986,0.0,0.0,0.0,0.0,-4.5379,-4.7479,-4.9732,-5.1287,-5.0491,-5.0454,-5.0213,-4.8733,-4.8234,-4.7071,0.0,-4.1267,-3.9091,-3.6996,0.0,0.0,0.0,0.0,-4.0496,-4.344,-4.5827,-4.7592,-4.8383,-4.8363,-4.8067,-4.748,-4.6489,-4.5645,-4.5039,-4.3296,-4.2029,-4.1475,-3.8738,-3.647,-3.4816,0.0,0.0,0.0,0.0,0.0,0.0,0.0,0.0,0.0,0.0,0.0,0.0,0.0,0.0,0.0,0.0,0.0,0.0,0.0,0.0,0.0,0.0,0.0,0.0,0.0,0.0,0.0,0.0,0.0,-2.4324,-2.6287,0.0,0.0,0.0,0.0,-3.0079,-3.1537,-3.3011,-3.4485,-3.6122,-3.7686,-3.9168,-4.0812,-4.2373,-4.393,-4.465,-4.5581,-4.6701,-4.7573,-4.8199,-4.8609,-5.0228,-5.0976,-5.1045,-5.1752,-5.226,-5.2381,-4.9812,-4.8789,-4.8729,-4.6667,-4.6509,-4.7328,-4.6898,-4.7868,-4.9577,-5.0615,-5.1617,-5.243,-5.2669,-5.0875,-4.8317,-4.6702,-4.5602,0.0,0.0,-4.7352,-4.8818,-4.9728,-5.1231,-5.2327,-5.1528,-5.1918,-5.2252,-5.1398,-5.0562,-4.895,0.0,-4.3541,-4.2118,-4.1138,0.0,-3.8515,-3.9496,-4.1005,-4.264,-4.4433,-4.6195,-4.7574,-4.8233,-4.8306,-4.8288,-4.8251,-4.6801,-4.5883,-4.5847,-4.3608,-4.2301,-4.2345,-4.0707,-3.9091,-3.7525,-3.504,0.0,0.0,0.0,0.0,0.0,0.0,0.0,0.0,0.0,0.0,0.0,0.0,0.0,0.0,0.0,0.0,0.0,0.0,0.0,0.0,0.0,0.0,0.0,0.0,0.0,0.0,0.0,0.0,-2.6982,-2.8959,0.0,-2.9997,-3.0725,-3.1951,-3.3889,-3.4982,-3.6423,-3.845,-3.9744,-4.1127,-4.2749,-4.3982,-4.5314,-4.6792,-4.7063,-4.7707,-4.8668,-4.9142,-4.981,-5.0575,-5.1359,-5.1939,-5.2485,-5.2747,-5.3207,-5.3649,-5.277,-5.1938,-5.1031,-4.9907,-4.9859,-5.0521,-5.1117,-5.1828,-5.2654,-5.3697,-5.4367,-5.4663,-5.434,-5.2897,-5.1175,-5.0599,-4.9466,-4.8686,-5.0131,-5.1355,-5.2321,-5.2653,-5.3622,-5.4348,-5.3508,-5.3545,-5.3508,-5.2701,-5.227,-5.1357,-4.9118,-4.7169,-4.5463,-4.4114,-4.3227,-4.2867,-4.3195,-4.4107,-4.5197,-4.6284,-4.7426,-4.8218,-4.8458,-4.8458,-4.8198,-4.7703,-4.6581,-4.5681,-4.5168,-4.3828,-4.3091,-4.3192,-4.2247,-4.103,-3.9472,-3.7704,-3.5094,0.0,0.0,0.0,0.0,0.0,0.0,0.0,0.0,0.0,0.0,0.0,0.0,0.0,0.0,0.0,0.0,0.0,0.0,0.0,0.0,0.0,0.0,0.0,0.0,0.0,0.0,-2.881,-2.9543,-3.1532,-3.2962,-3.3212,-3.3877,-3.5108,-3.7103,-3.7935,-3.9287,-4.1456,-4.2463,-4.366,-4.5137,-4.6366,-4.7472,-4.8449,-4.8723,-4.9217,-4.9982,-5.025,-5.0931,-5.2014,-5.248,-5.3137,-5.3896,-5.4179,-5.4585,-5.4988,-5.4988,-5.4538,-5.3673,-5.2874,-5.2865,-5.3351,-5.4034,-5.4647,-5.5181,-5.5951,-5.6301,-5.6256,-5.5584,-5.4663,-5.385,-5.385,-5.307,-5.2475,-5.3739,-5.452,-5.5038,-5.516,-5.545,-5.5607,-5.5079,-5.4708,-5.4369,-5.3817,-5.3685,-5.3289,-5.1951,-4.9827,-4.7863,-4.652,-4.5953,-4.5667,-4.5685,-4.6294,-4.6984,-4.7503,-4.8282,-4.8748,-4.8731,-4.8438,-4.805,-4.746,-4.6338,-4.5436,-4.4902,-4.3852,-4.3439,-4.3777,-4.3181,-4.2248,-4.1006,-3.8724,-3.5826,-3.2279,0.0,0.0,0.0,0.0,0.0,0.0,0.0,0.0,0.0,0.0,0.0,0.0,0.0,0.0,0.0,0.0,0.0,0.0,0.0,0.0,0.0,0.0,0.0,-2.4567,-2.8289,-3.1247,-3.2043,-3.408,-3.5723,-3.6444,-3.7213,-3.8221,-3.9713,-4.0467,-4.1651,-4.3389,-4.4351,-4.532,-4.6347,-4.7937,-4.8843,-4.8877,-4.9562,-5.0154,-5.064,-5.0749,-5.1511,-5.2766,-5.3653,-5.4473,-5.5294,-5.6098,-5.6437,-5.6437,-5.6437,-5.66,-5.6704,-5.5615,-5.552,-5.6019,-5.5715,-5.6282,-5.7297,-5.7464,-5.7546,-5.7416,-5.6636,-5.6357,-5.6339,-5.6376,-5.6357,-5.6418,-5.665,-5.6779,-5.692,-5.7125,-5.6627,-5.6088,-5.6031,-5.5424,-5.4844,-5.4806,-5.4806,-5.456,-5.3774,-5.142,-4.9258,-4.845,-4.7507,-4.6885,-4.6885,-4.7498,0.0,-4.7959,-4.8651,-4.9104,-4.9042,-4.8315,-4.7798,-4.7698,-4.6174,-4.5207,-4.5151,-4.3683,-4.3204,-4.408,-4.3474,-4.2798,-4.2146,-3.8234,-3.5022,-3.261,0.0,0.0,0.0,0.0,0.0,0.0,0.0,0.0,0.0,0.0,0.0,0.0,0.0,0.0,0.0,0.0,0.0,0.0,0.0,0.0,0.0,0.0,-2.7303,-2.7324,-3.0612,-3.3461,-3.4738,-3.6865,-3.8533,-3.9299,-4.0048,-4.1103,-4.2532,-4.2838,-4.3488,-4.4639,-4.5662,-4.6635,-4.7575,-4.8781,-4.9728,-5.0322,-5.0532,-5.0801,-5.1105,-5.128,-5.2282,-5.3961,-5.4341,-5.527,-5.6606,-5.684,-5.6879,-5.6879,-5.6879,-5.7083,-5.7266,-5.6816,-5.6894,-5.7332,-5.749,-5.7827,-5.8299,-5.8341,-5.8382,-5.8345,-5.8223,-5.78,-5.7526,-5.8181,-5.8015,-5.7772,-5.8537,-5.888,-5.8878,-5.8489,-5.8329,-5.7929,-5.6728,-5.627,-5.5946,-5.529,-5.5157,-5.4909,-5.4116,-5.3339,-5.2262,-5.0582,-4.9561,-4.8985,-4.8985,-4.9145,0.0,-4.9278,-4.9485,-4.9589,-4.956,-4.8767,-4.8003,-4.7391,-4.6299,-4.5115,-4.3895,-4.3415,-4.3047,-4.2768,-4.3264,-4.3263,-4.2697,-3.9776,-3.7332,0.0,0.0,0.0,0.0,0.0,0.0,0.0,0.0,0.0,0.0,0.0,0.0,0.0,0.0,0.0,0.0,0.0,0.0,0.0,0.0,0.0,0.0,-2.7944,-3.0103,-3.1342,-3.346,-3.5332,-3.6517,-3.8585,-4.0268,-4.104,-4.2104,-4.31,-4.3941,-4.4301,-4.4922,-4.589,-4.6793,-4.777,-4.882,-4.982,-5.0612,-5.1141,-5.1193,-5.1384,-5.164,-5.1835,-5.2936,-5.4762,-5.5,-5.5968,-5.7498,-5.7498,-5.7498,-5.7498,-5.7498,-5.7594,0.0,0.0,0.0,0.0,0.0,-5.8553,-5.8716,-5.8716,-5.8716,-5.8716,-5.8881,-5.8686,-5.8484,-5.914,-5.9098,-5.8955,-5.9616,-5.9925,-5.9946,-5.9674,-5.9439,-5.8949,-5.7627,-5.7033,-5.6534,-5.5672,-5.548,-5.5346,-5.4848,-5.4484,0.0,-5.2226,-5.1186,-5.0425,-5.0063,-5.0025,-5.0025,-5.0025,-5.0025,-5.0,-4.9955,-4.8865,-4.7903,-4.7403,-4.6215,0.0,0.0,0.0,-4.3341,-4.2978,-4.3526,0.0,0.0,0.0,0.0,0.0,0.0,0.0,0.0,-3.3219,-3.3738,0.0,0.0,0.0,0.0,0.0,0.0,0.0,0.0,0.0,0.0,0.0,0.0,0.0,0.0,0.0,0.0,-3.0117,-3.2668,-3.5606,-3.6452,-3.704,-3.7776,-3.9801,-4.141,-4.2123,-4.3523,-4.4405,-4.4509,-4.5114,-4.5944,-4.6986,0.0,0.0,0.0,0.0,-5.1384,-5.1538,-5.169,-5.192,-5.218,-5.2379,-5.3472,-5.5313,-5.5574,-5.6562,-5.8088,-5.8088,-5.8088,-5.8088,-5.8088,-5.8133,-5.8242,-5.8033,-5.8105,-5.8363,-5.8614,-5.8758,-5.8739,-5.8739,0.0,0.0,-5.8984,-5.914,-5.9325,-5.9521,-5.9692,-5.9906,-6.0099,-6.0246,-6.0368,-6.0559,-6.0128,-5.9415,-5.8511,-5.7703,-5.6876,-5.5915,-5.5703,-5.5703,-5.5703,-5.5126,-5.4337,-5.3376,-5.2321,-5.1342,-5.0482,-5.0348,-5.0348,-5.0348,-5.0348,-5.0325,-5.0259,0.0,0.0,-4.7819,-4.6351,-4.5398,-4.5303,-4.4388,-4.3918,-4.4019,-4.4192,-4.4288,-4.4364,-4.2983,-4.1815,-4.088,-4.0899,-4.0538,-3.9813,-3.7993,-3.8,0.0,0.0,0.0,0.0,0.0,0.0,0.0,0.0,0.0,0.0,0.0,0.0,0.0,0.0,0.0,-3.0606,-3.2995,-3.5153,-3.6987,-3.8407,-3.9398,-3.9834,-4.1401,-4.2713,-4.3448,-4.4393,-4.5198,-4.581,-4.5985,-4.6405,-4.7294,-4.8101,-4.8959,-5.0008,-5.1025,-5.1687,-5.1884,-5.2119,-5.2335,-5.2581,0.0,0.0,-5.5754,-5.6062,-5.7052,-5.8572,-5.8572,-5.8572,-5.8572,-5.8572,-5.8572,-5.8572,-5.8468,-5.8468,-5.8656,-5.8799,-5.8921,-5.8964,-5.9061,-5.9139,-5.9234,-5.9419,-5.9559,-5.9725,-5.9925,-6.011,0.0,-6.0379,-6.048,-6.0559,-6.066,-6.0618,-6.0165,-5.8665,-5.8165,-5.7627,-5.603,-5.5703,-5.5703,-5.5703,-5.5568,-5.4972,-5.3472,-5.2431,-5.1565,-5.0739,-5.0623,-5.0623,-5.0623,-5.0623,-5.0623,-5.0604,-4.9662,-4.9067,-4.9067,-4.8106,-4.7223,-4.659,-4.5072,-4.4208,-4.4245,-4.4935,-4.532,-4.5337,-4.5647,-4.5379,-4.4497,-4.4479,-4.4748,-4.5132,-4.2066,-4.0874,0.0,0.0,0.0,0.0,0.0,0.0,0.0,0.0,0.0,0.0,0.0,-2.5886,-2.7789,0.0,-3.1506,-3.3466,-3.5105,-3.6764,-3.8726,-3.9643,-4.0318,-4.0695,-4.2423,-4.3656,-4.3979,-4.4975,-4.5817,-4.6186,-4.6172,-4.6748,-4.8008,-4.8567,-4.946,-5.093,-5.1669,-5.2108,-5.2408,-5.3044,-5.3423,-5.3598,-5.4191,-5.5249,-5.6636,-5.6796,-5.7565,-5.8716,-5.8716,-5.8716,-5.8716,-5.8758,-5.884,-5.8843,-5.8843,-5.8781,-5.8698,-5.8862,-5.9024,-5.914,-5.9308,-5.9453,-5.9575,-5.9782,-5.9956,-6.0091,-6.0275,-6.0441,-6.0546,-6.0635,-6.066,-6.0704,-6.0734,-6.0757,-6.0377,-5.8704,-5.83,-5.7819,-5.6069,-5.5703,-5.5703,-5.5703,-5.5703,-5.5299,-5.4068,-5.3126,-5.2125,-5.0875,-5.0702,-5.0702,-5.0702,-5.0702,-5.0702,-5.0702,-4.9913,-4.9394,-4.9394,-4.8606,-4.7932,-4.7528,-4.6682,-4.6201,-4.6201,-4.666,-4.6908,-4.6908,-4.7332,-4.7314,-4.6854,-4.6855,-4.703,-4.7357,-4.572,-4.4999,0.0,0.0,0.0,0.0,0.0,0.0,0.0,0.0,-2.4242,-2.5356,-2.7682,-2.9839,-3.0889,-3.2665,-3.4451,-3.5884,-3.6871,-3.8198,-4.0235,-4.0688,-4.0926,-4.1393,-4.3035,-4.4129,-4.4152,-4.5281,-4.6081,-4.6221,-4.6172,-4.6956,-4.8741,-4.8962,-4.9951,-5.1915,-5.2361,-5.268,-5.2937,-5.4002,-5.4557,-5.4598,-5.5554,-5.645,-5.733,-5.745,-5.7955,-5.8716,-5.8716,-5.8716,-5.8716,-5.884,-5.8982,-5.9044,-5.9196,-5.912,-5.8905,-5.9063,-5.9215,-5.9361,-5.9556,-5.9725,-5.9937,-6.0129,-6.0275,-6.0395,-6.0559,-6.0685,-6.08,-6.08,-6.08,-6.08,-6.08,-6.08,-6.0377,-5.8704,-5.83,-5.7819,-5.6069,-5.5703,-5.5703,-5.5703,-5.5703,-5.5434,-5.4645,-5.378,-5.2683,-5.1164,-5.0798,-5.0702,-5.0702,-5.0702,-5.0702,-5.0702,-5.0067,-4.9644,-4.9644,-4.9009,-4.8529,-4.8355,-4.8355,-4.8279,-4.8105,-4.8333,-4.8465,-4.848,-4.8687,-4.8778,-4.8742,-4.8742,-4.8726,-4.8673,-4.8787,-4.8662,-2.1911,-2.2777,-2.4338,-2.4552,-2.5099,-2.5651,0.0,0.0,-2.712,-2.936,-3.0609,-3.1979,-3.4234,-3.5368,-3.6285,-3.7154,-3.8585,-3.9923,-4.0895,-4.1647,-4.2313,-4.2887,-4.3252,-4.3711,-4.4316,-4.4882,-4.5501,-4.6168,-4.6172,-4.7005,-4.8891,-4.9155,-5.0217,-5.2278,-5.2795,-5.3157,-5.34,-5.4454,-5.4923,-5.4923,-5.5835,-5.667,-5.749,-5.749,-5.7955,-5.8716,-5.8716,-5.8716,-5.8716,-5.8924,-5.9082,-5.9178,-5.938,-5.9556,-5.9677,-5.9578,-5.9628,-5.9758,-5.9956,-6.014,-6.0265,-6.0425,-6.0525,-6.0585,-6.066,-6.0734,-6.08,-6.08,-6.08,-6.08,-6.08,-6.08,-6.0377,-5.8704,-5.83,-5.7819,-5.6069,-5.5703,-5.5703,-5.5703,-5.5703,-5.5434,-5.4645,-5.378,-5.2876,-5.1914,-5.1164,-5.0702,-5.0702,-5.0702,-5.0702,-5.0702,-5.0606,-5.0548,-5.0548,-5.0471,-5.0067,-4.9298,-4.924,-4.8913,-4.8125,-4.8893,-4.9384,-4.944,-5.0221,-5.0627,-5.07,-5.07,-5.0681,-5.0668,-5.0755,-4.9924,-2.5172,-2.5793,0.0,0.0,-2.8514,-2.944,-2.9792,-3.052,-3.1529,-3.3043,-3.4383,-3.5569,-3.6599,-3.7424,-3.8044,0.0,-3.9431,-4.0485,-4.1299,-4.1687,-4.2308,-4.3468,-4.3068,-4.324,-4.4539,-4.5187,-4.5822,-4.6602,-4.708,-4.7968,-4.9359,-5.0024,-5.1122,-5.2707,-5.3133,-5.344,-5.3598,-5.5034,-5.5763,-5.5782,-5.7082,-5.7881,-5.8215,-5.8215,-5.8382,-5.8698,-5.8758,-5.884,-5.8884,-5.9121,-5.9363,-5.9571,-5.9777,-5.9937,-6.0072,-5.9944,-5.9988,-6.0121,-6.0304,-6.0487,-6.0616,-6.066,-6.0685,-6.0729,-6.0753,-6.0777,-6.08,-6.08,-6.08,-6.08,-6.08,-6.08,-6.0377,-5.8704,-5.83,-5.7819,-5.6069,-5.5703,-5.5703,-5.5703,-5.5703,-5.5588,-5.5261,-5.4087,-5.3087,-5.2722,-5.1529,-5.0702,-5.0702,-5.0683,-5.0702,-5.0758,-5.0758,-5.0758,-5.0758,-5.0758,-5.0604,-5.0238,-5.0218,-5.0045,-4.9698,-5.0113,-5.0403,-5.0419,-5.0849,-5.1086,-5.1111,-5.1111,-5.1111,-5.1122,-5.1181,-5.0811,-2.7664,0.0,0.0,-3.0255,-3.1482,-3.2583,-3.3219,-3.3907,-3.4703,-3.5588,-3.6734,-3.7634,-3.7856,-3.8377,-3.8841,-3.9064,-4.0011,-4.0921,-4.1516,-4.198,-4.2674,-4.3767,-4.3166,-4.3246,-4.4711,-4.5306,-4.596,-4.6748,-4.7797,-4.8784,-4.9848,-5.0849,-5.1912,-5.3091,-5.344,-5.3619,-5.3734,-5.5445,-5.6302,-5.632,-5.7936,-5.8716,-5.8716,-5.8716,-5.8716,-5.8716,-5.884,-5.8982,-5.9082,-5.9399,-5.9658,-5.995,-6.0159,-6.0332,-6.0422,-6.0332,-6.0332,-6.0414,-6.0585,-6.0685,-6.08,-6.08,-6.08,-6.08,-6.08,-6.08,-6.08,-6.08,-6.08,-6.08,-6.08,-6.08,-6.0377,-5.8707,-5.8303,-5.7822,-5.6111,-5.5745,-5.5745,-5.5745,-5.5745,-5.5745,-5.5745,-5.434,-5.3224,-5.3224,-5.1799,-5.0721,-5.0701,-5.0718,-5.0789,-5.0835,-5.0871,-5.0871,-5.0871,-5.0871,-5.0871,-5.0871,-5.0871,-5.0871,-5.0871,-5.0961,-5.103,-5.1042,-5.1161,-5.1239,-5.1265,-5.1265,-5.1265,-5.1273,-5.1296,-5.133,0.0,0.0,-3.1042,-3.2757,-3.3749,-3.4599,-3.5714,-3.5662,-3.5599,-3.6474,-3.6705,-3.6965,-3.7764,-3.7912,-3.8191,-3.8971,-4.0494,-4.1571,-4.159,-4.2946,-4.3918,-4.3897,-4.38,-4.4014,0.0,-4.5055,-4.554,-4.6354,-4.7898,-4.9259,-5.0326,-5.1321,-5.2394,-5.3462,-5.3678,-5.3794,-5.3813,-5.5466,-5.6302,-5.632,-5.7936,-5.8716,-5.8716,-5.8716,-5.8716,-5.8698,-5.8924,-5.9064,-5.9196,-5.9605,-5.9981,-6.0293,-6.0506,-6.068,-6.0781,-6.0777,-6.0704,-6.0604,-6.066,-6.0734,-6.08,-6.08,-6.08,-6.08,-6.08,-6.08,-6.08,-6.08,-6.08,-6.08,-6.08,-6.08,-6.0381,-5.8693,-5.831,-5.7848,-5.6252,-5.5885,-5.5885,-5.5885,-5.5885,-5.5885,-5.5885,-5.4458,-5.33,-5.33,-5.1873,-5.0775,-5.0701,-5.08,-5.0918,-5.0984,-5.0996,-5.0996,-5.0996,-5.0996,-5.0996,-5.0996,-5.0996,-5.0996,-5.0996,-5.105,-5.1123,-5.1195,-5.1257,-5.1336,-5.139,-5.139,-5.139,-5.139,-5.139,-5.139,0.0,0.0,-3.2107,-3.3785,-3.5211,-3.6339,-3.6796,-3.7356,-3.7729,-3.7479,-3.705,-3.6779,-3.7039,-3.6668,-3.6742,-3.8079,-3.9695,-4.0977,-4.1516,-4.2519,-4.3392,-4.3918,-4.3478,0.0,0.0,0.0,0.0,-4.6793,-4.8861,-5.0236,-5.071,-5.2158,-5.3164,-5.3598,-5.3736,-5.3851,-5.3944,-5.564,-5.6537,-5.6594,-5.8296,-5.912,-5.912,-5.912,-5.912,-5.912,-5.9309,-5.9489,-5.9605,-5.9937,-6.0246,-6.0514,-6.061,-6.071,-6.08,-6.08,-6.0777,-6.0753,-6.0753,-6.0777,-6.08,-6.08,-6.08,-6.08,-6.08,-6.08,-6.08,-6.08,-6.08,-6.08,-6.08,-6.0358,-5.9669,-5.8558,-5.793,-5.7274,-5.6207,-5.6001,-5.6024,-5.6024,-5.6024,-5.5869,-5.5331,-5.428,-5.3117,-5.1953,-5.1281,-5.0906,-5.0902,-5.1017,-5.1105,-5.1141,-5.1122,-5.1122,-5.1122,-5.1122,-5.1122,-5.1122,-5.1122,-5.1122,-5.1122,-5.121,-5.1245,-5.1264,-5.133,-5.1377,-5.1394,-5.1394,-5.1394,-5.1394,-5.1394,-5.1394,-3.1839,-3.301,-3.3931,-3.526,-3.6601,-3.7588,-3.7436,-3.8022,-3.8192,-3.6838,-3.6185,-3.5889,-3.5913,-3.5509,-3.5789,-3.7702,-3.9369,-4.0719,-4.1537,-4.2567,-4.3429,-4.3949,-4.354,-4.3559,0.0,0.0,0.0,-4.6837,-4.9398,-5.0984,-5.1062,-5.2691,-5.3658,-5.3716,-5.3774,-5.3888,-5.4037,-5.5808,-5.704,-5.7801,-5.8945,-5.9489,-5.9489,-5.9489,-5.9489,-5.9489,-5.9681,-5.9861,-5.9981,-6.0227,-6.046,-6.068,-6.0729,-6.0757,-6.08,-6.08,-6.08,-6.08,-6.08,-6.08,-6.08,-6.08,-6.08,-6.08,-6.08,-6.08,-6.08,-6.0823,-6.0846,-6.0846,-6.0869,-6.0234,-5.937,-5.8586,-5.7833,-5.7066,-5.6291,-5.6142,-5.6173,-5.6173,-5.6173,-5.6018,-5.5481,-5.4424,-5.3044,-5.1334,-5.1086,-5.1113,-5.1066,-5.1171,-5.1248,-5.1261,-5.1261,-5.1261,-5.1261,-5.1261,-5.1261,-5.1261,-5.1261,-5.1261,-5.1261,-5.131,-5.1349,-5.1336,-5.1377,-5.1406,-5.1394,-5.1394,-5.1394,-5.1394,-5.1394,-5.1394,-3.3512,-3.5138,-3.6358,-3.7101,-3.788,-3.837,-3.775,-3.7673,-3.7089,-3.4785,-3.426,-3.4255,0.0,0.0,-3.5218,-3.7679,-3.9418,-4.0737,-4.1595,-4.3014,-4.4023,0.0,0.0,0.0,0.0,0.0,0.0,-4.655,0.0,-5.1398,-5.1398,-5.294,-5.3813,-5.3813,-5.3813,-5.3907,-5.4091,-5.5932,-5.7846,-5.9842,-5.9842,-5.9842,-5.9842,-5.9842,-5.9842,-5.9842,-6.0019,-6.0198,-6.034,-6.0533,-6.068,-6.08,-6.08,-6.08,-6.08,-6.08,-6.08,-6.08,-6.08,-6.08,-6.08,-6.08,-6.08,-6.08,-6.08,-6.08,-6.0823,-6.0869,-6.0891,-6.0914,-6.0997,-6.0343,-5.9476,-5.8774,-5.7967,-5.7155,-5.6465,-5.6297,-5.6319,-5.6319,-5.628,-5.6222,-5.6183,-5.4762,-5.3088,-5.1454,-5.1256,-5.1289,-5.1203,-5.1264,-5.1336,-5.139,-5.1394,-5.1394,-5.1394,-5.1394,-5.1394,-5.1394,-5.1394,-5.1394,-5.1394,-5.1394,-5.1394,-5.1394,-5.1394,-5.1394,-5.1394,-5.1394,-5.1394,-5.1394,-5.1394,-5.1394,-3.524,-3.649,-3.7338,-3.8114,-3.8554,-3.8601,-3.7866,-3.7313,-3.6482,-3.4726,-3.2948,-3.195,0.0,0.0,0.0,-3.6004,-3.8276,0.0,-4.1568,-4.3074,0.0,-4.4878,0.0,-4.5287,-4.6104,-4.6921,0.0,0.0,-4.9875,-5.1398,-5.1398,-5.294,-5.3813,-5.3813,-5.3813,-5.3907,-5.4179,-5.6271,-5.8285,-6.0179,-6.0179,-6.0179,-6.0179,-6.0179,-6.0179,-6.0179,-6.0351,-6.0453,-6.0533,-6.0635,-6.071,-6.08,-6.08,-6.08,-6.08,-6.08,-6.08,-6.08,-6.08,-6.08,-6.08,-6.08,-6.08,-6.08,-6.08,-6.08,-6.0823,-6.0869,-6.0939,-6.0983,-6.106,-6.0007,-5.892,-5.8783,-5.7636,-5.6534,-5.6396,-5.6445,-5.6517,-5.6517,-5.601,-5.5346,-5.4702,-5.3688,-5.2595,-5.1503,-5.1352,-5.1347,-5.1271,-5.133,-5.1377,-5.1394,-5.1394,-5.1394,-5.1394,-5.1394,-5.1394,-5.1394,-5.1394,-5.1394,-5.1394,-5.1394,-5.1394,-5.1394,-5.1394,-5.1394,-5.1394,-5.1394,-5.1394,-5.1394,-5.1394,-5.1394,-3.6417,-3.7503,-3.812,-3.864,-3.8564,-3.8079,-3.6934,-3.588,-3.4591,-3.2729,-3.0996,0.0,0.0,0.0,0.0,0.0,0.0,0.0,-4.1147,-4.2698,-4.3975,0.0,-4.5263,0.0,-4.6645,-4.7447,-4.8063,0.0,-5.0296,-5.1398,-5.1398,-5.294,-5.3813,-5.3813,-5.3813,-5.4372,-5.5536,-5.6964,-5.8642,-6.052,-6.052,-6.052,-6.052,-6.052,-6.052,-6.052,0.0,-6.0655,-6.0704,-6.0729,-6.0777,-6.08,-6.08,-6.08,-6.08,-6.08,-6.08,-6.08,-6.08,-6.08,-6.08,-6.0823,-6.0846,-6.0846,-6.0869,-6.0888,-6.0914,-6.0999,-6.106,-6.1034,-6.0732,-5.9735,-5.8713,-5.839,-5.7313,-5.6371,-5.6432,-5.6528,-5.6606,-5.6606,-5.6216,-5.5591,-5.4713,-5.3854,-5.2975,-5.2097,-5.1648,-5.1386,-5.1347,-5.1377,-5.1406,-5.1394,-5.1394,-5.1394,-5.1394,-5.1394,-5.1394,-5.1394,-5.1394,-5.1394,-5.1394,-5.1394,-5.1394,-5.1394,-5.1394,-5.1394,-5.1394,-5.1394,-5.1394,-5.1394,-5.1394,-5.1394,-3.7301,-3.8217,-3.8701,-3.8663,-3.8077,-3.711,-3.5465,-3.3822,-3.2016,-2.9833,0.0,-2.8063,-2.8436,-2.9169,-3.0591,-3.3244,0.0,-3.801,-4.0434,-4.2203,-4.3574,-4.4457,-4.5341,-4.6243,-4.7126,-4.7935,-4.8687,-4.9401,-5.0632,-5.1393,-5.1452,-5.2995,-5.3888,-5.3888,-5.3907,-5.4978,-5.7142,-5.7643,-5.8809,-6.0627,-6.0742,-6.08,-6.08,-6.08,-6.08,-6.08,-6.08,-6.08,-6.08,-6.08,-6.08,-6.08,-6.08,-6.08,-6.08,-6.0823,-6.0823,-6.0823,-6.0823,-6.0823,-6.0823,-6.0869,-6.0914,-6.0935,-6.0999,-6.102,-6.1041,-6.1191,-6.1142,-6.0929,-6.0287,-5.9441,-5.8579,-5.7875,-5.7053,-5.6439,-5.6503,-5.6558,-5.6606,-5.6606,-5.6606,-5.6313,-5.5454,-5.4674,-5.3834,-5.2858,-5.2058,-5.1531,-5.1414,-5.1394,-5.1394,-5.1394,-5.1394,-5.1394,-5.1394,-5.1394,-5.1394,-5.1394,-5.1394,-5.1394,-5.1394,-5.1394,-5.1394,-5.1394,-5.1394,-5.1394,-5.1394,-5.1394,-5.1394,-5.1394,-5.1394,-5.1394,-3.8077,-3.864,-3.8645,-3.7963,-3.7294,-3.621,-3.3937,-3.1707,0.0,0.0,0.0,-2.5101,-2.663,-2.7083,0.0,-3.2345,0.0,0.0,0.0,0.0,-4.3775,0.0,0.0,0.0,0.0,0.0,0.0,0.0,0.0,-5.1292,-5.1809,-5.3387,-5.4287,-5.4287,-5.4453,-5.5158,-5.6454,-5.7485,-5.8572,-5.9723,-6.0454,-6.08,-6.08,-6.08,-6.08,-6.08,-6.08,0.0,-6.08,-6.08,-6.08,-6.08,-6.08,-6.08,-6.08,-6.0846,-6.0869,-6.0891,-6.0955,-6.0955,-6.0955,-6.0891,-6.0939,-6.1003,-6.1059,-6.1126,-6.1182,-6.1264,-6.0837,-6.036,-6.0282,-5.9123,-5.7952,-5.7821,-5.7158,-5.6577,-5.6582,-5.6582,-5.6606,-5.6606,-5.6606,-5.6313,-5.5454,-5.5162,-5.4537,-5.2936,-5.2565,-5.2214,-5.1492,-5.1394,-5.1394,-5.1394,-5.1394,-5.1394,-5.1394,-5.1394,-5.1394,-5.1394,-5.1394,-5.1394,-5.1394,-5.1394,-5.1394,-5.1394,-5.1394,-5.1394,-5.1394,-5.1394,-5.1394,-5.1394,-5.1394,-5.1394,-3.7794,-3.8449,-3.8619,-3.7941,-3.6877,-3.5411,-3.3078,0.0,0.0,0.0,0.0,-2.3492,-2.4417,0.0,0.0,0.0,0.0,0.0,0.0,0.0,0.0,0.0,0.0,0.0,0.0,0.0,0.0,0.0,0.0,-5.1497,-5.2081,-5.3692,-5.4597,-5.4597,-5.4776,-5.5332,-5.6385,-5.7047,-5.8103,-5.9511,-5.9915,-6.0358,-6.08,-6.08,-6.055,-6.0146,-6.0589,-6.0531,-6.0165,-6.0608,-6.08,-6.08,-6.08,-6.08,-6.08,-6.0888,-6.0938,-6.0963,-6.1022,-6.1079,-6.1094,-6.1111,-6.1094,-6.1111,-6.1229,-6.1283,-6.1214,-6.0834,-6.0497,-6.0055,-5.9228,-5.8401,-5.7699,-5.7289,-5.6879,-5.6606,-5.6606,-5.6606,-5.6606,-5.6606,-5.6606,-5.6469,-5.6059,-5.5591,-5.4849,-5.3561,-5.2995,-5.239,-5.1511,-5.1394,-5.1394,-5.1394,-5.1394,-5.1394,-5.1394,-5.1394,-5.1394,-5.1394,-5.1394,-5.1394,-5.1394,-5.1394,-5.1402,-5.1394,-5.1398,-5.1398,-5.1394,-5.1391,-5.1405,-5.1394,-5.1394,-5.1394,-3.7061,-3.7827,-3.8124,-3.732,-3.6068,-3.4363,-3.1899,-2.9051,0.0,0.0,-2.331,-2.2249,-2.2478,0.0,0.0,0.0,0.0,0.0,0.0,0.0,0.0,0.0,0.0,0.0,0.0,0.0,0.0,0.0,0.0,0.0,-5.2645,-5.3927,-5.4724,-5.4895,-5.5018,-5.5477,-5.6295,-5.6649,-5.7627,-5.9242,-5.9415,-5.9954,-6.08,-6.08,-6.0319,-5.955,-6.0416,-6.03,-5.9569,-6.0477,-6.0823,-6.0823,-6.0846,-6.0846,-6.0846,-6.0935,-6.1002,-6.1039,-6.1128,-6.1205,-6.1253,-6.1324,-6.1311,-6.1289,-6.1408,-6.1312,-6.1062,-6.0417,-6.0013,-5.9462,-5.8142,-5.767,-5.7387,-5.6743,-5.6606,-5.6606,-5.6606,-5.6606,-5.6606,-5.6606,-5.6606,-5.6606,-5.6606,-5.602,-5.522,-5.4166,-5.3424,-5.2605,-5.1531,-5.1394,-5.1398,-5.1402,-5.1398,-5.1394,-5.1394,-5.1394,-5.1394,-5.1394,-5.1394,-5.1394,-5.1394,-5.1402,-5.1396,-5.1406,-5.1406,-5.1406,-5.1406,-5.1403,-5.1394,-5.1394,-5.1394,-5.1394,-3.6168,-3.6703,-3.6451,-3.4983,-3.4068,-3.2685,-2.9635,0.0,0.0,-2.3254,-2.1645,-2.0746,-2.1477,-2.1754,0.0,0.0,0.0,0.0,0.0,0.0,0.0,0.0,0.0,0.0,0.0,0.0,0.0,0.0,0.0,0.0,-5.3849,-5.4098,-5.4492,-5.5217,-5.5333,-5.5427,-5.5595,-5.6452,-5.7386,-5.8415,-5.9146,-5.9954,-6.08,-6.08,-6.0319,-5.955,-6.0416,-6.03,0.0,-6.0522,-6.0891,-6.0911,-6.0955,-6.0976,-6.0997,-6.1118,-6.1171,-6.12,-6.1322,-6.1389,-6.1386,-6.1461,-6.1471,-6.149,-6.1558,-6.1068,-6.0481,-6.0402,-5.9256,-5.7987,-5.7836,-5.727,-5.6684,-5.6626,-5.6606,-5.6606,-5.6606,-5.6606,-5.6606,-5.6606,-5.6606,-5.6606,-5.6606,-5.6528,-5.5923,-5.4244,-5.3932,-5.3288,-5.1609,-5.1394,-5.1405,-5.1402,-5.1408,-5.1394,-5.1394,-5.1394,-5.1394,-5.1394,-5.1394,-5.1394,-5.1394,-5.14,-5.1406,-5.14,-5.14,-5.14,-5.14,-5.1406,-5.1402,-5.1394,-5.1394,-5.1394,-3.4952,-3.6025,-3.6429,-3.4911,-3.3612,-3.1864,-2.8734,0.0,-2.3964,-2.2315,-2.1089,-2.0407,-2.0716,-2.1209,-2.2329,0.0,-2.6939,-2.9563,0.0,0.0,0.0,0.0,0.0,0.0,0.0,0.0,0.0,0.0,0.0,0.0,-5.2708,-5.3763,-5.4495,-5.4799,-5.5324,-5.5596,-5.5618,-5.5986,-5.6624,-5.7511,-5.7838,-5.8454,-5.93,-5.93,-5.8819,-5.8069,-5.9435,-5.955,0.0,-6.0311,-6.0918,-6.0963,-6.1022,-6.1077,-6.1126,-6.1225,-6.1297,-6.1394,-6.1489,-6.1539,-6.1588,-6.1621,-6.1621,-6.1621,-6.166,-6.1074,-6.0295,-5.9768,-5.8734,-5.7699,-5.7192,-5.684,-5.6606,-5.6606,-5.6606,-5.6606,-5.6606,-5.6606,-5.6606,-5.6606,-5.6606,-5.6606,-5.6606,-5.6606,-5.602,-5.4259,-5.401,-5.3366,-5.1629,-5.1394,-5.1404,-5.1405,-5.1406,-5.1405,-5.1406,-5.1406,-5.1406,-5.1406,-5.1406,-5.1406,-5.1406,-5.1406,-5.1381,-5.134,-5.1386,-5.1386,-5.134,-5.1372,-5.1402,-5.1406,-5.1406,-5.1406,-3.3173,-3.4508,-3.5187,-3.3695,-3.2465,-3.0823,0.0,0.0,-2.3552,-2.188,-2.0894,-2.0321,-2.0328,-2.0829,-2.1764,0.0,-2.5447,-2.7948,-3.1295,0.0,0.0,0.0,0.0,0.0,0.0,0.0,0.0,0.0,0.0,0.0,-5.151,-5.2933,-5.3972,-5.4472,-5.528,-5.5703,-5.5703,-5.5703,-5.6126,-5.6992,-5.6992,-5.7453,-5.83,-5.8303,-5.7841,-5.711,-5.8825,-5.9095,0.0,-6.0243,-6.1021,-6.1076,-6.1145,-6.1221,-6.1266,-6.1324,-6.1431,-6.1547,-6.1612,-6.1667,-6.1701,-6.1701,-6.1525,-6.1325,-6.132,-6.0715,-5.9827,-5.8968,-5.8109,-5.7309,-5.6743,-5.6606,-5.6606,-5.6606,-5.6606,-5.6606,-5.6606,-5.6606,-5.6606,-5.6606,-5.6606,-5.6591,-5.6579,-5.6566,-5.5983,-5.4225,-5.3974,-5.3349,-5.1611,-5.1405,-5.1385,-5.1372,-5.1385,-5.1402,-5.1398,-5.1398,-5.1398,-5.1398,-5.1398,-5.1398,-5.1398,-5.1402,-5.1375,-5.1322,-5.1356,-5.1356,-5.1341,-5.162,-5.1772,-5.1785,-5.2023,-5.2277,-3.0671,-3.1728,-3.1972,-3.0424,-3.0083,-2.9254,0.0,-2.4638,-2.3628,-2.1946,-2.0967,-2.0391,-2.0399,-2.0346,-2.0869,-2.2543,-2.355,-2.5303,-2.867,0.0,0.0,0.0,0.0,0.0,0.0,0.0,0.0,0.0,0.0,0.0,-5.0702,-5.1491,-5.2722,-5.4453,-5.528,-5.5703,-5.5703,-5.5703,-5.6126,-5.6992,-5.6992,-5.7453,-5.83,-5.8286,-5.7867,-5.7212,-5.893,-5.9203,0.0,-6.0422,-6.1189,-6.1217,-6.1336,-6.1389,-6.1406,-6.1471,-6.1547,-6.1612,-6.1687,-6.171,-6.1701,-6.1701,-6.1115,-6.0412,-6.0412,-5.9807,-5.8929,-5.805,-5.7231,-5.6606,-5.6606,-5.6606,-5.6606,-5.6606,-5.6606,-5.6606,-5.6606,-5.6606,-5.6606,-5.6606,-5.6606,-5.6575,-5.6518,-5.6504,-5.5913,-5.4154,-5.39,-5.3294,-5.1613,-5.1402,-5.1377,-5.1308,-5.1356,-5.1398,-5.1398,-5.1398,-5.1398,-5.1398,-5.1398,-5.1398,-5.1398,-5.1398,-5.1398,-5.1398,-5.1339,-5.1339,-5.1398,-5.2197,-5.2625,-5.2715,-5.3502,-5.434,-2.8469,-2.9804,-3.0615,-2.9568,-2.8472,-2.7083,-2.4937,-2.2968,-2.1436,-2.0958,-2.0171,-1.9752,-2.0361,-2.0404,-2.0913,-2.2603,-2.3565,0.0,0.0,0.0,0.0,0.0,0.0,0.0,0.0,0.0,0.0,0.0,0.0,0.0,-5.0702,-5.1471,-5.2433,-5.3587,-5.4434,-5.5145,-5.5684,-5.5703,-5.5838,-5.6107,-5.6107,-5.6261,-5.6511,-5.6575,-5.6483,-5.6347,-5.7541,-5.794,-5.7808,-5.9051,-5.9601,-5.9635,-5.9728,-5.9793,-5.982,-5.9853,-5.9878,-5.9884,-5.9915,-5.992,-5.9924,-5.9924,-5.9749,-5.9397,-5.8792,-5.8421,-5.8031,-5.7211,-5.6801,-5.6606,-5.6606,-5.6606,-5.6606,-5.6606,-5.6606,-5.6606,-5.6606,-5.6606,-5.6606,-5.6606,-5.6568,-5.6522,-5.6503,-5.6005,-5.5244,-5.4131,-5.3462,-5.2662,-5.155,-5.1394,-5.1388,-5.1369,-5.1347,-5.1339,-5.1339,-5.1339,-5.1339,-5.1339,-5.1339,-5.1339,-5.1339,-5.1339,-5.1339,-5.1339,-5.132,-5.132,-5.1339,-5.2197,-5.2918,-5.3541,-5.3775,-5.4379,0.0,-2.7381,-2.8238,-2.7412,-2.641,-2.5202,-2.3572,-2.1751,-2.0352,-2.0076,-1.9591,-1.9403,-1.9958,-2.0266,-2.0993,-2.2662,-2.335,0.0,0.0,0.0,0.0,0.0,0.0,0.0,0.0,0.0,0.0,0.0,0.0,0.0,-5.0702,-5.1183,-5.1837,-5.2683,-5.3876,-5.4741,-5.5241,-5.5549,-5.5703,-5.5703,-5.5724,-5.5745,-5.5745,-5.5866,-5.594,-5.6024,-5.6974,-5.7416,0.0,-5.8484,-5.889,-5.8947,-5.9018,-5.9053,-5.9104,-5.9104,-5.9104,-5.9104,-5.9104,-5.9104,-5.9104,-5.9104,-5.889,-5.8441,-5.7601,-5.7348,-5.7231,-5.6743,-5.6606,-5.6606,-5.6606,-5.6606,-5.6606,-5.6606,-5.6606,-5.6591,-5.6563,-5.6568,-5.6554,-5.6556,-5.6523,-5.6404,-5.6077,-5.5562,-5.4807,-5.3646,-5.3015,-5.2353,-5.1476,-5.1359,-5.1359,-5.1359,-5.132,-5.13,-5.13,-5.13,-5.13,-5.13,-5.13,-5.1456,-5.1787,-5.1787,-5.1943,-5.2275,-5.2275,-5.2275,-5.2275,-5.3171,-5.4028,-5.4885,-5.4885,-5.5178,0.0,-2.4529,-2.5046,-2.4296,-2.4063,-2.3603,-2.1974,-2.0936,0.0,-1.9278,-1.9158,-1.9223,-1.9292,-2.0002,-2.113,-2.2731,-2.3056,0.0,0.0,0.0,0.0,0.0,0.0,0.0,0.0,0.0,0.0,0.0,0.0,0.0,-5.0702,-5.0702,-5.1029,-5.1798,-5.3453,-5.4376,-5.4491,-5.5241,-5.5645,-5.5703,-5.5766,-5.5807,-5.5807,-5.6012,-5.611,0.0,-5.7055,-5.7453,-5.7594,-5.8481,-5.8838,-5.8843,-5.8897,-5.8919,-5.8929,-5.8929,-5.8929,-5.8929,-5.8929,-5.8929,-5.8929,-5.8929,-5.8363,-5.7582,-5.6821,-5.6606,-5.6606,-5.6606,-5.6606,-5.6606,-5.6606,-5.6606,-5.6606,-5.6606,-5.6606,-5.6575,-5.65,-5.6503,-5.6497,-5.6493,-5.6493,-5.6236,-5.544,-5.5197,-5.4554,-5.2937,-5.2586,-5.2216,-5.1398,-5.13,-5.13,-5.13,-5.13,-5.13,-5.13,-5.13,-5.13,-5.13,-5.13,-5.169,-5.2567,-5.2606,-5.3015,-5.3892,-5.3911,-5.3931,-5.3989,-5.4807,-5.5645,-5.6503,-5.6503,-5.6503,-1.989,0.0,-2.2698,-2.3169,-2.278,-2.2027,0.0,-1.9591,-1.8476,0.0,0.0,-1.8503,-1.9179,-2.0494,-2.1844,-2.2905,-2.4094,-2.5917,0.0,0.0,0.0,0.0,0.0,0.0,0.0,0.0,0.0,0.0,0.0,-5.0702,-5.0702,-5.0702,-5.0779,-5.0971,-5.203,-5.3205,-5.4491,-5.4684,-5.5088,-5.5703,-5.5766,-5.5827,-5.5882,-5.604,-5.6149,-5.6281,-5.6552,-5.673,-5.6848,-5.7069,-5.7152,-5.7177,-5.7182,-5.7187,-5.7192,-5.7192,-5.7192,-5.7192,-5.7192,-5.7192,-5.7192,-5.7192,-5.7055,-5.686,-5.6665,-5.6606,-5.6606,-5.6606,-5.6606,-5.6606,-5.6606,-5.6606,-5.6606,-5.6606,-5.6567,-5.6523,-5.6503,-5.649,-5.6508,-5.6504,-5.6491,-5.6432,-5.6235,-5.5088,-5.4067,-5.3658,-5.2469,-5.1534,-5.1339,-5.13,-5.13,-5.13,-5.13,-5.13,-5.13,-5.13,-5.13,-5.13,-5.13,-5.169,-5.2567,-5.2606,-5.3015,-5.3892,-5.3911,-5.4223,-5.4885,-5.51,-5.5645,-5.6503,-5.6503,-5.6503,-1.8234,-1.9914,-2.1315,-2.1786,-2.1536,-2.0971,-2.0138,0.0,0.0,0.0,0.0,0.0,-1.9144,0.0,0.0,-2.4089,-2.5673,0.0,0.0,0.0,0.0,0.0,0.0,0.0,0.0,0.0,0.0,0.0,0.0,-5.0087,-5.0087,-5.0471,-5.0702,-5.0702,-5.1164,-5.203,-5.3339,-5.4149,-5.4766,-5.5209,-5.5692,-5.5958,-5.6001,-5.6154,-5.6278,-5.6344,-5.6413,-5.6503,-5.6606,-5.6606,-5.6606,-5.6606,-5.6606,-5.6606,-5.6606,-5.6606,-5.6606,-5.6606,-5.6606,-5.6606,-5.6606,-5.6606,-5.6606,-5.6606,-5.6606,-5.6575,-5.6546,-5.6546,-5.6554,-5.6558,-5.6559,-5.6559,-5.6559,-5.6559,-5.6538,-5.6503,-5.6507,-5.6494,-5.6498,-5.6492,-5.6503,-5.6366,-5.5976,-5.5119,-5.4223,-5.3424,-5.2508,-5.1749,-5.1359,-5.13,-5.13,-5.13,-5.1671,-5.1904,-5.1904,-5.2255,-5.2158,-5.1359,-5.169,-5.2294,-5.3171,-5.358,-5.4203,-5.508,-5.508,-5.5333,-5.5801,-5.5801,-5.6035,-5.6503,-5.6503,-5.6503,-1.7533,-1.9262,-2.0579,-2.059,-2.0689,-2.0513,-1.9536,0.0,0.0,0.0,0.0,0.0,0.0,0.0,0.0,0.0,0.0,0.0,0.0,0.0,0.0,0.0,0.0,0.0,0.0,0.0,0.0,0.0,0.0,-4.9278,-4.9413,-5.0106,-5.0568,-5.0721,-5.0739,-5.1103,-5.1835,-5.3434,-5.4302,-5.4455,-5.5462,-5.5928,-5.5966,-5.625,-5.6414,-5.6432,0.0,0.0,-5.6606,-5.6606,-5.6606,-5.6606,-5.6606,-5.6606,-5.6606,-5.6606,-5.6606,-5.6606,-5.6606,-5.6606,-5.6606,-5.6606,-5.6606,-5.6606,-5.6591,-5.6551,-5.6503,-5.6504,-5.6503,-5.6495,-5.6507,-5.6504,-5.6504,-5.6504,-5.6507,-5.6504,-5.6509,-5.6503,-5.6503,-5.6503,-5.6503,-5.6269,-5.5528,-5.5295,-5.471,-5.3229,-5.2879,-5.2528,-5.1787,-5.171,-5.171,-5.171,-5.2353,-5.2801,-5.2801,-5.3483,-5.3268,-5.1787,-5.2391,-5.319,-5.4067,-5.4944,-5.5743,-5.6483,-5.6503,-5.6503,-5.6503,-5.6503,-5.6503,-5.6503,-5.6503,-5.6503,-1.7528,-1.9221,-2.0536,-2.0594,-2.1108,-2.1201,0.0,0.0,0.0,0.0,0.0,0.0,0.0,0.0,0.0,0.0,0.0,0.0,0.0,0.0,0.0,0.0,0.0,0.0,0.0,0.0,0.0,0.0,0.0,-4.8771,-4.9446,-4.96,-5.0023,-5.0756,-5.0893,-5.1029,-5.1155,-5.2094,-5.2976,-5.376,-5.4666,-5.5147,-5.5278,-5.6043,-5.6459,-5.6577,0.0,-5.6582,-5.6606,-5.6606,-5.6606,-5.6606,-5.6606,-5.6606,-5.6606,-5.6606,-5.6606,-5.6606,-5.6606,-5.6606,-5.6606,-5.6606,-5.6606,-5.6591,-5.6534,-5.6504,-5.6495,-5.6493,-5.6489,-5.6504,-5.6491,-5.6496,-5.6496,-5.6496,-5.6496,-5.6496,-5.65,-5.6492,-5.6503,-5.6503,-5.6503,-5.6464,-5.6308,-5.5684,-5.5119,-5.4846,-5.4164,-5.3658,-5.3522,-5.3502,-5.3502,-5.3502,-5.3619,-5.3697,-5.3697,-5.3814,-5.3794,-5.3522,-5.3638,-5.4087,-5.4963,-5.584,-5.6366,-5.6503,-5.6503,-5.6503,-5.6503,-5.6503,-5.6503,-5.6503,-5.6503,-5.6503,-1.7538,-1.888,-2.0026,-2.101,-2.1854,-2.214,0.0,0.0,0.0,0.0,0.0,0.0,0.0,0.0,0.0,0.0,0.0,0.0,0.0,0.0,0.0,0.0,0.0,0.0,0.0,0.0,0.0,0.0,0.0,-4.7868,-4.8236,-4.8701,-4.9359,-5.0225,-5.0319,-5.0608,-5.1102,-5.1511,-5.2142,-5.3025,-5.3885,-5.4363,-5.4473,-5.534,-5.5801,-5.5923,0.0,-5.6606,-5.6606,-5.6606,-5.6606,-5.6606,-5.6606,-5.6606,-5.6606,-5.6606,-5.6606,-5.6606,-5.6606,-5.6606,-5.6606,-5.6606,-5.6579,-5.6534,-5.6504,-5.6495,-5.6508,-5.6504,-5.6498,-5.6491,-5.65,-5.6503,-5.6503,-5.6503,-5.6503,-5.6503,-5.6503,-5.6503,-5.6503,-5.6503,-5.6503,-5.6503,-5.6503,-5.6171,-5.5743,-5.5275,-5.4866,-5.4437,-5.397,-5.3911,-5.3911,-5.3911,-5.432,-5.4593,-5.4593,-5.5022,-5.51,-5.4632,-5.4593,-5.4983,-5.5879,-5.6288,-5.6503,-5.6503,-5.6503,-5.6503,-5.6503,-5.6503,-5.6503,-5.6503,-5.6503,-5.6503,-1.7337,-1.8436,-1.9577,-2.111,0.0,-2.2921,-2.2505,0.0,0.0,0.0,0.0,0.0,0.0,0.0,0.0,0.0,0.0,0.0,0.0,0.0,0.0,0.0,0.0,0.0,0.0,0.0,0.0,0.0,0.0,-4.7017,-4.7212,-4.7861,-4.8708,-4.9796,-4.9828,-5.0295,-5.1211,-5.1291,-5.1635,-5.225,-5.314,-5.3572,-5.3644,-5.4513,-5.4957,-5.5025,-5.5708,-5.5981,-5.6001,-5.6216,-5.6294,-5.6313,-5.6528,-5.6606,-5.6606,-5.6606,-5.6606,-5.6606,-5.6606,-5.6606,-5.6606,-5.6575,-5.6534,-5.6504,-5.6495,-5.6504,-5.6504,-5.65,-5.6503,-5.6503,-5.6503,-5.6503,-5.6503,-5.6503,-5.6503,-5.6503,-5.6503,-5.6503,-5.6503,-5.6503,-5.6503,-5.6503,-5.6503,-5.6503,-5.6269,-5.5606,-5.5509,-5.5256,-5.4593,-5.4515,-5.4515,-5.4515,-5.5119,-5.5509,-5.5509,-5.6113,-5.621,-5.5548,-5.5509,-5.5801,-5.6464,-5.6503,-5.6503,-5.6503,-5.6503,-5.6503,-5.6503,-5.6503,-5.6503,-5.6503,-5.6503,-5.6503,-1.676,-1.7978,-1.9422,-2.0363,0.0,0.0,-2.4039,0.0,0.0,0.0,0.0,0.0,0.0,0.0,0.0,0.0,0.0,0.0,0.0,0.0,0.0,0.0,0.0,0.0,0.0,0.0,0.0,0.0,-4.6152,-4.6512,-4.7252,-4.7349,-4.8166,-4.9839,-4.9943,-5.0412,-5.1271,-5.1361,-5.1421,-5.1484,-5.2366,-5.2776,-5.2815,-5.3698,-5.4088,-5.4108,-5.4166,-5.4186,-5.4244,-5.5064,-5.5396,-5.5474,-5.6274,-5.6606,-5.6606,-5.6606,-5.6606,-5.6606,-5.6606,-5.6606,-5.6591,-5.6536,-5.6504,-5.6493,-5.6504,-5.6498,-5.6492,-5.6511,-5.6503,-5.6503,-5.6503,-5.6503,-5.6503,-5.6503,-5.6503,-5.6503,-5.6503,-5.6503,-5.6503,-5.6503,-5.6503,-5.6503,-5.6503,-5.6503,-5.6483,-5.6425,-5.6405,-5.6386,-5.6308,-5.6308,-5.6308,-5.6308,-5.6366,-5.6405,-5.6405,-5.6464,-5.6464,-5.6405,-5.6405,-5.6425,-5.6503,-5.6503,-5.6503,-5.6503,-5.6503,-5.6503,-5.6503,-5.6503,-5.6503,-5.6503,-5.6503,-5.6503,-1.7162,-1.79,-1.8971,-2.1433,0.0,0.0,0.0,0.0,0.0,0.0,0.0,0.0,0.0,0.0,0.0,0.0,0.0,0.0,0.0,0.0,0.0,0.0,0.0,0.0,0.0,0.0,0.0,0.0,-4.622,-4.6357,-4.6669,-4.6688,-4.7234,-4.8437,-4.8981,-4.9669,-5.0552,-5.1108,-5.139,-5.1394,-5.1726,-5.1882,-5.1921,-5.278,-5.319,-5.321,-5.3756,-5.401,-5.4029,-5.4361,-5.4498,-5.4576,-5.5454,-5.6118,-5.6606,-5.6606,-5.6606,-5.6606,-5.6606,-5.6579,-5.6536,-5.6504,-5.6493,-5.6504,-5.6498,-5.6508,-5.6503,-5.6503,-5.6503,-5.6503,-5.6503,-5.6503,-5.6503,-5.6503,-5.6503,-5.6503,-5.6503,-5.6503,-5.6503,-5.6503,-5.6503,-5.6503,-5.6503,-5.6503,-5.6503,-5.6503,-5.6503,-5.6503,-5.6503,-5.6503,-5.6503,-5.6503,-5.6503,-5.6503,-5.6503,-5.6503,-5.6503,-5.6503,-5.6503,-5.6503,-5.6503,-5.6503,-5.6503,-5.6503,-5.6503,-5.6503,-5.6503,-5.6503,-5.6503,-5.6503,-5.6503,-5.6775,-1.7589,-1.808,-1.8904,0.0,0.0,0.0,0.0,0.0,0.0,0.0,0.0,0.0,0.0,0.0,0.0,0.0,0.0,0.0,0.0,0.0,0.0,0.0,0.0,0.0,0.0,0.0,0.0,-4.63,-4.63,-4.63,-4.63,-4.63,-4.669,-4.7569,-4.8135,-4.8954,-5.0087,-5.0692,-5.1121,-5.1394,-5.1394,-5.1394,-5.1414,-5.2019,-5.2292,-5.2312,-5.2917,-5.3171,-5.321,-5.3483,-5.3756,-5.4068,-5.4654,-5.5415,-5.6196,-5.6196,-5.6352,-5.6606,-5.6579,-5.6536,-5.6504,-5.6493,-5.6504,-5.6498,-5.65,-5.6503,-5.6444,-5.6171,-5.6093,-5.6035,-5.5743,-5.6093,-5.6503,-5.6503,-5.6503,-5.6503,-5.6503,-5.6503,-5.6503,-5.6503,-5.6503,-5.6503,-5.6503,-5.6503,-5.6503,-5.6503,-5.6503,-5.6503,-5.6503,-5.6503,-5.6503,-5.6503,-5.6503,-5.6503,-5.6503,-5.6503,-5.6503,-5.6503,-5.6503,-5.6503,-5.6503,-5.6503,-5.6503,-5.6503,-5.6503,-5.6503,-5.6503,-5.6503,-5.6503,-5.6503,-5.6503,-5.6931,-1.7916,-1.8508,0.0,0.0,0.0,0.0,0.0,0.0,0.0,0.0,0.0,0.0,0.0,0.0,0.0,0.0,0.0,0.0,0.0,0.0,0.0,0.0,0.0,0.0,0.0,0.0,-4.63,-4.63,-4.63,-4.63,-4.63,-4.63,-4.669,-4.7569,-4.7608,-4.8408,-5.0067,-5.0087,-5.0516,-5.1375,-5.1375,-5.1375,-5.1394,-5.1394,-5.1394,-5.1394,-5.1394,-5.1394,-5.1472,-5.2331,-5.319,-5.399,-5.399,-5.4517,-5.5298,-5.5298,-5.5825,-5.6571,-5.6497,-5.6484,-5.6471,-5.648,-5.6478,-5.6483,-5.6483,-5.6483,-5.6288,-5.5431,-5.5197,-5.5002,-5.4126,-5.5178,-5.6483,-5.6483,-5.6483,-5.6483,-5.6483,-5.6483,-5.6503,-5.6503,-5.6503,-5.6503,-5.6503,-5.6503,-5.6503,-5.6503,-5.6503,-5.6503,-5.6503,-5.6503,-5.6503,-5.6503,-5.6503,-5.6503,-5.6503,-5.6503,-5.6503,-5.6503,-5.6503,-5.6503,-5.6503,-5.6503,-5.6503,-5.6503,-5.6503,-5.6503,-5.6503,-5.6503,-5.6503,-5.6503,-5.6503,-5.6951,-1.8483,0.0,0.0,0.0,0.0,0.0,0.0,0.0,0.0,0.0,0.0,0.0,0.0,0.0,0.0,0.0,0.0,0.0,0.0,0.0,0.0,0.0,0.0,0.0,0.0,-4.5948,-4.63,-4.63,-4.63,-4.63,-4.63,-4.63,-4.6417,-4.6671,-4.7276,-4.7842,-4.8349,-4.8896,-4.9325,-4.9579,-4.9579,-5.0204,-5.1394,-5.1394,-5.1394,-5.1394,-5.1394,-5.1394,-5.1414,-5.1687,-5.2292,-5.3093,-5.3093,-5.362,-5.4381,-5.4381,-5.4548,-5.4779,-5.4746,-5.4716,-5.4669,-5.4665,-5.4668,-5.4671,-5.4671,-5.4671,-5.4613,-5.4359,-5.4301,-5.4223,-5.397,-5.4281,-5.4671,-5.4671,-5.5139,-5.5587,-5.5587,-5.6074,-5.6503,-5.6503,-5.6503,-5.6503,-5.6503,-5.6503,-5.6503,-5.6503,-5.6503,-5.6503,-5.6503,-5.6503,-5.6503,-5.6503,-5.6503,-5.6503,-5.6503,-5.6503,-5.6503,-5.6503,-5.6503,-5.6503,-5.6503,-5.6503,-5.6503,-5.6503,-5.6503,-5.6503,-5.6503,-5.6503,-5.6795,-5.734,-5.734,-5.812,-1.9119,0.0,0.0,0.0,0.0,0.0,0.0,0.0,0.0,0.0,0.0,0.0,0.0,0.0,0.0,0.0,0.0,0.0,0.0,0.0,0.0,0.0,0.0,0.0,-4.4933,-4.548,-4.5929,-4.6261,-4.63,-4.63,-4.63,-4.63,-4.63,-4.63,-4.6807,-4.7256,-4.7608,-4.8076,-4.8486,-4.8798,-4.8798,-4.9345,-5.0379,-5.0731,-5.0887,-5.0906,-5.1258,-5.1394,-5.1394,-5.1394,-5.1707,-5.2175,-5.2175,-5.2722,-5.3483,-5.3474,-5.3705,-5.4004,-5.3974,-5.3928,-5.3904,-5.3908,-5.3892,-5.3911,-5.3911,-5.3911,-5.3833,-5.3483,-5.3385,-5.3307,-5.2957,-5.2879,-5.3034,-5.3736,-5.4574,-5.5197,-5.5197,-5.5879,-5.6503,-5.6503,-5.6503,-5.6503,-5.6503,-5.6503,-5.6503,-5.6503,-5.6503,-5.6503,-5.6503,-5.6503,-5.6503,-5.6503,-5.6503,-5.6503,-5.6503,-5.6503,-5.6503,-5.6503,-5.6503,-5.6503,-5.6503,-5.6503,-5.6503,-5.6503,-5.6503,-5.6658,-5.697,-5.697,-5.7399,-5.8217,-5.8217,-5.8957,0.0,0.0,0.0,0.0,0.0,0.0,0.0,0.0,0.0,0.0,0.0,0.0,0.0,0.0,0.0,0.0,0.0,0.0,0.0,0.0,0.0,0.0,0.0,0.0,-4.4602,-4.4836,-4.5207,-4.6007,-4.6144,-4.6183,-4.6183,-4.6261,-4.63,-4.63,-4.63,-4.6671,-4.7471,-4.749,-4.7842,-4.8564,-4.8564,-4.8564,-4.8603,-4.956,-5.0028,-5.0145,-5.0945,-5.1336,-5.1394,-5.1394,-5.1394,-5.1394,-5.1394,-5.1882,-5.2589,-5.2572,-5.3086,-5.3759,-5.3689,-5.367,-5.3658,-5.3658,-5.3658,-5.3658,-5.3658,-5.3658,-5.3502,-5.2703,-5.2489,-5.2294,-5.1515,-5.13,-5.171,-5.3288,-5.4398,-5.508,-5.508,-5.5821,-5.6503,-5.6503,-5.6503,-5.6503,-5.6503,-5.6503,-5.6503,-5.6503,-5.6503,-5.6503,-5.6503,-5.6503,-5.6503,-5.6503,-5.6503,-5.6503,-5.6503,-5.6503,-5.6503,-5.6503,-5.6503,-5.6503,-5.6503,-5.6503,-5.6522,-5.66,-5.66,-5.7009,-5.7808,-5.7808,-5.8276,-5.9113,-5.9113,-5.9581,0.0,0.0,0.0,0.0,0.0,0.0,0.0,0.0,0.0,0.0,0.0,0.0,0.0,0.0,0.0,0.0,0.0,0.0,0.0,0.0,0.0,0.0,0.0,-4.2552,-4.2923,-4.3587,-4.4055,-4.425,-4.4894,-4.5285,-4.5285,-4.5929,-4.63,-4.63,-4.63,-4.6397,-4.6573,-4.6573,-4.6671,-4.6846,-4.6846,-4.6846,-4.6885,-4.8388,-4.9442,-5.0106,-5.0301,-5.077,-5.1394,-5.1394,-5.1394,-5.1394,-5.1394,-5.1511,-5.1671,-5.1679,-5.1808,-5.1964,-5.1947,-5.19,-5.1865,-5.1865,-5.1865,-5.1865,-5.1865,-5.1865,-5.1826,-5.1632,-5.1573,-5.1534,-5.1359,-5.13,-5.1398,-5.1768,-5.3054,-5.4184,-5.4184,-5.5392,-5.6503,-5.6503,-5.6503,-5.6503,-5.6503,-5.6503,-5.6503,-5.6503,-5.6503,-5.6503,-5.6503,-5.6503,-5.6503,-5.6503,-5.6503,-5.6503,-5.6503,-5.6503,-5.6503,-5.6503,-5.6503,-5.6503,-5.6503,-5.6503,-5.6795,-5.7418,-5.7438,-5.7866,-5.8724,-5.8724,-5.9172,-6.001,-6.001,-6.0497,0.0,0.0,0.0,0.0,0.0,0.0,0.0,0.0,0.0,0.0,0.0,0.0,0.0,0.0,0.0,0.0,0.0,0.0,0.0,0.0,0.0,-4.1108,-4.1498,-4.1947,-4.2357,-4.2806,-4.3255,-4.3665,-4.4114,-4.4387,-4.4387,-4.5207,-4.5675,-4.5675,-4.6085,-4.63,-4.63,-4.63,-4.63,-4.63,-4.63,-4.63,-4.6339,-4.7647,-4.8681,-4.9481,-4.9481,-4.9735,-5.0184,-5.0614,-5.0789,-5.0828,-5.1238,-5.1394,-5.1402,-5.1406,-5.1402,-5.1388,-5.1355,-5.1339,-5.13,-5.13,-5.13,-5.13,-5.13,-5.13,-5.13,-5.13,-5.13,-5.13,-5.13,-5.13,-5.13,-5.13,-5.2625,-5.3911,-5.3911,-5.5275,-5.6503,-5.6503,-5.6503,-5.6503,-5.6503,-5.6503,-5.6503,-5.6503,-5.6503,-5.6503,-5.6503,-5.6503,-5.6503,-5.6503,-5.6503,-5.6503,-5.6503,-5.6503,-5.6503,-5.6503,-5.6503,-5.6658,-5.7048,-5.7068,-5.7262,-5.7691,-5.7691,-5.8334,-5.962,-5.962,-6.0068,-6.0925,-6.0925,-6.1179,0.0,0.0,0.0,0.0,0.0,0.0,0.0,0.0,0.0,0.0,0.0,0.0,0.0,0.0,0.0,-4.1088,0.0,0.0,0.0,0.0,-4.1108,-4.1108,-4.1108,-4.1381,-4.2103,-4.2181,-4.2474,-4.3196,-4.3391,-4.3489,-4.3489,-4.4309,-4.4777,-4.4777,-4.5617,-4.6085,-4.6085,-4.6222,-4.63,-4.63,-4.63,-4.63,-4.6319,-4.7042,-4.7822,-4.8584,-4.8584,-4.8662,-4.8857,-4.9579,-4.9969,-5.0165,-5.0887,-5.1261,-5.1408,-5.1406,-5.1406,-5.1398,-5.132,-5.13,-5.13,-5.13,-5.13,-5.13,-5.13,-5.13,-5.13,-5.13,-5.13,-5.13,-5.13,-5.13,-5.13,-5.13,-5.2528,-5.3677,-5.3677,-5.5041,-5.6269,-5.6269,-5.6405,-5.6503,-5.6503,-5.6503,-5.6503,-5.6503,-5.6503,-5.6503,-5.6503,-5.6503,-5.6503,-5.6503,-5.6503,-5.6503,-5.6503,-5.6503,-5.6561,-5.6697,-5.6697,-5.7068,-5.7886,-5.7925,-5.8003,-5.815,-5.815,-5.8929,-6.0507,-6.0507,-6.0877,-6.1578,-6.1578,-6.1578,0.0,0.0,0.0,0.0,0.0,0.0,0.0,0.0,0.0,0.0,0.0,0.0,0.0,-3.9931,-4.0223,-4.0987,-4.1108,-4.1108,-4.1108,-4.1108,-4.1108,-4.1108,-4.1108,-4.1147,-4.1264,-4.1264,-4.1322,-4.1439,-4.2142,-4.2572,-4.2572,-4.3391,-4.386,-4.386,-4.4719,-4.5168,-4.5168,-4.5929,-4.63,-4.63,-4.63,-4.63,-4.63,-4.6417,-4.6944,-4.7764,-4.7764,-4.8154,-4.8818,-4.8935,-4.9423,-5.0106,-5.0223,-5.075,-5.1406,-5.1404,-5.139,-5.1398,-5.132,-5.13,-5.13,-5.13,-5.13,-5.13,-5.13,-5.13,-5.13,-5.13,-5.13,-5.13,-5.13,-5.13,-5.13,-5.13,-5.206,-5.2781,-5.2781,-5.4145,-5.5372,-5.5372,-5.5976,-5.6503,-5.6503,-5.6503,-5.6503,-5.6503,-5.6503,-5.6503,-5.6503,-5.6503,-5.6503,-5.6503,-5.6503,-5.6503,-5.6503,-5.6503,-5.6795,-5.7496,-5.7535,-5.7925,-5.8782,-5.8821,-5.9182,-5.9932,-5.9951,-6.0408,-6.134,-6.134,-6.1398,-6.1515,-6.1515,-6.1515,-1.9963,-2.4206,0.0,0.0,0.0,0.0,0.0,0.0,0.0,0.0,0.0,0.0,-3.8688,-3.9026,-3.9214,-3.9621,-3.9702,-3.9858,-4.0307,-4.0366,-4.0542,-4.103,-4.1108,-4.1108,-4.1108,-4.1108,-4.1108,-4.1108,-4.1459,-4.1674,-4.1674,-4.2494,-4.2962,-4.2962,-4.3821,-4.4504,-4.4992,-4.5382,-4.5812,-4.63,-4.63,-4.63,-4.63,-4.63,-4.6515,-4.6866,-4.6866,-4.7061,-4.7432,-4.7939,-4.8349,-4.874,-4.9204,-4.99,-5.0661,-5.0669,-5.0981,-5.1398,-5.132,-5.13,-5.13,-5.13,-5.13,-5.13,-5.13,-5.13,-5.13,-5.13,-5.13,-5.13,-5.13,-5.13,-5.13,-5.13,-5.1593,-5.2002,-5.2489,-5.397,-5.5333,-5.5821,-5.623,-5.6503,-5.6503,-5.6503,-5.6503,-5.6503,-5.6503,-5.6503,-5.6503,-5.6503,-5.6503,-5.6503,-5.6503,-5.6503,-5.6503,-5.6912,-5.7321,-5.7673,-5.816,-5.8793,-5.9629,-5.9668,-6.0066,-6.0888,-6.0464,-6.0647,-6.144,-6.1434,-6.1434,-6.1434,-6.1434,-6.1434,-2.0575,-2.3644,-2.6076,0.0,0.0,0.0,0.0,0.0,0.0,0.0,0.0,-3.5792,-3.7444,-3.7968,-3.8244,-3.8548,-3.8593,-3.8804,-3.9409,-3.9507,-3.9741,-4.0385,-4.0639,-4.0776,-4.0776,-4.0971,-4.1108,-4.1108,-4.1108,-4.1108,-4.1108,-4.1713,-4.2064,-4.2064,-4.2923,-4.3684,-4.4328,-4.4563,-4.5109,-4.5968,-4.5968,-4.6085,-4.63,-4.63,-4.63,-4.63,-4.63,-4.63,-4.6358,-4.7002,-4.7396,-4.764,-4.8259,-4.9021,-4.9807,-5.003,-5.0498,-5.1067,-5.1242,-5.13,-5.13,-5.13,-5.13,-5.13,-5.13,-5.13,-5.13,-5.13,-5.13,-5.13,-5.13,-5.13,-5.13,-5.13,-5.1476,-5.1865,-5.2742,-5.4126,-5.547,-5.6327,-5.6503,-5.6503,-5.6503,-5.6503,-5.6503,-5.6503,-5.6503,-5.6503,-5.6503,-5.6503,-5.6503,-5.6503,-5.6503,-5.658,-5.6795,-5.736,-5.7896,-5.8335,-5.8948,-5.9666,-6.048,-6.0507,-6.0786,-6.135,-6.0761,-6.0761,-6.1369,-6.1381,-6.1371,-6.1371,-6.1371,-6.1371,-1.8585,-2.059,0.0,0.0,0.0,0.0,0.0,0.0,0.0,0.0,0.0,-3.4749,-3.5745,-3.6611,-3.7494,-3.8447,-3.8593,-3.8612,-3.8671,-3.8671,-3.869,-3.8729,-3.939,-3.9878,-3.9878,-4.062,-4.1108,-4.1108,-4.1108,-4.1108,-4.1108,-4.1147,-4.1166,-4.1166,-4.2006,-4.2494,-4.2533,-4.3352,-4.4211,-4.507,-4.507,-4.55,-4.63,-4.63,-4.63,-4.63,-4.63,-4.63,-4.63,-4.6358,-4.6822,-4.7518,-4.7615,-4.8167,-4.8977,-4.9809,-5.0092,-5.019,-5.1008,-5.13,-5.13,-5.13,-5.13,-5.13,-5.13,-5.13,-5.13,-5.13,-5.13,-5.13,-5.13,-5.13,-5.13,-5.13,-5.1924,-5.2781,-5.3638,-5.4554,-5.547,-5.6327,-5.6503,-5.6503,-5.6503,-5.6503,-5.6503,-5.6503,-5.6503,-5.6503,-5.6503,-5.6503,-5.6503,-5.6503,-5.6503,-5.6814,-5.7574,-5.7672,-5.8403,-6.0068,-6.0153,-6.0499,-6.1298,-6.133,-6.1327,-6.1302,-6.1194,-6.1194,-6.1302,-6.131,-6.1314,-6.1314,-6.1314,-6.1314,-1.6953,-1.9143,0.0,0.0,0.0,0.0,0.0,0.0,0.0,0.0,-3.3964,-3.4533,-3.4951,-3.5729,-3.6459,-3.6866,-3.6931,-3.7126,-3.7692,-3.777,-3.7965,-3.8534,-3.8843,-3.9039,-3.9039,-3.978,-4.0268,-4.0268,-4.0776,-4.1108,-4.1108,-4.1108,-4.1108,-4.1108,-4.14,-4.183,-4.2396,-4.3255,-4.386,-4.4172,-4.4738,-4.5168,-4.548,-4.6046,-4.63,-4.63,-4.63,-4.63,-4.6303,-4.6297,-4.6463,-4.6736,-4.6703,-4.7221,-4.7996,-4.8327,-4.9099,-5.0034,-5.0365,-5.0833,-5.13,-5.13,-5.13,-5.13,-5.13,-5.13,-5.13,-5.13,-5.13,-5.13,-5.13,-5.13,-5.1437,-5.2002,-5.3229,-5.4359,-5.4671,-5.5411,-5.6132,-5.6444,-5.6503,-5.6503,-5.6503,-5.6503,-5.6503,-5.6503,-5.6503,-5.6503,-5.6503,-5.6503,-5.6483,-5.6446,-5.6943,-5.7371,-5.7605,-5.8656,-5.958,-6.0207,-6.0696,-6.1084,-6.1327,-6.1341,-6.1326,-6.131,-6.1242,-6.1206,-6.1242,-6.1191,-6.1173,-6.1173,-6.1173,-6.1463,-1.5818,0.0,0.0,0.0,0.0,0.0,0.0,0.0,0.0,0.0,-3.2712,-3.3366,-3.4047,-3.4886,-3.5611,-3.5949,-3.5991,-3.6208,-3.6774,-3.6852,-3.7087,-3.7653,-3.7985,-3.816,-3.816,-3.8902,-3.939,-3.939,-4.0171,0.0,-4.0659,-4.0932,-4.1108,-4.1108,-4.1108,-4.1381,-4.1967,-4.2533,-4.2962,-4.3274,-4.386,-4.4426,-4.5012,-4.5597,-4.6027,-4.63,-4.63,-4.63,-4.6303,-4.6305,-4.6288,-4.6256,-4.623,-4.6546,-4.7092,-4.7384,-4.8397,-4.9644,-4.9917,-5.0579,-5.13,-5.13,-5.13,-5.13,-5.13,-5.13,-5.13,-5.13,-5.13,-5.13,-5.13,-5.1515,-5.1963,-5.284,-5.4145,-5.5266,-5.5539,-5.6093,-5.6503,-5.6503,-5.6503,-5.6503,-5.6503,-5.6503,-5.6503,-5.6503,-5.6503,-5.6503,-5.6503,-5.6503,-5.6591,-5.6797,-5.7332,-5.7876,-5.8387,-5.9503,-6.0287,-6.054,-6.1056,-6.1302,-6.1275,-6.1533,-6.1673,-6.1673,-6.1908,-6.2044,-6.2044,-6.1407,-6.1253,-6.1543,-6.1543,-6.2162,0.0,0.0,0.0,0.0,0.0,0.0,0.0,0.0,0.0,-2.9853,-3.0626,-3.1222,-3.2942,-3.4035,-3.4931,-3.5796,-3.5971,-3.5991,-3.5991,-3.5991,-3.5991,-3.5991,-3.6755,-3.7262,-3.7262,-3.8043,-3.8553,-3.8553,-3.9312,-3.9761,-3.98,-4.062,-4.1108,-4.1108,-4.1108,-4.1108,-4.1108,-4.1108,-4.1518,-4.2357,-4.2396,-4.3294,-4.4914,-4.4953,-4.5441,-4.6261,-4.6264,-4.6284,-4.6303,-4.6307,-4.6265,-4.6202,-4.6206,-4.6196,-4.6293,-4.715,-4.8008,-4.8865,-4.9664,-5.0502,-5.1261,-5.1261,-5.1281,-5.13,-5.13,-5.13,-5.13,-5.13,-5.13,-5.13,-5.13,-5.1963,-5.2859,-5.3697,-5.4593,-5.5442,-5.6222,-5.6446,-5.6483,-5.6503,-5.6503,-5.6503,-5.6503,-5.6503,-5.6503,-5.6503,-5.6503,-5.6503,-5.6522,-5.6522,-5.6844,-5.7654,-5.7701,-5.8328,-5.9957,-6.0112,-6.0459,-6.1244,-6.1236,-6.1223,-6.1249,-6.1988,-6.2414,-6.2453,-6.3265,-6.369,-6.369,-6.2008,-6.1621,-6.2453,-6.2472,-6.3381,-1.5156,0.0,0.0,0.0,0.0,0.0,0.0,0.0,0.0,-2.8417,-2.9883,-3.1114,-3.2232,-3.3158,-3.3844,-3.4078,-3.5171,-3.5991,-3.5991,-3.5991,-3.5991,-3.5991,-3.6208,-3.6364,-3.6364,-3.7145,-3.7653,0.0,-3.8453,-3.9195,-3.9761,-4.062,-4.1108,-4.1108,-4.1108,-4.1108,-4.1108,-4.1108,-4.1225,-4.1479,-4.2103,-4.265,-4.3138,-4.3774,-4.454,-4.5364,-4.5367,-4.5721,-4.6306,-4.6303,-4.6289,-4.6276,-4.621,-4.6195,-4.6235,-4.6468,-4.7111,-4.7891,-4.8105,-4.9138,-5.0365,-5.0365,-5.0794,-5.13,-5.13,-5.13,-5.13,-5.13,-5.13,-5.13,-5.13,-5.2411,-5.3599,-5.3833,-5.5041,-5.6182,-5.6359,-5.6378,-5.6368,-5.6417,-5.6437,-5.6437,-5.6437,-5.6437,-5.6437,-5.6437,-5.6437,-5.6641,-5.7225,-5.7302,-5.7623,-5.8484,-5.907,-5.9607,-6.0051,-6.0643,-6.1058,-6.1294,-6.1242,-6.1479,-6.2101,-6.2297,-6.2704,-6.3323,-6.3574,-6.369,-6.369,-6.3207,-6.3091,-6.3362,-6.398,-6.4541,-1.6348,0.0,0.0,0.0,0.0,0.0,-2.1365,-2.2912,0.0,0.0,-2.7963,-2.9042,-3.0292,-3.1231,-3.1816,-3.1816,-3.3241,-3.4627,-3.5369,-3.5779,-3.5991,-3.5991,-3.5991,-3.5991,-3.5991,-3.6462,-3.6755,-3.6755,-3.7575,-3.857,-3.9741,-4.0307,-4.0756,-4.1088,-4.1108,-4.1108,-4.1108,-4.1108,-4.1108,-4.1108,-4.1615,-4.2051,-4.2429,-4.2909,-4.3594,-4.4414,-4.4391,-4.4874,-4.5675,-4.5677,-4.5905,-4.6241,-4.6221,-4.6209,-4.6208,-4.6174,-4.6719,-4.7459,-4.7459,-4.8569,-5.001,-5.001,-5.0575,-5.1256,-5.1256,-5.1256,-5.1256,-5.1256,-5.1256,-5.1256,-5.1256,-5.2561,-5.3866,-5.3866,-5.519,-5.6446,-5.6368,-5.6336,-5.6314,-5.6345,-5.6345,-5.6314,-5.6314,-5.6314,-5.6314,-5.6314,-5.6314,-5.6625,-5.7449,-5.7566,-5.802,-5.9238,-5.9779,-6.0181,-6.0522,-6.0954,-6.1227,-6.1227,-6.1173,-6.1542,-6.2413,-6.2781,-6.3342,-6.4232,-6.4561,-6.4735,-6.4735,-6.4038,-6.3884,-6.4251,-6.5102,-6.5489,-1.8418,-1.8359,0.0,0.0,-1.9434,0.0,-2.1191,-2.1679,-2.2493,0.0,-2.5495,-2.6066,-2.7715,-2.8635,-2.9162,-2.9162,-3.0587,-3.2324,-3.4159,-3.5154,-3.5718,-3.5718,-3.5798,-3.5857,-3.5857,-3.5932,-3.5991,-3.5991,-3.6813,-3.7946,-3.9449,-3.9663,-4.0135,-4.0938,-4.0957,-4.0996,-4.1094,-4.1094,-4.1094,-4.1094,-4.1094,-4.1513,-4.2245,-4.2197,-4.2633,-4.3456,-4.3377,-4.3851,-4.466,-4.4766,-4.5358,-4.6195,-4.6183,-4.6176,-4.6169,-4.6113,-4.6571,-4.7241,-4.7241,-4.8389,-4.9849,-4.9849,-5.0442,-5.1181,-5.1181,-5.1181,-5.1181,-5.1181,-5.1181,-5.1181,-5.1181,-5.2485,-5.3788,-5.3788,-5.5111,-5.6356,-5.6302,-5.6285,-5.6291,-5.6278,-5.6246,-5.6201,-5.6201,-5.6201,-5.6201,-5.6201,-5.6201,-5.655,-5.7521,-5.7638,-5.8284,-5.9948,-6.015,-6.0411,-6.1133,-6.1137,-6.1099,-6.1099,-6.1099,-6.1524,-6.2511,-6.3284,-6.4135,-6.5102,-6.5837,-6.6205,-6.6205,-6.4696,-6.4367,-6.5141,-6.5876,-6.6205,-2.0957,-2.0625,-2.0137,-2.0293,0.0,0.0,-1.9863,-2.0879,-2.2207,0.0,-2.4171,-2.4961,-2.6015,-2.6349,-2.6466,-2.6466,-2.791,-2.9884,-3.2265,-3.3358,-3.3905,-3.3905,-3.453,-3.4959,-3.4959,-3.5584,-3.5991,-3.5991,-3.6813,-3.7438,-3.777,-3.8463,-3.9252,-4.0116,-4.0077,-4.039,-4.1093,-4.1093,-4.1093,-4.1093,-4.1093,-4.1191,-4.1341,-4.1283,-4.1735,-4.2544,-4.2473,-4.296,-4.381,-4.4514,-4.5319,-4.6114,-4.6066,-4.6046,-4.6033,-4.6026,-4.6134,-4.627,-4.627,-4.7416,-4.8874,-4.8874,-4.9904,-5.1117,-5.1117,-5.1117,-5.1117,-5.1117,-5.1117,-5.1117,-5.1117,-5.2411,-5.3713,-5.3713,-5.5015,-5.6246,-5.6226,-5.6165,-5.6136,-5.6126,-5.616,-5.6209,-5.6209,-5.6209,-5.6209,-5.6209,-5.6209,-5.6752,-5.8284,-5.8478,-5.9122,-6.0868,-6.0993,-6.1016,-6.1191,-6.1137,-6.1099,-6.1099,-6.1099,-6.1814,-6.3381,-6.3613,-6.4406,-6.5934,-6.6127,-6.6205,-6.6205,-6.5876,-6.5799,-6.5973,-6.6127,-6.6205,-2.2904,-2.2516,-2.1855,-2.1855,0.0,0.0,0.0,-2.0624,-2.1484,-2.2324,-2.2851,-2.3414,-2.4252,-2.4408,-2.4408,-2.4408,-2.5873,-2.7456,-2.8724,-3.1138,-3.291,-3.3358,-3.3788,-3.4217,-3.4666,-3.5096,-3.5525,-3.5971,-3.6404,-3.6836,-3.7274,-3.7676,-3.8295,-3.9172,-3.9139,-3.9517,-4.0391,-4.0411,-4.0625,-4.1055,-4.1055,-4.1022,-4.1006,-4.0972,-4.1177,-4.1558,-4.1529,-4.1985,-4.28,-4.3227,-4.4171,-4.5395,-4.5822,-4.5998,-4.5999,-4.5953,-4.5953,-4.5953,-4.5953,-4.6806,-4.7971,-4.8417,-4.9407,-5.0532,-5.0979,-5.1095,-5.1095,-5.1095,-5.1095,-5.1095,-5.1095,-5.2376,-5.3657,-5.3657,-5.4957,-5.6199,-5.619,-5.616,-5.611,-5.6098,-5.6098,-5.6098,-5.6098,-5.6098,-5.6098,-5.6098,-5.6098,-5.6717,-5.8422,-5.8654,-5.9312,-6.1016,-6.1173,-6.1155,-6.1155,-6.1117,-6.1099,-6.1099,-6.1099,-6.1872,-6.3632,-6.369,-6.4483,-6.6166,-6.6205,-6.6205,-6.6205,-6.6205,-6.6205,-6.6205,-6.6205,-6.6205,0.0,0.0,0.0,0.0,0.0,-2.1845,0.0,0.0,0.0,-2.1498,-2.1751,0.0,0.0,0.0,0.0,0.0,0.0,0.0,0.0,-2.8319,0.0,-3.227,-3.2719,-3.3205,-3.391,-3.4105,-3.4556,-3.5433,-3.5491,-3.589,-3.6757,-3.6897,-3.7355,-3.8213,-3.8182,-3.8649,-3.9684,-3.9704,-4.0132,-4.0976,-4.0976,-4.0952,-4.0907,-4.0893,-4.0851,-4.0809,-4.0808,-4.1158,-4.1777,-4.1932,-4.2937,-4.444,-4.5367,-4.5836,-4.5949,-4.5905,-4.5873,-4.5873,-4.5873,-4.6455,-4.7295,-4.7992,-4.8922,-4.993,-5.0801,-5.1053,-5.1053,-5.1053,-5.1053,-5.1053,-5.1053,-5.2177,-5.3359,-5.3533,-5.4773,-5.5955,-5.613,-5.6133,-5.6082,-5.6082,-5.6029,-5.6012,-5.6012,-5.6012,-5.607,-5.6244,-5.6263,-5.6882,-5.8623,-5.8855,-5.9435,-6.0944,-6.1099,-6.1099,-6.1099,-6.1099,-6.1099,-6.1099,-6.1099,-6.1872,-6.3632,-6.4,-6.4812,-6.6166,-6.6205,-6.6205,-6.6205,-6.6205,-6.6205,-6.6205,-6.6205,-6.6205,0.0,0.0,0.0,0.0,-2.3513,0.0,0.0,0.0,-2.0542,-2.0639,0.0,0.0,0.0,0.0,0.0,0.0,0.0,0.0,-2.3218,-2.4395,-2.6109,-2.8574,-3.0231,-3.1224,-3.1323,-3.1971,-3.2753,-3.3632,-3.3691,-3.4082,-3.4956,-3.5662,-3.6441,-3.7325,-3.7286,-3.8045,-3.968,-3.97,-4.0101,-4.0918,-4.0918,-4.0913,-4.0907,-4.0849,-4.0807,-4.08,-4.0796,-4.0848,-4.0984,-4.1699,-4.257,-4.3537,-4.4421,-4.5189,-4.5827,-4.5814,-4.5814,-4.5814,-4.5814,-4.6375,-4.7129,-4.7226,-4.8368,-4.9857,-5.0689,-5.0921,-5.0921,-5.0921,-5.0921,-5.0921,-5.0921,-5.1637,-5.2546,-5.332,-5.4249,-5.5158,-5.5874,-5.6012,-5.6012,-5.6012,-5.6012,-5.6012,-5.6012,-5.6012,-5.6263,-5.7037,-5.7153,-5.7791,-5.9532,-5.9745,-6.0093,-6.1002,-6.1099,-6.1099,-6.1099,-6.1099,-6.1099,-6.1099,-6.1099,-6.1872,-6.3632,-6.5122,-6.6011,-6.6205,-6.6205,-6.6205,-6.6205,-6.6205,-6.6205,-6.6205,-6.6205,-6.6205,0.0,0.0,0.0,0.0,0.0,0.0,-2.0899,0.0,-2.1231,0.0,0.0,0.0,0.0,0.0,0.0,0.0,-2.1761,0.0,0.0,0.0,-2.4344,0.0,0.0,0.0,-3.0038,-3.0866,-3.1507,-3.185,-3.1864,-3.2432,-3.3814,-3.4653,-3.5465,-3.6304,-3.6298,-3.6861,-3.8064,-3.8588,-3.9238,-4.0091,-4.0595,-4.0837,-4.0834,-4.0823,-4.08,-4.0796,-4.0803,-4.079,-4.0829,-4.1158,-4.1796,-4.2628,-4.3518,-4.4659,-4.58,-4.58,-4.58,-4.58,-4.58,-4.6032,-4.6515,-4.7521,-4.8682,-4.9861,-5.0674,-5.0906,-5.0906,-5.0906,-5.0906,-5.0906,-5.0906,-5.1544,-5.2414,-5.3285,-5.4175,-5.5026,-5.5838,-5.6012,-5.6012,-5.6012,-5.6012,-5.6012,-5.6012,-5.6012,-5.6302,-5.7172,-5.7308,-5.7927,-5.9687,-5.9899,-6.0209,-6.1002,-6.1099,-6.1099,-6.1099,-6.1099,-6.1099,-6.1099,-6.1582,-6.2414,-6.3652,-6.4851,-6.5721,-6.6185,-6.6205,-6.6205,-6.6205,-6.6205,-6.6205,-6.6205,-6.6205,-6.6205,-2.9736,0.0,0.0,0.0,0.0,0.0,0.0,0.0,0.0,0.0,0.0,0.0,0.0,0.0,0.0,0.0,0.0,-2.1692,0.0,-2.1925,0.0,0.0,0.0,0.0,0.0,-2.9324,-2.9585,-3.0059,-3.0039,-3.0775,-3.2492,-3.3798,-3.4759,-3.5339,-3.5581,-3.6091,-3.6884,-3.7754,-3.8644,-3.9507,-4.0365,-4.079,-4.079,-4.079,-4.079,-4.079,-4.079,-4.079,-4.079,-4.079,-4.1274,-4.2086,-4.2957,-4.4194,-4.549,-4.5722,-4.58,-4.58,-4.58,-4.58,-4.609,-4.7831,-4.8836,-4.9533,-5.0577,-5.0906,-5.0906,-5.0906,-5.0906,-5.0906,-5.0906,-5.137,-5.2124,-5.3246,-5.3981,-5.4735,-5.578,-5.6012,-5.6012,-5.6012,-5.6012,-5.6012,-5.6012,-5.6012,-5.6379,-5.7501,-5.7656,-5.8275,-6.0016,-6.0228,-6.0441,-6.1041,-6.1099,-6.1099,-6.1099,-6.1099,-6.1099,-6.1099,-6.193,-6.2781,-6.3652,-6.4541,-6.5373,-6.6185,-6.6205,-6.6205,-6.6205,-6.6205,-6.6205,-6.6205,-6.6205,-6.6205,0.0,0.0,0.0,-2.6036,0.0,0.0,0.0,0.0,-2.1917,0.0,0.0,0.0,0.0,0.0,0.0,0.0,0.0,0.0,0.0,0.0,0.0,0.0,0.0,0.0,0.0,-2.6794,-2.6541,0.0,-2.8272,-2.9005,-3.0697,-3.3161,-3.4486,-3.4439,-3.5261,-3.6091,-3.6884,-3.7754,-3.8644,-3.9507,-4.0365,-4.079,-4.079,-4.079,-4.079,-4.079,-4.079,-4.079,-4.079,-4.079,-4.1274,-4.2086,-4.2957,-4.3846,-4.4736,-4.551,-4.58,-4.58,-4.58,-4.58,-4.609,-4.7831,-4.8411,-4.8759,-5.0403,-5.0906,-5.0906,-5.0906,-5.0906,-5.0906,-5.0906,-5.0925,-5.137,-5.3091,-5.3517,-5.3981,-5.5644,-5.6012,-5.6012,-5.6012,-5.6012,-5.6012,-5.6012,-5.6012,-5.6573,-5.8294,-5.8565,-5.9165,-6.0847,-6.106,-6.1079,-6.1099,-6.1099,-6.1099,-6.1099,-6.1099,-6.1099,-6.1099,-6.193,-6.2781,-6.3652,-6.4541,-6.5373,-6.6185,-6.6205,-6.6205,-6.6205,-6.6205,-6.6205,-6.6205,-6.6205,-6.6205,0.0,0.0,-2.9648,-2.8466,0.0,0.0,0.0,0.0,0.0,0.0,0.0,0.0,0.0,0.0,0.0,0.0,0.0,0.0,0.0,0.0,0.0,0.0,0.0,0.0,0.0,0.0,0.0,0.0,-2.6916,0.0,-2.9683,-3.2192,-3.3819,-3.439,-3.525,-3.582,-3.6091,-3.6922,-3.7773,-3.8644,-3.9514,-4.023,-4.079,-4.079,-4.079,-4.079,-4.079,-4.079,-4.079,-4.079,-4.0965,-4.1293,-4.2125,-4.2976,-4.3904,-4.5278,-4.58,-4.58,-4.58,-4.58,-4.609,-4.7831,-4.8392,-4.8701,-5.0403,-5.0906,-5.0906,-5.0906,-5.0906,-5.0906,-5.0906,-5.1331,-5.2047,-5.3227,-5.3942,-5.4658,-5.576,-5.6012,-5.6012,-5.6012,-5.6012,-5.6012,-5.6012,-5.6012,-5.6592,-5.8333,-5.8604,-5.9203,-6.0886,-6.1099,-6.1099,-6.1099,-6.1099,-6.1099,-6.1099,-6.1099,-6.1099,-6.1099,-6.1389,-6.193,-6.2801,-6.3671,-6.4541,-6.5392,-6.5934,-6.6205,-6.6205,-6.6205,-6.5934,-6.5412,-6.5412,-6.5682,-3.3359,-3.2313,0.0,-3.0146,-2.8232,0.0,-2.5496,0.0,-2.6129,0.0,0.0,0.0,0.0,0.0,0.0,0.0,0.0,0.0,0.0,-2.0399,0.0,0.0,0.0,0.0,0.0,0.0,-2.4174,-2.4975,-2.5805,0.0,0.0,-3.1255,-3.3035,-3.3905,-3.5085,-3.5704,-3.5704,-3.6497,-3.7348,-3.8218,-3.9069,-3.9971,-4.079,-4.079,-4.079,-4.079,-4.079,-4.079,-4.079,-4.079,-4.079,-4.0868,-4.168,-4.2531,-4.3479,-4.4852,-4.5548,-4.58,-4.58,-4.58,-4.6032,-4.7463,-4.814,-4.8662,-5.0055,-5.0674,-5.0906,-5.0906,-5.0906,-5.0983,-5.1273,-5.1776,-5.2492,-5.3672,-5.4387,-5.5026,-5.5838,-5.6012,-5.6012,-5.6012,-5.6012,-5.6012,-5.6012,-5.6012,-5.6592,-5.8333,-5.8604,-5.9203,-6.0886,-6.1099,-6.1099,-6.1099,-6.1099,-6.1099,-6.1099,-6.1099,-6.1099,-6.1099,-6.1099,-6.1485,-6.2356,-6.2936,-6.3787,-6.4967,-6.5508,-6.5915,-6.6205,-6.6205,-6.5779,-6.4986,-6.4986,-6.5102]}]]